<?xml version='1.0' encoding='UTF-8'?><gpx version="1.1" creator="JPX - https://github.com/jenetics/jpx" xmlns="http://www.topografix.com/GPX/1/1"><trk><trkseg><trkpt lat="40.57744389869326" lon="-5.661016367381123"><ele>967.0</ele><time>2026-04-19T12:29:55.999Z</time></trkpt><trkpt lat="40.577552025244174" lon="-5.660927686845568"><ele>967.0</ele><time>2026-04-19T12:29:56.999Z</time></trkpt><trkpt lat="40.577665013298926" lon="-5.660838251938728"><ele>967.0</ele><time>2026-04-19T12:29:57.999Z</time></trkpt><trkpt lat="40.57778089311027" lon="-5.660746805375125"><ele>967.0</ele><time>2026-04-19T12:29:58.999Z</time></trkpt><trkpt lat="40.57790595110559" lon="-5.660655358811524"><ele>966.3333333333333</ele><time>2026-04-19T12:29:59.999Z</time></trkpt><trkpt lat="40.57803649924749" lon="-5.6605579610966705"><ele>965.6666666666667</ele><time>2026-04-19T12:30:00.999Z</time></trkpt><trkpt lat="40.57816479516817" lon="-5.6604640002150095"><ele>965.0</ele><time>2026-04-19T12:30:01.999Z</time></trkpt><trkpt lat="40.578307499481554" lon="-5.6603631371268"><ele>965.0</ele><time>2026-04-19T12:30:02.999Z</time></trkpt><trkpt lat="40.57844955744222" lon="-5.660256957642599"><ele>965.0</ele><time>2026-04-19T12:30:03.999Z</time></trkpt><trkpt lat="40.57871967979283" lon="-5.660061995633777"><ele>965.0</ele><time>2026-04-19T12:30:05.999Z</time></trkpt><trkpt lat="40.57884911350036" lon="-5.659971819380672"><ele>965.0</ele><time>2026-04-19T12:30:06.999Z</time></trkpt><trkpt lat="40.578989163185334" lon="-5.659857923498022"><ele>965.0</ele><time>2026-04-19T12:30:08Z</time></trkpt><trkpt lat="40.57912822091681" lon="-5.6597505836506485"><ele>965.0</ele><time>2026-04-19T12:30:09Z</time></trkpt><trkpt lat="40.57927280793274" lon="-5.659644469135579"><ele>965.0</ele><time>2026-04-19T12:30:10Z</time></trkpt><trkpt lat="40.57942309867923" lon="-5.659532083818265"><ele>965.0</ele><time>2026-04-19T12:30:11Z</time></trkpt><trkpt lat="40.57958677052366" lon="-5.659426729438046"><ele>965.0</ele><time>2026-04-19T12:30:12Z</time></trkpt><trkpt lat="40.57974201240657" lon="-5.659311038292122"><ele>965.0</ele><time>2026-04-19T12:30:13Z</time></trkpt><trkpt lat="40.579896071747335" lon="-5.659199223471223"><ele>965.0</ele><time>2026-04-19T12:30:14Z</time></trkpt><trkpt lat="40.58004581446466" lon="-5.6590900070067205"><ele>965.0</ele><time>2026-04-19T12:30:15Z</time></trkpt><trkpt lat="40.58018558263921" lon="-5.658988885274298"><ele>965.0</ele><time>2026-04-19T12:30:15.999Z</time></trkpt><trkpt lat="40.580316138639375" lon="-5.658909094261275"><ele>965.0</ele><time>2026-04-19T12:30:16.999Z</time></trkpt><trkpt lat="40.58045631943654" lon="-5.658832951240766"><ele>964.5</ele><time>2026-04-19T12:30:17.999Z</time></trkpt><trkpt lat="40.5805819694552" lon="-5.65874819636413"><ele>964.0</ele><time>2026-04-19T12:30:18.999Z</time></trkpt><trkpt lat="40.58070736402877" lon="-5.658693313055406"><ele>963.5</ele><time>2026-04-19T12:30:19.999Z</time></trkpt><trkpt lat="40.58081438696875" lon="-5.6586358410968325"><ele>963.0</ele><time>2026-04-19T12:30:20.999Z</time></trkpt><trkpt lat="40.58094367747767" lon="-5.658592542646854"><ele>963.0</ele><time>2026-04-19T12:30:21.999Z</time></trkpt><trkpt lat="40.58106975477811" lon="-5.658566998069525"><ele>963.0</ele><time>2026-04-19T12:30:22.999Z</time></trkpt><trkpt lat="40.58120730428975" lon="-5.658549863559548"><ele>963.0</ele><time>2026-04-19T12:30:23.999Z</time></trkpt><trkpt lat="40.58134314795096" lon="-5.6585529002754935"><ele>963.0</ele><time>2026-04-19T12:30:24.999Z</time></trkpt><trkpt lat="40.581496109538" lon="-5.65856461734658"><ele>962.6666666666667</ele><time>2026-04-19T12:30:25.999Z</time></trkpt><trkpt lat="40.581648030978975" lon="-5.658578097914487"><ele>962.3333333333334</ele><time>2026-04-19T12:30:26.999Z</time></trkpt><trkpt lat="40.581796616119185" lon="-5.658611084724992"><ele>962.0</ele><time>2026-04-19T12:30:27.999Z</time></trkpt><trkpt lat="40.58196393959662" lon="-5.658649874380001"><ele>961.0</ele><time>2026-04-19T12:30:28.999Z</time></trkpt><trkpt lat="40.58211623416723" lon="-5.658700298777215"><ele>960.0</ele><time>2026-04-19T12:30:29.999Z</time></trkpt><trkpt lat="40.58229572918391" lon="-5.658737351803788"><ele>959.0</ele><time>2026-04-19T12:30:30.999Z</time></trkpt><trkpt lat="40.582459966979954" lon="-5.658779470839441"><ele>959.0</ele><time>2026-04-19T12:30:31.999Z</time></trkpt><trkpt lat="40.582631939996745" lon="-5.658812441092473"><ele>959.0</ele><time>2026-04-19T12:30:32.999Z</time></trkpt><trkpt lat="40.58281320218788" lon="-5.658831380931907"><ele>959.0</ele><time>2026-04-19T12:30:33.999Z</time></trkpt><trkpt lat="40.5830149509724" lon="-5.658810961440188"><ele>958.6666666666667</ele><time>2026-04-19T12:30:34.999Z</time></trkpt><trkpt lat="40.583197428334394" lon="-5.6587866954018455"><ele>958.3333333333333</ele><time>2026-04-19T12:30:35.999Z</time></trkpt><trkpt lat="40.583374025837536" lon="-5.658755989344783"><ele>958.0</ele><time>2026-04-19T12:30:36.999Z</time></trkpt><trkpt lat="40.58353842877092" lon="-5.658706929462694"><ele>957.3333333333333</ele><time>2026-04-19T12:30:37.999Z</time></trkpt><trkpt lat="40.58370498942078" lon="-5.658621983234492"><ele>956.6666666666667</ele><time>2026-04-19T12:30:38.999Z</time></trkpt><trkpt lat="40.583896260310546" lon="-5.658495665481513"><ele>956.0</ele><time>2026-04-19T12:30:39.999Z</time></trkpt><trkpt lat="40.58406131151068" lon="-5.658382698928814"><ele>955.6666666666667</ele><time>2026-04-19T12:30:40.999Z</time></trkpt><trkpt lat="40.58422213359111" lon="-5.658251570354337"><ele>955.3333333333333</ele><time>2026-04-19T12:30:41.999Z</time></trkpt><trkpt lat="40.584379530676586" lon="-5.6580961472973925"><ele>955.0</ele><time>2026-04-19T12:30:42.999Z</time></trkpt><trkpt lat="40.58451241408629" lon="-5.657902771015409"><ele>953.3333333333333</ele><time>2026-04-19T12:30:43.999Z</time></trkpt><trkpt lat="40.58463465532406" lon="-5.6577232728965505"><ele>951.6666666666667</ele><time>2026-04-19T12:30:44.999Z</time></trkpt><trkpt lat="40.584750700800136" lon="-5.657533804796982"><ele>950.0</ele><time>2026-04-19T12:30:45.999Z</time></trkpt><trkpt lat="40.58487106594266" lon="-5.6573338022283455"><ele>950.0</ele><time>2026-04-19T12:30:46.999Z</time></trkpt><trkpt lat="40.58499309919492" lon="-5.6571251746432365"><ele>950.0</ele><time>2026-04-19T12:30:47.999Z</time></trkpt><trkpt lat="40.58511368599862" lon="-5.656919879876888"><ele>950.0</ele><time>2026-04-19T12:30:48.999Z</time></trkpt><trkpt lat="40.58524775892309" lon="-5.656723314420671"><ele>950.0</ele><time>2026-04-19T12:30:49.999Z</time></trkpt><trkpt lat="40.58536224586662" lon="-5.656507498265358"><ele>950.0</ele><time>2026-04-19T12:30:50.999Z</time></trkpt><trkpt lat="40.58548371239649" lon="-5.656297532286132"><ele>950.0</ele><time>2026-04-19T12:30:51.999Z</time></trkpt><trkpt lat="40.58560426547512" lon="-5.656094395522225"><ele>950.0</ele><time>2026-04-19T12:30:52.999Z</time></trkpt><trkpt lat="40.585728567479904" lon="-5.6558820819046876"><ele>950.0</ele><time>2026-04-19T12:30:53.999Z</time></trkpt><trkpt lat="40.58584661556171" lon="-5.6556581427335075"><ele>950.0</ele><time>2026-04-19T12:30:54.999Z</time></trkpt><trkpt lat="40.585974352467545" lon="-5.655445487885504"><ele>950.3333333333334</ele><time>2026-04-19T12:30:55.999Z</time></trkpt><trkpt lat="40.58610238584467" lon="-5.655247127228651"><ele>950.6666666666667</ele><time>2026-04-19T12:30:56.999Z</time></trkpt><trkpt lat="40.5862507137014" lon="-5.655060119975426"><ele>951.0</ele><time>2026-04-19T12:30:57.999Z</time></trkpt><trkpt lat="40.58640826518722" lon="-5.654891412471804"><ele>951.0</ele><time>2026-04-19T12:30:58.999Z</time></trkpt><trkpt lat="40.58657311639355" lon="-5.654727060268375"><ele>951.0</ele><time>2026-04-19T12:30:59.999Z</time></trkpt><trkpt lat="40.586746024613774" lon="-5.654596925260455"><ele>951.0</ele><time>2026-04-19T12:31:00.999Z</time></trkpt><trkpt lat="40.58692227452286" lon="-5.654477075920316"><ele>950.3333333333333</ele><time>2026-04-19T12:31:01.999Z</time></trkpt><trkpt lat="40.587097039492036" lon="-5.654354015874516"><ele>949.6666666666666</ele><time>2026-04-19T12:31:02.999Z</time></trkpt><trkpt lat="40.58726987108729" lon="-5.654234382973262"><ele>949.0</ele><time>2026-04-19T12:31:03.999Z</time></trkpt><trkpt lat="40.58744694930906" lon="-5.654123427708961"><ele>949.0</ele><time>2026-04-19T12:31:04.999Z</time></trkpt><trkpt lat="40.58761954776074" lon="-5.654013706853625"><ele>949.0</ele><time>2026-04-19T12:31:05.999Z</time></trkpt><trkpt lat="40.58779128611826" lon="-5.653898199436425"><ele>949.0</ele><time>2026-04-19T12:31:06.999Z</time></trkpt><trkpt lat="40.58795872754208" lon="-5.653774044128399"><ele>948.6666666666666</ele><time>2026-04-19T12:31:07.999Z</time></trkpt><trkpt lat="40.58813359129121" lon="-5.65365830817474"><ele>948.3333333333333</ele><time>2026-04-19T12:31:08.999Z</time></trkpt><trkpt lat="40.588315887274526" lon="-5.65354715639441"><ele>948.0</ele><time>2026-04-19T12:31:09.999Z</time></trkpt><trkpt lat="40.58848911581787" lon="-5.653418915790211"><ele>949.0</ele><time>2026-04-19T12:31:10.999Z</time></trkpt><trkpt lat="40.58865219814547" lon="-5.653290044115629"><ele>950.0</ele><time>2026-04-19T12:31:11.999Z</time></trkpt><trkpt lat="40.588821379161345" lon="-5.6531615552018195"><ele>951.0</ele><time>2026-04-19T12:31:12.999Z</time></trkpt><trkpt lat="40.58899001349732" lon="-5.653040437691881"><ele>951.0</ele><time>2026-04-19T12:31:13.999Z</time></trkpt><trkpt lat="40.589150242604354" lon="-5.652907334094027"><ele>951.0</ele><time>2026-04-19T12:31:14.999Z</time></trkpt><trkpt lat="40.58932060574948" lon="-5.65278402811989"><ele>951.0</ele><time>2026-04-19T12:31:15.999Z</time></trkpt><trkpt lat="40.589480268301905" lon="-5.652668387570364"><ele>952.6666666666667</ele><time>2026-04-19T12:31:16.999Z</time></trkpt><trkpt lat="40.58962916762989" lon="-5.652565981260805"><ele>954.3333333333334</ele><time>2026-04-19T12:31:17.998Z</time></trkpt><trkpt lat="40.589795528331784" lon="-5.652460365207587"><ele>956.0</ele><time>2026-04-19T12:31:18.998Z</time></trkpt><trkpt lat="40.58995413554105" lon="-5.652338417878855"><ele>956.0</ele><time>2026-04-19T12:31:19.998Z</time></trkpt><trkpt lat="40.590116209503805" lon="-5.652182377972706"><ele>956.0</ele><time>2026-04-19T12:31:20.998Z</time></trkpt><trkpt lat="40.59027049862092" lon="-5.652068295078967"><ele>956.0</ele><time>2026-04-19T12:31:21.998Z</time></trkpt><trkpt lat="40.59043096103084" lon="-5.651945539005549"><ele>958.0</ele><time>2026-04-19T12:31:22.998Z</time></trkpt><trkpt lat="40.590586681060344" lon="-5.651827013425707"><ele>960.0</ele><time>2026-04-19T12:31:23.998Z</time></trkpt><trkpt lat="40.59075368662785" lon="-5.651707068802196"><ele>962.0</ele><time>2026-04-19T12:31:24.998Z</time></trkpt><trkpt lat="40.5909128051288" lon="-5.651592880409533"><ele>962.0</ele><time>2026-04-19T12:31:25.998Z</time></trkpt><trkpt lat="40.59106233963128" lon="-5.651461242784849"><ele>962.0</ele><time>2026-04-19T12:31:26.998Z</time></trkpt><trkpt lat="40.591227789268785" lon="-5.6513463302291"><ele>962.0</ele><time>2026-04-19T12:31:27.998Z</time></trkpt><trkpt lat="40.59138011314328" lon="-5.651232138654644"><ele>962.0</ele><time>2026-04-19T12:31:28.998Z</time></trkpt><trkpt lat="40.591541165446564" lon="-5.651109585801166"><ele>962.0</ele><time>2026-04-19T12:31:29.998Z</time></trkpt><trkpt lat="40.591713743413514" lon="-5.650988561610635"><ele>962.0</ele><time>2026-04-19T12:31:30.998Z</time></trkpt><trkpt lat="40.59189062298451" lon="-5.6508598628697975"><ele>961.0</ele><time>2026-04-19T12:31:31.998Z</time></trkpt><trkpt lat="40.59205577855554" lon="-5.650745024617082"><ele>960.0</ele><time>2026-04-19T12:31:32.998Z</time></trkpt><trkpt lat="40.592226410732174" lon="-5.6506155365461455"><ele>959.0</ele><time>2026-04-19T12:31:33.998Z</time></trkpt><trkpt lat="40.592389656413076" lon="-5.650467759642044"><ele>959.0</ele><time>2026-04-19T12:31:34.998Z</time></trkpt><trkpt lat="40.59256352318626" lon="-5.65034333952065"><ele>959.0</ele><time>2026-04-19T12:31:35.998Z</time></trkpt><trkpt lat="40.592729202391986" lon="-5.650220254065554"><ele>959.0</ele><time>2026-04-19T12:31:36.998Z</time></trkpt><trkpt lat="40.59288587189186" lon="-5.650097415211021"><ele>958.6666666666667</ele><time>2026-04-19T12:31:37.998Z</time></trkpt><trkpt lat="40.593065955890395" lon="-5.649960626567914"><ele>958.3333333333333</ele><time>2026-04-19T12:31:38.998Z</time></trkpt><trkpt lat="40.59326420140279" lon="-5.649834118998752"><ele>958.0</ele><time>2026-04-19T12:31:39.998Z</time></trkpt><trkpt lat="40.59343247207919" lon="-5.649704072401824"><ele>958.0</ele><time>2026-04-19T12:31:40.998Z</time></trkpt><trkpt lat="40.59359909706885" lon="-5.649575040577525"><ele>958.0</ele><time>2026-04-19T12:31:41.998Z</time></trkpt><trkpt lat="40.59378186970207" lon="-5.649436371881985"><ele>958.0</ele><time>2026-04-19T12:31:42.998Z</time></trkpt><trkpt lat="40.593956153227055" lon="-5.649314440971556"><ele>956.6666666666666</ele><time>2026-04-19T12:31:43.998Z</time></trkpt><trkpt lat="40.59412567427307" lon="-5.64916735742338"><ele>955.3333333333333</ele><time>2026-04-19T12:31:44.998Z</time></trkpt><trkpt lat="40.59430044079089" lon="-5.649035270012356"><ele>954.0</ele><time>2026-04-19T12:31:45.998Z</time></trkpt><trkpt lat="40.594474626812726" lon="-5.648911455998673"><ele>953.6666666666667</ele><time>2026-04-19T12:31:46.998Z</time></trkpt><trkpt lat="40.59464771758234" lon="-5.648774394189979"><ele>953.3333333333334</ele><time>2026-04-19T12:31:47.998Z</time></trkpt><trkpt lat="40.59482102808996" lon="-5.648640659739439"><ele>953.0</ele><time>2026-04-19T12:31:48.998Z</time></trkpt><trkpt lat="40.59499524693685" lon="-5.648499508024325"><ele>953.0</ele><time>2026-04-19T12:31:49.998Z</time></trkpt><trkpt lat="40.59517329538133" lon="-5.648366167547406"><ele>953.0</ele><time>2026-04-19T12:31:50.998Z</time></trkpt><trkpt lat="40.59534851183459" lon="-5.648236413629087"><ele>953.0</ele><time>2026-04-19T12:31:51.998Z</time></trkpt><trkpt lat="40.595532057390706" lon="-5.648103787780977"><ele>952.6666666666667</ele><time>2026-04-19T12:31:52.998Z</time></trkpt><trkpt lat="40.59570482603539" lon="-5.647985183482557"><ele>952.3333333333333</ele><time>2026-04-19T12:31:53.998Z</time></trkpt><trkpt lat="40.595874293110576" lon="-5.6478497757915465"><ele>952.0</ele><time>2026-04-19T12:31:54.998Z</time></trkpt><trkpt lat="40.5960495325743" lon="-5.647715813407681"><ele>951.6666666666666</ele><time>2026-04-19T12:31:55.998Z</time></trkpt><trkpt lat="40.596223732778626" lon="-5.647587847456188"><ele>951.3333333333333</ele><time>2026-04-19T12:31:56.998Z</time></trkpt><trkpt lat="40.596399877049535" lon="-5.647449876595043"><ele>951.0</ele><time>2026-04-19T12:31:57.998Z</time></trkpt><trkpt lat="40.59657195414458" lon="-5.647325002906916"><ele>951.0</ele><time>2026-04-19T12:31:58.998Z</time></trkpt><trkpt lat="40.596736167539895" lon="-5.647188180128017"><ele>951.0</ele><time>2026-04-19T12:31:59.998Z</time></trkpt><trkpt lat="40.59691016286521" lon="-5.647067457464376"><ele>951.0</ele><time>2026-04-19T12:32:00.998Z</time></trkpt><trkpt lat="40.59708599801679" lon="-5.646938669764945"><ele>950.3333333333333</ele><time>2026-04-19T12:32:01.999Z</time></trkpt><trkpt lat="40.597256959060466" lon="-5.646806412386087"><ele>949.6666666666666</ele><time>2026-04-19T12:32:03Z</time></trkpt><trkpt lat="40.59743805341081" lon="-5.646682499675615"><ele>949.0</ele><time>2026-04-19T12:32:03.999Z</time></trkpt><trkpt lat="40.59760146637834" lon="-5.646559486798247"><ele>949.0</ele><time>2026-04-19T12:32:05Z</time></trkpt><trkpt lat="40.597774445693545" lon="-5.646424068703606"><ele>949.0</ele><time>2026-04-19T12:32:06Z</time></trkpt><trkpt lat="40.59794932331702" lon="-5.646293078575316"><ele>949.0</ele><time>2026-04-19T12:32:07Z</time></trkpt><trkpt lat="40.59813356018266" lon="-5.646157018205243"><ele>948.6666666666666</ele><time>2026-04-19T12:32:08Z</time></trkpt><trkpt lat="40.598296648792434" lon="-5.646024660128745"><ele>948.3333333333333</ele><time>2026-04-19T12:32:09Z</time></trkpt><trkpt lat="40.59846851055328" lon="-5.645899160344097"><ele>948.0</ele><time>2026-04-19T12:32:10Z</time></trkpt><trkpt lat="40.598640312572186" lon="-5.645771719904221"><ele>947.3333333333333</ele><time>2026-04-19T12:32:11Z</time></trkpt><trkpt lat="40.598804812115425" lon="-5.645633601539229"><ele>946.6666666666666</ele><time>2026-04-19T12:32:12Z</time></trkpt><trkpt lat="40.59897425095132" lon="-5.645500009905229"><ele>946.0</ele><time>2026-04-19T12:32:13Z</time></trkpt><trkpt lat="40.59914409289427" lon="-5.645369794527248"><ele>945.6666666666666</ele><time>2026-04-19T12:32:14Z</time></trkpt><trkpt lat="40.5993149166251" lon="-5.645237748167515"><ele>945.3333333333333</ele><time>2026-04-19T12:32:15Z</time></trkpt><trkpt lat="40.5995434808762" lon="-5.645134615252241"><ele>945.0</ele><time>2026-04-19T12:32:16Z</time></trkpt><trkpt lat="40.5997127322093" lon="-5.6449911712121414"><ele>944.3333333333333</ele><time>2026-04-19T12:32:17Z</time></trkpt><trkpt lat="40.599882857379065" lon="-5.644854967740581"><ele>943.6666666666666</ele><time>2026-04-19T12:32:18Z</time></trkpt><trkpt lat="40.60005372623453" lon="-5.644718044960101"><ele>943.0</ele><time>2026-04-19T12:32:19Z</time></trkpt><trkpt lat="40.60022949958033" lon="-5.644585914078654"><ele>944.3333333333333</ele><time>2026-04-19T12:32:20Z</time></trkpt><trkpt lat="40.60040081515206" lon="-5.644458464239864"><ele>945.6666666666667</ele><time>2026-04-19T12:32:21Z</time></trkpt><trkpt lat="40.6005710947959" lon="-5.6443312366748986"><ele>947.0</ele><time>2026-04-19T12:32:22Z</time></trkpt><trkpt lat="40.60074177741702" lon="-5.644198558388373"><ele>947.0</ele><time>2026-04-19T12:32:23Z</time></trkpt><trkpt lat="40.60091254462447" lon="-5.644065290769469"><ele>947.0</ele><time>2026-04-19T12:32:24Z</time></trkpt><trkpt lat="40.601086220280024" lon="-5.643932575487419"><ele>947.0</ele><time>2026-04-19T12:32:25Z</time></trkpt><trkpt lat="40.60125874719397" lon="-5.643798586546861"><ele>947.0</ele><time>2026-04-19T12:32:26Z</time></trkpt><trkpt lat="40.60142991601592" lon="-5.64367621806258"><ele>947.0</ele><time>2026-04-19T12:32:27Z</time></trkpt><trkpt lat="40.601600859190874" lon="-5.643553433327187"><ele>947.0</ele><time>2026-04-19T12:32:28Z</time></trkpt><trkpt lat="40.601766471315884" lon="-5.643425483619852"><ele>947.0</ele><time>2026-04-19T12:32:29Z</time></trkpt><trkpt lat="40.601941568731554" lon="-5.643293775325805"><ele>947.0</ele><time>2026-04-19T12:32:30Z</time></trkpt><trkpt lat="40.60211612805876" lon="-5.643165517563239"><ele>947.0</ele><time>2026-04-19T12:32:30.999Z</time></trkpt><trkpt lat="40.602289644320365" lon="-5.643021458270322"><ele>947.0</ele><time>2026-04-19T12:32:31.999Z</time></trkpt><trkpt lat="40.602472020091824" lon="-5.64289528749296"><ele>947.0</ele><time>2026-04-19T12:32:32.999Z</time></trkpt><trkpt lat="40.60264616785547" lon="-5.642768663047065"><ele>947.0</ele><time>2026-04-19T12:32:33.999Z</time></trkpt><trkpt lat="40.60282508764043" lon="-5.64263103143225"><ele>945.6666666666667</ele><time>2026-04-19T12:32:34.999Z</time></trkpt><trkpt lat="40.603009926675774" lon="-5.642497281476668"><ele>944.3333333333333</ele><time>2026-04-19T12:32:35.999Z</time></trkpt><trkpt lat="40.60318402013411" lon="-5.642358948111626"><ele>943.0</ele><time>2026-04-19T12:32:36.999Z</time></trkpt><trkpt lat="40.60337122067777" lon="-5.642234501247215"><ele>943.0</ele><time>2026-04-19T12:32:37.999Z</time></trkpt><trkpt lat="40.60353952250796" lon="-5.6420931832349615"><ele>943.0</ele><time>2026-04-19T12:32:38.999Z</time></trkpt><trkpt lat="40.603728738187314" lon="-5.64196971896849"><ele>943.0</ele><time>2026-04-19T12:32:39.999Z</time></trkpt><trkpt lat="40.60391783364694" lon="-5.641823889409829"><ele>940.3333333333333</ele><time>2026-04-19T12:32:40.999Z</time></trkpt><trkpt lat="40.604092990835845" lon="-5.64169944331212"><ele>937.6666666666667</ele><time>2026-04-19T12:32:41.999Z</time></trkpt><trkpt lat="40.60428198440709" lon="-5.6415572940074625"><ele>935.0</ele><time>2026-04-19T12:32:42.999Z</time></trkpt><trkpt lat="40.60447382264481" lon="-5.641409484030606"><ele>934.0</ele><time>2026-04-19T12:32:43.999Z</time></trkpt><trkpt lat="40.604660656823235" lon="-5.64126962000564"><ele>933.0</ele><time>2026-04-19T12:32:44.999Z</time></trkpt><trkpt lat="40.604849440904154" lon="-5.641125628501807"><ele>932.0</ele><time>2026-04-19T12:32:45.999Z</time></trkpt><trkpt lat="40.605039664139696" lon="-5.6409802013944725"><ele>931.6666666666667</ele><time>2026-04-19T12:32:46.999Z</time></trkpt><trkpt lat="40.605229279452765" lon="-5.640834687422235"><ele>931.3333333333333</ele><time>2026-04-19T12:32:47.999Z</time></trkpt><trkpt lat="40.60542008829714" lon="-5.640694476439576"><ele>931.0</ele><time>2026-04-19T12:32:48.999Z</time></trkpt><trkpt lat="40.60561261312575" lon="-5.640555285221499"><ele>930.0</ele><time>2026-04-19T12:32:49.999Z</time></trkpt><trkpt lat="40.605803460906145" lon="-5.640413722600493"><ele>929.0</ele><time>2026-04-19T12:32:50.999Z</time></trkpt><trkpt lat="40.60599353483699" lon="-5.640272630511462"><ele>928.0</ele><time>2026-04-19T12:32:51.999Z</time></trkpt><trkpt lat="40.60618236350432" lon="-5.640153182873667"><ele>927.6666666666666</ele><time>2026-04-19T12:32:52.999Z</time></trkpt><trkpt lat="40.606371750290265" lon="-5.640024503692974"><ele>927.3333333333333</ele><time>2026-04-19T12:32:53.999Z</time></trkpt><trkpt lat="40.60655359851638" lon="-5.639865357475385"><ele>927.0</ele><time>2026-04-19T12:32:54.999Z</time></trkpt><trkpt lat="40.60674300498041" lon="-5.639724442607229"><ele>927.0</ele><time>2026-04-19T12:32:55.999Z</time></trkpt><trkpt lat="40.6068868404512" lon="-5.639631569791736"><ele>927.0</ele><time>2026-04-19T12:32:56.999Z</time></trkpt><trkpt lat="40.60700935719759" lon="-5.639477793314505"><ele>927.0</ele><time>2026-04-19T12:32:57.999Z</time></trkpt><trkpt lat="40.60717090045759" lon="-5.639382689430057"><ele>927.3333333333333</ele><time>2026-04-19T12:32:58.999Z</time></trkpt><trkpt lat="40.60733690702576" lon="-5.639258503024108"><ele>927.6666666666666</ele><time>2026-04-19T12:32:59.999Z</time></trkpt><trkpt lat="40.607508427126945" lon="-5.639137009348767"><ele>928.0</ele><time>2026-04-19T12:33:00.999Z</time></trkpt><trkpt lat="40.607681479167496" lon="-5.639011690609219"><ele>927.6666666666666</ele><time>2026-04-19T12:33:01.999Z</time></trkpt><trkpt lat="40.607851262407486" lon="-5.638883018763901"><ele>927.3333333333333</ele><time>2026-04-19T12:33:02.999Z</time></trkpt><trkpt lat="40.60802244530103" lon="-5.6387603817844685"><ele>927.0</ele><time>2026-04-19T12:33:03.999Z</time></trkpt><trkpt lat="40.60819415311156" lon="-5.638634709298489"><ele>926.6666666666667</ele><time>2026-04-19T12:33:04.999Z</time></trkpt><trkpt lat="40.60836477139006" lon="-5.638507003008229"><ele>926.3333333333334</ele><time>2026-04-19T12:33:05.999Z</time></trkpt><trkpt lat="40.60853614444189" lon="-5.638378762033543"><ele>926.0</ele><time>2026-04-19T12:33:06.999Z</time></trkpt><trkpt lat="40.608706457261285" lon="-5.638251824509883"><ele>925.3333333333334</ele><time>2026-04-19T12:33:07.999Z</time></trkpt><trkpt lat="40.60887661467303" lon="-5.638125179280576"><ele>924.6666666666667</ele><time>2026-04-19T12:33:08.999Z</time></trkpt><trkpt lat="40.609044826769434" lon="-5.63799839261407"><ele>924.0</ele><time>2026-04-19T12:33:09.999Z</time></trkpt><trkpt lat="40.60921196907621" lon="-5.637870298511486"><ele>924.0</ele><time>2026-04-19T12:33:10.999Z</time></trkpt><trkpt lat="40.60938058907866" lon="-5.637745573555817"><ele>924.0</ele><time>2026-04-19T12:33:11.999Z</time></trkpt><trkpt lat="40.609547012053994" lon="-5.637623944349829"><ele>924.0</ele><time>2026-04-19T12:33:12.999Z</time></trkpt><trkpt lat="40.60971343056241" lon="-5.637498409425926"><ele>924.0</ele><time>2026-04-19T12:33:13.999Z</time></trkpt><trkpt lat="40.60987766740507" lon="-5.637374731989145"><ele>924.0</ele><time>2026-04-19T12:33:14.999Z</time></trkpt><trkpt lat="40.610041638527484" lon="-5.637253122670304"><ele>924.0</ele><time>2026-04-19T12:33:15.999Z</time></trkpt><trkpt lat="40.61020506929224" lon="-5.637131368811347"><ele>923.6666666666667</ele><time>2026-04-19T12:33:16.999Z</time></trkpt><trkpt lat="40.61036743625331" lon="-5.637007364856975"><ele>923.3333333333334</ele><time>2026-04-19T12:33:17.999Z</time></trkpt><trkpt lat="40.61052992500556" lon="-5.636883739309096"><ele>923.0</ele><time>2026-04-19T12:33:18.999Z</time></trkpt><trkpt lat="40.61069222454899" lon="-5.636758404654147"><ele>923.0</ele><time>2026-04-19T12:33:19.999Z</time></trkpt><trkpt lat="40.61085184200736" lon="-5.636635265329887"><ele>923.0</ele><time>2026-04-19T12:33:20.999Z</time></trkpt><trkpt lat="40.611012187283954" lon="-5.636514449870663"><ele>923.0</ele><time>2026-04-19T12:33:21.999Z</time></trkpt><trkpt lat="40.61117464591027" lon="-5.636396652630967"><ele>923.0</ele><time>2026-04-19T12:33:22.999Z</time></trkpt><trkpt lat="40.61133587738449" lon="-5.636279837444726"><ele>923.0</ele><time>2026-04-19T12:33:23.999Z</time></trkpt><trkpt lat="40.61149843464057" lon="-5.636163191330043"><ele>923.0</ele><time>2026-04-19T12:33:24.999Z</time></trkpt><trkpt lat="40.611659333692266" lon="-5.6360457568132665"><ele>923.0</ele><time>2026-04-19T12:33:25.999Z</time></trkpt><trkpt lat="40.61182284781172" lon="-5.635925676327234"><ele>923.0</ele><time>2026-04-19T12:33:26.999Z</time></trkpt><trkpt lat="40.61198795662736" lon="-5.635800131317813"><ele>923.0</ele><time>2026-04-19T12:33:27.999Z</time></trkpt><trkpt lat="40.6121527219555" lon="-5.635677424352504"><ele>923.0</ele><time>2026-04-19T12:33:28.999Z</time></trkpt><trkpt lat="40.61231705412351" lon="-5.63555521914337"><ele>923.0</ele><time>2026-04-19T12:33:29.998Z</time></trkpt><trkpt lat="40.6124820486087" lon="-5.635435723451607"><ele>923.0</ele><time>2026-04-19T12:33:30.998Z</time></trkpt><trkpt lat="40.61264889058865" lon="-5.635318025161301"><ele>923.3333333333334</ele><time>2026-04-19T12:33:31.998Z</time></trkpt><trkpt lat="40.61281561689843" lon="-5.63519713511741"><ele>923.6666666666667</ele><time>2026-04-19T12:33:32.998Z</time></trkpt><trkpt lat="40.612982155400985" lon="-5.635070551381282"><ele>924.0</ele><time>2026-04-19T12:33:33.998Z</time></trkpt><trkpt lat="40.61315036737543" lon="-5.634950139578793"><ele>923.3333333333333</ele><time>2026-04-19T12:33:34.998Z</time></trkpt><trkpt lat="40.61331822018721" lon="-5.634823822498148"><ele>922.6666666666666</ele><time>2026-04-19T12:33:35.998Z</time></trkpt><trkpt lat="40.61348650678748" lon="-5.634697457756331"><ele>922.0</ele><time>2026-04-19T12:33:36.998Z</time></trkpt><trkpt lat="40.613655254113226" lon="-5.634570367667863"><ele>922.0</ele><time>2026-04-19T12:33:37.998Z</time></trkpt><trkpt lat="40.613823369928475" lon="-5.634444190340243"><ele>922.0</ele><time>2026-04-19T12:33:38.998Z</time></trkpt><trkpt lat="40.613991416234086" lon="-5.634316721369264"><ele>922.0</ele><time>2026-04-19T12:33:39.998Z</time></trkpt><trkpt lat="40.61415853465947" lon="-5.634192782880829"><ele>922.0</ele><time>2026-04-19T12:33:40.998Z</time></trkpt><trkpt lat="40.61432540336157" lon="-5.634073978038533"><ele>922.0</ele><time>2026-04-19T12:33:41.998Z</time></trkpt><trkpt lat="40.61449049525927" lon="-5.633950432632145"><ele>922.0</ele><time>2026-04-19T12:33:42.998Z</time></trkpt><trkpt lat="40.61465397915123" lon="-5.633826008323853"><ele>922.3333333333333</ele><time>2026-04-19T12:33:43.998Z</time></trkpt><trkpt lat="40.614814105358896" lon="-5.633699353797948"><ele>922.6666666666667</ele><time>2026-04-19T12:33:44.998Z</time></trkpt><trkpt lat="40.6149723102465" lon="-5.633578081102535"><ele>923.0</ele><time>2026-04-19T12:33:45.998Z</time></trkpt><trkpt lat="40.615131377297644" lon="-5.63345831705988"><ele>924.0</ele><time>2026-04-19T12:33:46.998Z</time></trkpt><trkpt lat="40.61528804991262" lon="-5.633331720229497"><ele>925.0</ele><time>2026-04-19T12:33:47.998Z</time></trkpt><trkpt lat="40.61544464219223" lon="-5.633221085715514"><ele>926.0</ele><time>2026-04-19T12:33:48.998Z</time></trkpt><trkpt lat="40.61560178034238" lon="-5.633103064115064"><ele>926.3333333333334</ele><time>2026-04-19T12:33:49.998Z</time></trkpt><trkpt lat="40.61575236662381" lon="-5.632989299179246"><ele>926.6666666666667</ele><time>2026-04-19T12:33:50.998Z</time></trkpt><trkpt lat="40.615905637785566" lon="-5.632880832368507"><ele>927.0</ele><time>2026-04-19T12:33:51.998Z</time></trkpt><trkpt lat="40.61604754710038" lon="-5.63275702629053"><ele>929.0</ele><time>2026-04-19T12:33:52.998Z</time></trkpt><trkpt lat="40.61620055211395" lon="-5.632647158605679"><ele>931.0</ele><time>2026-04-19T12:33:53.998Z</time></trkpt><trkpt lat="40.61636068844389" lon="-5.632546351679799"><ele>933.0</ele><time>2026-04-19T12:33:54.998Z</time></trkpt><trkpt lat="40.61651544068667" lon="-5.632456978852723"><ele>933.0</ele><time>2026-04-19T12:33:55.998Z</time></trkpt><trkpt lat="40.61666835187691" lon="-5.632363672017417"><ele>933.0</ele><time>2026-04-19T12:33:56.998Z</time></trkpt><trkpt lat="40.616819242009356" lon="-5.63226646298418"><ele>933.0</ele><time>2026-04-19T12:33:57.998Z</time></trkpt><trkpt lat="40.61697867544676" lon="-5.632185727561117"><ele>934.0</ele><time>2026-04-19T12:33:58.998Z</time></trkpt><trkpt lat="40.61712757453567" lon="-5.632097635844151"><ele>935.0</ele><time>2026-04-19T12:33:59.998Z</time></trkpt><trkpt lat="40.617282451598236" lon="-5.632015368858074"><ele>936.0</ele><time>2026-04-19T12:34:00.998Z</time></trkpt><trkpt lat="40.61743550944197" lon="-5.6319334424333745"><ele>937.6666666666667</ele><time>2026-04-19T12:34:01.998Z</time></trkpt><trkpt lat="40.61758765902868" lon="-5.631841939134963"><ele>939.3333333333334</ele><time>2026-04-19T12:34:02.998Z</time></trkpt><trkpt lat="40.61773232052683" lon="-5.631742937784762"><ele>941.0</ele><time>2026-04-19T12:34:03.998Z</time></trkpt><trkpt lat="40.61787450107897" lon="-5.6316591259911695"><ele>941.6666666666667</ele><time>2026-04-19T12:34:04.998Z</time></trkpt><trkpt lat="40.61802405922192" lon="-5.631578286011585"><ele>942.3333333333333</ele><time>2026-04-19T12:34:05.998Z</time></trkpt><trkpt lat="40.61817180853193" lon="-5.631491914632956"><ele>943.0</ele><time>2026-04-19T12:34:06.998Z</time></trkpt><trkpt lat="40.61832755228491" lon="-5.631406349178778"><ele>943.0</ele><time>2026-04-19T12:34:08Z</time></trkpt><trkpt lat="40.61848164407474" lon="-5.6313154940495895"><ele>943.0</ele><time>2026-04-19T12:34:09Z</time></trkpt><trkpt lat="40.61863842163868" lon="-5.631228711391092"><ele>943.0</ele><time>2026-04-19T12:34:10Z</time></trkpt><trkpt lat="40.61879395462908" lon="-5.631135744728568"><ele>945.0</ele><time>2026-04-19T12:34:11Z</time></trkpt><trkpt lat="40.6189567707166" lon="-5.631038820365871"><ele>947.0</ele><time>2026-04-19T12:34:12Z</time></trkpt><trkpt lat="40.619115242533866" lon="-5.630937922049249"><ele>949.0</ele><time>2026-04-19T12:34:13Z</time></trkpt><trkpt lat="40.61927119128522" lon="-5.630844835599922"><ele>949.0</ele><time>2026-04-19T12:34:14Z</time></trkpt><trkpt lat="40.61942954230854" lon="-5.630753509595079"><ele>949.0</ele><time>2026-04-19T12:34:15Z</time></trkpt><trkpt lat="40.61958456468338" lon="-5.630662786490945"><ele>949.0</ele><time>2026-04-19T12:34:16Z</time></trkpt><trkpt lat="40.61974008547284" lon="-5.630574594288746"><ele>950.0</ele><time>2026-04-19T12:34:17Z</time></trkpt><trkpt lat="40.619895101800886" lon="-5.630477158520801"><ele>951.0</ele><time>2026-04-19T12:34:18Z</time></trkpt><trkpt lat="40.62005102666955" lon="-5.630387979838679"><ele>952.0</ele><time>2026-04-19T12:34:19Z</time></trkpt><trkpt lat="40.62020931530605" lon="-5.6302910084530575"><ele>952.6666666666666</ele><time>2026-04-19T12:34:20Z</time></trkpt><trkpt lat="40.62036829804726" lon="-5.630202840167033"><ele>953.3333333333333</ele><time>2026-04-19T12:34:21Z</time></trkpt><trkpt lat="40.62052885470121" lon="-5.630117177377589"><ele>954.0</ele><time>2026-04-19T12:34:22Z</time></trkpt><trkpt lat="40.620687094997216" lon="-5.630028087324074"><ele>954.0</ele><time>2026-04-19T12:34:23Z</time></trkpt><trkpt lat="40.62084902029568" lon="-5.629935675190592"><ele>954.0</ele><time>2026-04-19T12:34:24Z</time></trkpt><trkpt lat="40.62100339976783" lon="-5.629845922946446"><ele>954.0</ele><time>2026-04-19T12:34:25Z</time></trkpt><trkpt lat="40.62116447701783" lon="-5.629752192277764"><ele>955.0</ele><time>2026-04-19T12:34:26Z</time></trkpt><trkpt lat="40.62132202828193" lon="-5.629658194287922"><ele>956.0</ele><time>2026-04-19T12:34:27Z</time></trkpt><trkpt lat="40.62147342332917" lon="-5.629584615300186"><ele>957.0</ele><time>2026-04-19T12:34:28Z</time></trkpt><trkpt lat="40.62163857039081" lon="-5.629503893654098"><ele>956.6666666666667</ele><time>2026-04-19T12:34:29Z</time></trkpt><trkpt lat="40.621804939971256" lon="-5.629430087442987"><ele>956.3333333333334</ele><time>2026-04-19T12:34:30Z</time></trkpt><trkpt lat="40.6219738672301" lon="-5.629359608492238"><ele>956.0</ele><time>2026-04-19T12:34:31Z</time></trkpt><trkpt lat="40.62214653809505" lon="-5.629292703252559"><ele>955.0</ele><time>2026-04-19T12:34:32Z</time></trkpt><trkpt lat="40.62232205636883" lon="-5.629231689052747"><ele>954.0</ele><time>2026-04-19T12:34:33Z</time></trkpt><trkpt lat="40.622503932277624" lon="-5.629176510169279"><ele>953.0</ele><time>2026-04-19T12:34:34Z</time></trkpt><trkpt lat="40.62269477826087" lon="-5.629125795022462"><ele>952.0</ele><time>2026-04-19T12:34:35Z</time></trkpt><trkpt lat="40.622884750544166" lon="-5.629096887728866"><ele>951.0</ele><time>2026-04-19T12:34:36Z</time></trkpt><trkpt lat="40.62308064241994" lon="-5.629080296278504"><ele>950.0</ele><time>2026-04-19T12:34:37Z</time></trkpt><trkpt lat="40.623279558418936" lon="-5.62906572979257"><ele>950.0</ele><time>2026-04-19T12:34:38Z</time></trkpt><trkpt lat="40.62347630480712" lon="-5.629056715853143"><ele>950.0</ele><time>2026-04-19T12:34:39Z</time></trkpt><trkpt lat="40.623673903691376" lon="-5.629049030245434"><ele>950.0</ele><time>2026-04-19T12:34:40Z</time></trkpt><trkpt lat="40.62387102328179" lon="-5.629042665694223"><ele>949.3333333333334</ele><time>2026-04-19T12:34:41Z</time></trkpt><trkpt lat="40.62407135948656" lon="-5.629031213972746"><ele>948.6666666666667</ele><time>2026-04-19T12:34:42Z</time></trkpt><trkpt lat="40.62427373989186" lon="-5.629019469732116"><ele>948.0</ele><time>2026-04-19T12:34:43Z</time></trkpt><trkpt lat="40.62447573614635" lon="-5.629009032204963"><ele>946.3333333333333</ele><time>2026-04-19T12:34:44Z</time></trkpt><trkpt lat="40.624674448840246" lon="-5.628996594500254"><ele>944.6666666666666</ele><time>2026-04-19T12:34:45Z</time></trkpt><trkpt lat="40.6248787113851" lon="-5.628986122627532"><ele>943.0</ele><time>2026-04-19T12:34:46Z</time></trkpt><trkpt lat="40.62508629815576" lon="-5.628971116709461"><ele>943.0</ele><time>2026-04-19T12:34:47Z</time></trkpt><trkpt lat="40.625290747362236" lon="-5.628962466010346"><ele>943.0</ele><time>2026-04-19T12:34:48Z</time></trkpt><trkpt lat="40.625494846814064" lon="-5.62895244459343"><ele>943.0</ele><time>2026-04-19T12:34:49Z</time></trkpt><trkpt lat="40.625701000437616" lon="-5.628936999749542"><ele>942.3333333333333</ele><time>2026-04-19T12:34:50Z</time></trkpt><trkpt lat="40.62590474093343" lon="-5.628927981307303"><ele>941.6666666666667</ele><time>2026-04-19T12:34:51Z</time></trkpt><trkpt lat="40.626106685236195" lon="-5.6289209713527875"><ele>941.0</ele><time>2026-04-19T12:34:51.999Z</time></trkpt><trkpt lat="40.6263104791805" lon="-5.628911061028515"><ele>940.0</ele><time>2026-04-19T12:34:52.999Z</time></trkpt><trkpt lat="40.62651408511182" lon="-5.628903379258691"><ele>939.0</ele><time>2026-04-19T12:34:53.999Z</time></trkpt><trkpt lat="40.626716273914994" lon="-5.628893972500896"><ele>938.0</ele><time>2026-04-19T12:34:54.999Z</time></trkpt><trkpt lat="40.626917636340956" lon="-5.628882370554227"><ele>937.3333333333334</ele><time>2026-04-19T12:34:55.999Z</time></trkpt><trkpt lat="40.62711825418706" lon="-5.628873172215746"><ele>936.6666666666667</ele><time>2026-04-19T12:34:56.999Z</time></trkpt><trkpt lat="40.62731735527781" lon="-5.628863229817146"><ele>936.0</ele><time>2026-04-19T12:34:57.999Z</time></trkpt><trkpt lat="40.62751796557236" lon="-5.628855501813795"><ele>936.0</ele><time>2026-04-19T12:34:58.999Z</time></trkpt><trkpt lat="40.627715672717216" lon="-5.628850451498626"><ele>936.0</ele><time>2026-04-19T12:34:59.999Z</time></trkpt><trkpt lat="40.62791548226844" lon="-5.628834770177385"><ele>936.0</ele><time>2026-04-19T12:35:00.999Z</time></trkpt><trkpt lat="40.628110914514544" lon="-5.628823326676922"><ele>936.0</ele><time>2026-04-19T12:35:01.999Z</time></trkpt><trkpt lat="40.62830459477283" lon="-5.628811462218223"><ele>936.0</ele><time>2026-04-19T12:35:02.999Z</time></trkpt><trkpt lat="40.62849583402938" lon="-5.628800029446754"><ele>936.0</ele><time>2026-04-19T12:35:03.999Z</time></trkpt><trkpt lat="40.628683121921554" lon="-5.628791634348497"><ele>935.3333333333333</ele><time>2026-04-19T12:35:04.999Z</time></trkpt><trkpt lat="40.628867992257895" lon="-5.62878169095988"><ele>934.6666666666666</ele><time>2026-04-19T12:35:05.999Z</time></trkpt><trkpt lat="40.62905598927114" lon="-5.6287689693895135"><ele>934.0</ele><time>2026-04-19T12:35:06.999Z</time></trkpt><trkpt lat="40.62924684726878" lon="-5.628757925347521"><ele>934.0</ele><time>2026-04-19T12:35:07.999Z</time></trkpt><trkpt lat="40.62943367863742" lon="-5.628750730078767"><ele>934.0</ele><time>2026-04-19T12:35:08.999Z</time></trkpt><trkpt lat="40.62961984925383" lon="-5.628744064909364"><ele>934.0</ele><time>2026-04-19T12:35:09.999Z</time></trkpt><trkpt lat="40.629803690988425" lon="-5.6287313289725835"><ele>933.3333333333333</ele><time>2026-04-19T12:35:10.999Z</time></trkpt><trkpt lat="40.62997664389766" lon="-5.628720506592294"><ele>932.6666666666667</ele><time>2026-04-19T12:35:11.999Z</time></trkpt><trkpt lat="40.630150771970044" lon="-5.628708960172384"><ele>932.0</ele><time>2026-04-19T12:35:12.999Z</time></trkpt><trkpt lat="40.63032126252025" lon="-5.628698759566891"><ele>931.6666666666667</ele><time>2026-04-19T12:35:13.999Z</time></trkpt><trkpt lat="40.63048658546233" lon="-5.628689010763033"><ele>931.3333333333333</ele><time>2026-04-19T12:35:14.999Z</time></trkpt><trkpt lat="40.63064803278855" lon="-5.628680827795335"><ele>931.0</ele><time>2026-04-19T12:35:15.999Z</time></trkpt><trkpt lat="40.63080283237203" lon="-5.628673446251502"><ele>931.0</ele><time>2026-04-19T12:35:16.999Z</time></trkpt><trkpt lat="40.63095851539215" lon="-5.628665804780341"><ele>931.0</ele><time>2026-04-19T12:35:17.999Z</time></trkpt><trkpt lat="40.631107205984556" lon="-5.62865528416107"><ele>931.0</ele><time>2026-04-19T12:35:18.999Z</time></trkpt><trkpt lat="40.63124811298316" lon="-5.628644679740527"><ele>931.0</ele><time>2026-04-19T12:35:19.999Z</time></trkpt><trkpt lat="40.63138356897094" lon="-5.6286372691369495"><ele>930.75</ele><time>2026-04-19T12:35:20.999Z</time></trkpt><trkpt lat="40.63151546724918" lon="-5.628627238234265"><ele>930.5</ele><time>2026-04-19T12:35:21.999Z</time></trkpt><trkpt lat="40.63164278458251" lon="-5.6286230139458455"><ele>930.25</ele><time>2026-04-19T12:35:22.999Z</time></trkpt><trkpt lat="40.631767411518524" lon="-5.628614909099286"><ele>930.0</ele><time>2026-04-19T12:35:23.999Z</time></trkpt><trkpt lat="40.63188442523965" lon="-5.628584244793922"><ele>930.2</ele><time>2026-04-19T12:35:24.999Z</time></trkpt><trkpt lat="40.631985930611314" lon="-5.628527673242632"><ele>930.4</ele><time>2026-04-19T12:35:25.999Z</time></trkpt><trkpt lat="40.6320751958506" lon="-5.628446253112746"><ele>930.5999999999999</ele><time>2026-04-19T12:35:26.999Z</time></trkpt><trkpt lat="40.63216467568001" lon="-5.6283768107017265"><ele>930.8</ele><time>2026-04-19T12:35:27.999Z</time></trkpt><trkpt lat="40.63226186485062" lon="-5.628349710047325"><ele>931.0</ele><time>2026-04-19T12:35:28.999Z</time></trkpt><trkpt lat="40.63236182682346" lon="-5.628360413711026"><ele>931.0</ele><time>2026-04-19T12:35:29.999Z</time></trkpt><trkpt lat="40.632461218208334" lon="-5.628412032660676"><ele>931.0</ele><time>2026-04-19T12:35:30.999Z</time></trkpt><trkpt lat="40.63254781396801" lon="-5.628520231305923"><ele>931.0</ele><time>2026-04-19T12:35:31.999Z</time></trkpt><trkpt lat="40.6326631651595" lon="-5.628577726431242"><ele>931.0</ele><time>2026-04-19T12:35:32.999Z</time></trkpt><trkpt lat="40.63280124773292" lon="-5.6285720682533755"><ele>930.75</ele><time>2026-04-19T12:35:33.999Z</time></trkpt><trkpt lat="40.6329412401787" lon="-5.628563783083136"><ele>930.5</ele><time>2026-04-19T12:35:34.999Z</time></trkpt><trkpt lat="40.633086877156586" lon="-5.628548961948638"><ele>930.25</ele><time>2026-04-19T12:35:35.999Z</time></trkpt><trkpt lat="40.63323698510172" lon="-5.628540249727803"><ele>930.0</ele><time>2026-04-19T12:35:36.999Z</time></trkpt><trkpt lat="40.63339435431192" lon="-5.62853084310413"><ele>930.0</ele><time>2026-04-19T12:35:37.999Z</time></trkpt><trkpt lat="40.63355494808982" lon="-5.628521337843836"><ele>930.0</ele><time>2026-04-19T12:35:38.999Z</time></trkpt><trkpt lat="40.6337160735038" lon="-5.6285132438068555"><ele>930.0</ele><time>2026-04-19T12:35:39.999Z</time></trkpt><trkpt lat="40.63387032365269" lon="-5.628510506975683"><ele>930.0</ele><time>2026-04-19T12:35:40.999Z</time></trkpt><trkpt lat="40.63403222801147" lon="-5.628503673229664"><ele>930.0</ele><time>2026-04-19T12:35:41.999Z</time></trkpt><trkpt lat="40.6342004211541" lon="-5.628495011358468"><ele>930.0</ele><time>2026-04-19T12:35:42.999Z</time></trkpt><trkpt lat="40.634367823666096" lon="-5.6284829154358205"><ele>929.3333333333333</ele><time>2026-04-19T12:35:43.999Z</time></trkpt><trkpt lat="40.63454039783342" lon="-5.628473904662016"><ele>928.6666666666666</ele><time>2026-04-19T12:35:44.999Z</time></trkpt><trkpt lat="40.63471999556908" lon="-5.628467870166706"><ele>928.0</ele><time>2026-04-19T12:35:45.998Z</time></trkpt><trkpt lat="40.63489816834122" lon="-5.6284641969840035"><ele>928.0</ele><time>2026-04-19T12:35:46.998Z</time></trkpt><trkpt lat="40.63507696561946" lon="-5.6284591679607665"><ele>928.0</ele><time>2026-04-19T12:35:47.998Z</time></trkpt><trkpt lat="40.63525643558504" lon="-5.6284595019171935"><ele>928.0</ele><time>2026-04-19T12:35:48.998Z</time></trkpt><trkpt lat="40.63543811378334" lon="-5.628459305886453"><ele>928.6666666666666</ele><time>2026-04-19T12:35:49.998Z</time></trkpt><trkpt lat="40.635620445237635" lon="-5.628460852298269"><ele>929.3333333333333</ele><time>2026-04-19T12:35:50.998Z</time></trkpt><trkpt lat="40.63580338515716" lon="-5.628468473841834"><ele>930.0</ele><time>2026-04-19T12:35:51.998Z</time></trkpt><trkpt lat="40.63599110432298" lon="-5.628478636481903"><ele>931.0</ele><time>2026-04-19T12:35:52.998Z</time></trkpt><trkpt lat="40.636177035382545" lon="-5.628495329611071"><ele>932.0</ele><time>2026-04-19T12:35:53.998Z</time></trkpt><trkpt lat="40.636361987002914" lon="-5.628521126454063"><ele>933.0</ele><time>2026-04-19T12:35:54.998Z</time></trkpt><trkpt lat="40.63654841149851" lon="-5.628554371093234"><ele>933.0</ele><time>2026-04-19T12:35:55.998Z</time></trkpt><trkpt lat="40.63673255854299" lon="-5.628593676420007"><ele>933.0</ele><time>2026-04-19T12:35:56.998Z</time></trkpt><trkpt lat="40.63691973949621" lon="-5.628635026904194"><ele>933.0</ele><time>2026-04-19T12:35:57.998Z</time></trkpt><trkpt lat="40.63710656682815" lon="-5.628677262666222"><ele>932.6666666666667</ele><time>2026-04-19T12:35:58.998Z</time></trkpt><trkpt lat="40.63729368281806" lon="-5.628715343660051"><ele>932.3333333333334</ele><time>2026-04-19T12:35:59.998Z</time></trkpt><trkpt lat="40.63748067018341" lon="-5.628753940596136"><ele>932.0</ele><time>2026-04-19T12:36:00.998Z</time></trkpt><trkpt lat="40.637668862057296" lon="-5.628787878396763"><ele>931.0</ele><time>2026-04-19T12:36:01.998Z</time></trkpt><trkpt lat="40.63786203546752" lon="-5.628826161339412"><ele>930.0</ele><time>2026-04-19T12:36:02.998Z</time></trkpt><trkpt lat="40.63805516265646" lon="-5.628859980747963"><ele>929.0</ele><time>2026-04-19T12:36:03.998Z</time></trkpt><trkpt lat="40.63824532759522" lon="-5.628892833857381"><ele>929.0</ele><time>2026-04-19T12:36:04.998Z</time></trkpt><trkpt lat="40.638443683549006" lon="-5.628919192745448"><ele>929.0</ele><time>2026-04-19T12:36:05.998Z</time></trkpt><trkpt lat="40.638642622503525" lon="-5.6289392359832044"><ele>929.0</ele><time>2026-04-19T12:36:06.998Z</time></trkpt><trkpt lat="40.638843850288275" lon="-5.628956746375141"><ele>927.6666666666667</ele><time>2026-04-19T12:36:07.998Z</time></trkpt><trkpt lat="40.63904444637082" lon="-5.628969801454926"><ele>926.3333333333333</ele><time>2026-04-19T12:36:08.998Z</time></trkpt><trkpt lat="40.63924147933841" lon="-5.62897406237225"><ele>925.0</ele><time>2026-04-19T12:36:09.998Z</time></trkpt><trkpt lat="40.639443205232" lon="-5.628971098244524"><ele>923.6666666666666</ele><time>2026-04-19T12:36:10.998Z</time></trkpt><trkpt lat="40.63964386752594" lon="-5.628962011315024"><ele>922.3333333333333</ele><time>2026-04-19T12:36:11.998Z</time></trkpt><trkpt lat="40.63984336488433" lon="-5.62895062150593"><ele>921.0</ele><time>2026-04-19T12:36:12.998Z</time></trkpt><trkpt lat="40.64004401127127" lon="-5.628936469179687"><ele>921.0</ele><time>2026-04-19T12:36:14Z</time></trkpt><trkpt lat="40.640243440704495" lon="-5.628926043741045"><ele>921.0</ele><time>2026-04-19T12:36:15Z</time></trkpt><trkpt lat="40.64044429761994" lon="-5.628911921485896"><ele>921.0</ele><time>2026-04-19T12:36:16Z</time></trkpt><trkpt lat="40.640644297800925" lon="-5.628898215918186"><ele>920.6666666666667</ele><time>2026-04-19T12:36:17Z</time></trkpt><trkpt lat="40.64084394600316" lon="-5.6288865167706374"><ele>920.3333333333334</ele><time>2026-04-19T12:36:18Z</time></trkpt><trkpt lat="40.64104227926026" lon="-5.628867178832763"><ele>920.0</ele><time>2026-04-19T12:36:19Z</time></trkpt><trkpt lat="40.64124115645718" lon="-5.628851565725912"><ele>919.6666666666667</ele><time>2026-04-19T12:36:20Z</time></trkpt><trkpt lat="40.64143613956835" lon="-5.628838541849971"><ele>919.3333333333333</ele><time>2026-04-19T12:36:21Z</time></trkpt><trkpt lat="40.64163182726856" lon="-5.628821987182989"><ele>919.0</ele><time>2026-04-19T12:36:22Z</time></trkpt><trkpt lat="40.64182580997773" lon="-5.628803821152888"><ele>918.3333333333333</ele><time>2026-04-19T12:36:23Z</time></trkpt><trkpt lat="40.64201819488948" lon="-5.628787106511329"><ele>917.6666666666667</ele><time>2026-04-19T12:36:24Z</time></trkpt><trkpt lat="40.64220907109884" lon="-5.628775126930947"><ele>917.0</ele><time>2026-04-19T12:36:25Z</time></trkpt><trkpt lat="40.6424016202495" lon="-5.628761806292069"><ele>917.0</ele><time>2026-04-19T12:36:26Z</time></trkpt><trkpt lat="40.642590979578" lon="-5.6287468440741"><ele>917.0</ele><time>2026-04-19T12:36:27Z</time></trkpt><trkpt lat="40.64278267953633" lon="-5.628730597326731"><ele>917.0</ele><time>2026-04-19T12:36:28Z</time></trkpt><trkpt lat="40.6429744622637" lon="-5.62871693131633"><ele>916.3333333333334</ele><time>2026-04-19T12:36:29Z</time></trkpt><trkpt lat="40.643165762360944" lon="-5.628704191400651"><ele>915.6666666666667</ele><time>2026-04-19T12:36:30Z</time></trkpt><trkpt lat="40.6433574424214" lon="-5.628688467239538"><ele>915.0</ele><time>2026-04-19T12:36:31Z</time></trkpt><trkpt lat="40.64354701898992" lon="-5.628674204171382"><ele>914.6666666666667</ele><time>2026-04-19T12:36:32Z</time></trkpt><trkpt lat="40.64373792834804" lon="-5.628660342879568"><ele>914.3333333333334</ele><time>2026-04-19T12:36:33Z</time></trkpt><trkpt lat="40.64392817662411" lon="-5.628648777651704"><ele>914.0</ele><time>2026-04-19T12:36:34Z</time></trkpt><trkpt lat="40.64411825217964" lon="-5.628635025513964"><ele>913.3333333333334</ele><time>2026-04-19T12:36:35Z</time></trkpt><trkpt lat="40.64430871871196" lon="-5.628621583139226"><ele>912.6666666666667</ele><time>2026-04-19T12:36:36Z</time></trkpt><trkpt lat="40.64450074811739" lon="-5.628608773118271"><ele>912.0</ele><time>2026-04-19T12:36:37Z</time></trkpt><trkpt lat="40.644692703395094" lon="-5.6285963002292485"><ele>911.6666666666667</ele><time>2026-04-19T12:36:38Z</time></trkpt><trkpt lat="40.64488624088903" lon="-5.6285839936794755"><ele>911.3333333333334</ele><time>2026-04-19T12:36:39Z</time></trkpt><trkpt lat="40.645081834246064" lon="-5.628569903509685"><ele>911.0</ele><time>2026-04-19T12:36:40Z</time></trkpt><trkpt lat="40.64527476378688" lon="-5.628557115540902"><ele>910.6666666666667</ele><time>2026-04-19T12:36:41Z</time></trkpt><trkpt lat="40.6454683192175" lon="-5.628541889456023"><ele>910.3333333333333</ele><time>2026-04-19T12:36:42Z</time></trkpt><trkpt lat="40.645663868932125" lon="-5.62852937470487"><ele>910.0</ele><time>2026-04-19T12:36:43Z</time></trkpt><trkpt lat="40.64585574840219" lon="-5.628513260456199"><ele>910.0</ele><time>2026-04-19T12:36:44Z</time></trkpt><trkpt lat="40.64604704860442" lon="-5.628499666852129"><ele>910.0</ele><time>2026-04-19T12:36:45Z</time></trkpt><trkpt lat="40.64623987691807" lon="-5.628484415988058"><ele>910.0</ele><time>2026-04-19T12:36:46Z</time></trkpt><trkpt lat="40.646435774373344" lon="-5.628466081341914"><ele>910.6666666666666</ele><time>2026-04-19T12:36:47Z</time></trkpt><trkpt lat="40.64662997774274" lon="-5.628448623641786"><ele>911.3333333333333</ele><time>2026-04-19T12:36:48Z</time></trkpt><trkpt lat="40.64682313442586" lon="-5.628437098747086"><ele>912.0</ele><time>2026-04-19T12:36:49Z</time></trkpt><trkpt lat="40.64701671576446" lon="-5.628422330259044"><ele>912.0</ele><time>2026-04-19T12:36:50Z</time></trkpt><trkpt lat="40.64720832617842" lon="-5.628405770817829"><ele>912.0</ele><time>2026-04-19T12:36:51Z</time></trkpt><trkpt lat="40.647398472933205" lon="-5.628391866508716"><ele>912.0</ele><time>2026-04-19T12:36:52Z</time></trkpt><trkpt lat="40.647588841325764" lon="-5.628376547192015"><ele>912.0</ele><time>2026-04-19T12:36:53Z</time></trkpt><trkpt lat="40.64777680371826" lon="-5.628361279402536"><ele>912.0</ele><time>2026-04-19T12:36:54Z</time></trkpt><trkpt lat="40.64796036743422" lon="-5.628346397372646"><ele>912.0</ele><time>2026-04-19T12:36:55Z</time></trkpt><trkpt lat="40.64814429769886" lon="-5.6283282696611305"><ele>913.3333333333333</ele><time>2026-04-19T12:36:56Z</time></trkpt><trkpt lat="40.648325651181345" lon="-5.628307678882226"><ele>914.6666666666666</ele><time>2026-04-19T12:36:57Z</time></trkpt><trkpt lat="40.64850602581232" lon="-5.628286824655161"><ele>916.0</ele><time>2026-04-19T12:36:58Z</time></trkpt><trkpt lat="40.64868966734069" lon="-5.628261681747005"><ele>916.0</ele><time>2026-04-19T12:36:58.999Z</time></trkpt><trkpt lat="40.64887191531036" lon="-5.628234068465038"><ele>916.0</ele><time>2026-04-19T12:36:59.999Z</time></trkpt><trkpt lat="40.64905681179447" lon="-5.62820531517284"><ele>916.0</ele><time>2026-04-19T12:37:00.999Z</time></trkpt><trkpt lat="40.64924145632816" lon="-5.628173151276723"><ele>916.0</ele><time>2026-04-19T12:37:01.999Z</time></trkpt><trkpt lat="40.64942589174817" lon="-5.628143584977889"><ele>916.0</ele><time>2026-04-19T12:37:02.999Z</time></trkpt><trkpt lat="40.64961202007485" lon="-5.628111932993649"><ele>916.0</ele><time>2026-04-19T12:37:03.999Z</time></trkpt><trkpt lat="40.649801700834686" lon="-5.628078474673319"><ele>915.6666666666666</ele><time>2026-04-19T12:37:04.999Z</time></trkpt><trkpt lat="40.64999077951987" lon="-5.628045601181477"><ele>915.3333333333333</ele><time>2026-04-19T12:37:05.999Z</time></trkpt><trkpt lat="40.65018297289882" lon="-5.628012369026657"><ele>915.0</ele><time>2026-04-19T12:37:06.999Z</time></trkpt><trkpt lat="40.65037339459012" lon="-5.627980313274661"><ele>914.0</ele><time>2026-04-19T12:37:07.999Z</time></trkpt><trkpt lat="40.65056516590207" lon="-5.627950293320934"><ele>913.0</ele><time>2026-04-19T12:37:08.999Z</time></trkpt><trkpt lat="40.650756909962524" lon="-5.6279211332356205"><ele>912.0</ele><time>2026-04-19T12:37:09.999Z</time></trkpt><trkpt lat="40.650947648698256" lon="-5.627893579264504"><ele>911.0</ele><time>2026-04-19T12:37:10.999Z</time></trkpt><trkpt lat="40.65113921035586" lon="-5.627871107696537"><ele>910.0</ele><time>2026-04-19T12:37:11.999Z</time></trkpt><trkpt lat="40.65132858295208" lon="-5.6278630298480214"><ele>909.0</ele><time>2026-04-19T12:37:12.999Z</time></trkpt><trkpt lat="40.65151632000201" lon="-5.627870897748373"><ele>909.0</ele><time>2026-04-19T12:37:13.999Z</time></trkpt><trkpt lat="40.65170697812991" lon="-5.627902938202365"><ele>909.0</ele><time>2026-04-19T12:37:14.999Z</time></trkpt><trkpt lat="40.65189163441646" lon="-5.627944755742071"><ele>909.0</ele><time>2026-04-19T12:37:15.999Z</time></trkpt><trkpt lat="40.65207232319247" lon="-5.628003709733595"><ele>908.6666666666667</ele><time>2026-04-19T12:37:16.999Z</time></trkpt><trkpt lat="40.65225078448026" lon="-5.628067634840088"><ele>908.3333333333334</ele><time>2026-04-19T12:37:17.999Z</time></trkpt><trkpt lat="40.65242495331498" lon="-5.628136844207154"><ele>908.0</ele><time>2026-04-19T12:37:18.999Z</time></trkpt><trkpt lat="40.65259710207068" lon="-5.628208234181718"><ele>908.0</ele><time>2026-04-19T12:37:19.999Z</time></trkpt><trkpt lat="40.65276542423935" lon="-5.628282887028116"><ele>908.0</ele><time>2026-04-19T12:37:20.999Z</time></trkpt><trkpt lat="40.65293457502038" lon="-5.628355362219287"><ele>908.0</ele><time>2026-04-19T12:37:21.999Z</time></trkpt><trkpt lat="40.65311586053503" lon="-5.628419940890387"><ele>908.0</ele><time>2026-04-19T12:37:22.999Z</time></trkpt><trkpt lat="40.65329575058166" lon="-5.62848073450292"><ele>908.0</ele><time>2026-04-19T12:37:23.999Z</time></trkpt><trkpt lat="40.65347306985333" lon="-5.628543445529118"><ele>908.0</ele><time>2026-04-19T12:37:24.999Z</time></trkpt><trkpt lat="40.65365248961568" lon="-5.628608783931762"><ele>908.3333333333334</ele><time>2026-04-19T12:37:25.999Z</time></trkpt><trkpt lat="40.65383774850959" lon="-5.628670322364054"><ele>908.6666666666667</ele><time>2026-04-19T12:37:26.999Z</time></trkpt><trkpt lat="40.654023173390925" lon="-5.62871822369907"><ele>909.0</ele><time>2026-04-19T12:37:27.999Z</time></trkpt><trkpt lat="40.65421547402374" lon="-5.628745577345222"><ele>909.0</ele><time>2026-04-19T12:37:28.999Z</time></trkpt><trkpt lat="40.65441158143638" lon="-5.628752355465045"><ele>909.0</ele><time>2026-04-19T12:37:29.999Z</time></trkpt><trkpt lat="40.65460334437323" lon="-5.628740760325289"><ele>909.0</ele><time>2026-04-19T12:37:30.999Z</time></trkpt><trkpt lat="40.65477918050669" lon="-5.6287016076767875"><ele>908.6666666666667</ele><time>2026-04-19T12:37:31.999Z</time></trkpt><trkpt lat="40.65496772264298" lon="-5.628642837856959"><ele>908.3333333333334</ele><time>2026-04-19T12:37:32.999Z</time></trkpt><trkpt lat="40.655153138835374" lon="-5.628562002528943"><ele>908.0</ele><time>2026-04-19T12:37:33.999Z</time></trkpt><trkpt lat="40.65533233621042" lon="-5.628464440536664"><ele>906.6666666666667</ele><time>2026-04-19T12:37:34.999Z</time></trkpt><trkpt lat="40.65550680337189" lon="-5.628353706720605"><ele>905.3333333333333</ele><time>2026-04-19T12:37:35.999Z</time></trkpt><trkpt lat="40.65566980228595" lon="-5.628220294324693"><ele>904.0</ele><time>2026-04-19T12:37:36.999Z</time></trkpt><trkpt lat="40.65582599349273" lon="-5.628072079046889"><ele>904.0</ele><time>2026-04-19T12:37:37.999Z</time></trkpt><trkpt lat="40.655973211634716" lon="-5.627910926021759"><ele>904.0</ele><time>2026-04-19T12:37:38.999Z</time></trkpt><trkpt lat="40.65612216171266" lon="-5.6277455853717555"><ele>904.0</ele><time>2026-04-19T12:37:39.999Z</time></trkpt><trkpt lat="40.65626729671128" lon="-5.627575439413724"><ele>903.6666666666666</ele><time>2026-04-19T12:37:40.999Z</time></trkpt><trkpt lat="40.65641206895195" lon="-5.627404462062277"><ele>903.3333333333333</ele><time>2026-04-19T12:37:41.999Z</time></trkpt><trkpt lat="40.656558693967355" lon="-5.627240117504276"><ele>903.0</ele><time>2026-04-19T12:37:42.999Z</time></trkpt><trkpt lat="40.65671540497395" lon="-5.627087975599669"><ele>903.0</ele><time>2026-04-19T12:37:43.999Z</time></trkpt><trkpt lat="40.65687900472996" lon="-5.6269482418485"><ele>903.0</ele><time>2026-04-19T12:37:44.999Z</time></trkpt><trkpt lat="40.65704866135625" lon="-5.626822423752764"><ele>903.0</ele><time>2026-04-19T12:37:45.999Z</time></trkpt><trkpt lat="40.65722128441771" lon="-5.626707689290716"><ele>901.6666666666667</ele><time>2026-04-19T12:37:46.999Z</time></trkpt><trkpt lat="40.65739817364388" lon="-5.626607203371055"><ele>900.3333333333334</ele><time>2026-04-19T12:37:47.999Z</time></trkpt><trkpt lat="40.65757906441453" lon="-5.626509681734673"><ele>899.0</ele><time>2026-04-19T12:37:48.999Z</time></trkpt><trkpt lat="40.6577599687827" lon="-5.62641835354874"><ele>897.6666666666667</ele><time>2026-04-19T12:37:49.998Z</time></trkpt><trkpt lat="40.65794151539745" lon="-5.626330925560311"><ele>896.3333333333333</ele><time>2026-04-19T12:37:50.998Z</time></trkpt><trkpt lat="40.658122029214034" lon="-5.626242532814185"><ele>895.0</ele><time>2026-04-19T12:37:51.998Z</time></trkpt><trkpt lat="40.65830631949125" lon="-5.626147536360739"><ele>894.6666666666666</ele><time>2026-04-19T12:37:52.998Z</time></trkpt><trkpt lat="40.65849132279565" lon="-5.626056775511619"><ele>894.3333333333333</ele><time>2026-04-19T12:37:53.998Z</time></trkpt><trkpt lat="40.65867600172189" lon="-5.625966395442839"><ele>894.0</ele><time>2026-04-19T12:37:54.998Z</time></trkpt><trkpt lat="40.65885889516061" lon="-5.625876937561772"><ele>894.0</ele><time>2026-04-19T12:37:55.998Z</time></trkpt><trkpt lat="40.65902756091133" lon="-5.625800055574629"><ele>894.0</ele><time>2026-04-19T12:37:56.998Z</time></trkpt><trkpt lat="40.6592112961112" lon="-5.625706828194657"><ele>894.0</ele><time>2026-04-19T12:37:57.998Z</time></trkpt><trkpt lat="40.65939671180042" lon="-5.625619057824918"><ele>894.3333333333333</ele><time>2026-04-19T12:37:58.998Z</time></trkpt><trkpt lat="40.659583910577105" lon="-5.6255284582834735"><ele>894.6666666666666</ele><time>2026-04-19T12:37:59.998Z</time></trkpt><trkpt lat="40.659771410374276" lon="-5.625436857338795"><ele>895.0</ele><time>2026-04-19T12:38:00.998Z</time></trkpt><trkpt lat="40.65996169700321" lon="-5.625343812329103"><ele>894.3333333333333</ele><time>2026-04-19T12:38:01.998Z</time></trkpt><trkpt lat="40.66015055040703" lon="-5.625253879984816"><ele>893.6666666666667</ele><time>2026-04-19T12:38:02.998Z</time></trkpt><trkpt lat="40.66033866224957" lon="-5.6251625253195305"><ele>893.0</ele><time>2026-04-19T12:38:03.998Z</time></trkpt><trkpt lat="40.66052626161573" lon="-5.625073641983851"><ele>892.6666666666667</ele><time>2026-04-19T12:38:04.998Z</time></trkpt><trkpt lat="40.660704975912545" lon="-5.6249805590248005"><ele>892.3333333333333</ele><time>2026-04-19T12:38:05.998Z</time></trkpt><trkpt lat="40.660879316953604" lon="-5.624892805678799"><ele>892.0</ele><time>2026-04-19T12:38:06.998Z</time></trkpt><trkpt lat="40.66107579749629" lon="-5.624792591435372"><ele>892.3333333333333</ele><time>2026-04-19T12:38:07.998Z</time></trkpt><trkpt lat="40.661258325464" lon="-5.624709908148334"><ele>892.6666666666667</ele><time>2026-04-19T12:38:08.998Z</time></trkpt><trkpt lat="40.661441290308716" lon="-5.624621819032318"><ele>893.0</ele><time>2026-04-19T12:38:09.998Z</time></trkpt><trkpt lat="40.661625978892886" lon="-5.62453767604653"><ele>892.6666666666667</ele><time>2026-04-19T12:38:10.998Z</time></trkpt><trkpt lat="40.661806116151475" lon="-5.624451879276764"><ele>892.3333333333333</ele><time>2026-04-19T12:38:11.998Z</time></trkpt><trkpt lat="40.66199222031159" lon="-5.624363479373212"><ele>892.0</ele><time>2026-04-19T12:38:12.998Z</time></trkpt><trkpt lat="40.662171034163144" lon="-5.624276271437187"><ele>892.6666666666666</ele><time>2026-04-19T12:38:13.998Z</time></trkpt><trkpt lat="40.66234871518522" lon="-5.624188009051797"><ele>893.3333333333333</ele><time>2026-04-19T12:38:14.998Z</time></trkpt><trkpt lat="40.66252933791347" lon="-5.62409843285042"><ele>894.0</ele><time>2026-04-19T12:38:15.998Z</time></trkpt><trkpt lat="40.66270855949352" lon="-5.624007047796532"><ele>893.3333333333333</ele><time>2026-04-19T12:38:16.998Z</time></trkpt><trkpt lat="40.66289299924724" lon="-5.62391371095953"><ele>892.6666666666666</ele><time>2026-04-19T12:38:17.998Z</time></trkpt><trkpt lat="40.66307483319292" lon="-5.623821133295053"><ele>892.0</ele><time>2026-04-19T12:38:18.998Z</time></trkpt><trkpt lat="40.66325792543163" lon="-5.623731886043184"><ele>892.0</ele><time>2026-04-19T12:38:20Z</time></trkpt><trkpt lat="40.663441836101214" lon="-5.623643296425491"><ele>892.0</ele><time>2026-04-19T12:38:21Z</time></trkpt><trkpt lat="40.66361817837786" lon="-5.623559301756705"><ele>892.0</ele><time>2026-04-19T12:38:22Z</time></trkpt><trkpt lat="40.66379301986309" lon="-5.623474953728979"><ele>891.6666666666666</ele><time>2026-04-19T12:38:23Z</time></trkpt><trkpt lat="40.663973337567306" lon="-5.623389601247457"><ele>891.3333333333333</ele><time>2026-04-19T12:38:24Z</time></trkpt><trkpt lat="40.66415646163542" lon="-5.623307142252659"><ele>891.0</ele><time>2026-04-19T12:38:25Z</time></trkpt><trkpt lat="40.66433494692824" lon="-5.6232223992733"><ele>890.6666666666667</ele><time>2026-04-19T12:38:26Z</time></trkpt><trkpt lat="40.66451545395709" lon="-5.623129602433216"><ele>890.3333333333334</ele><time>2026-04-19T12:38:27Z</time></trkpt><trkpt lat="40.664698250789215" lon="-5.623034616696101"><ele>890.0</ele><time>2026-04-19T12:38:28Z</time></trkpt><trkpt lat="40.66487926668204" lon="-5.622951826420753"><ele>890.0</ele><time>2026-04-19T12:38:29Z</time></trkpt><trkpt lat="40.665058594343044" lon="-5.622869310734643"><ele>890.0</ele><time>2026-04-19T12:38:30Z</time></trkpt><trkpt lat="40.665248473437956" lon="-5.622777312869013"><ele>890.0</ele><time>2026-04-19T12:38:31Z</time></trkpt><trkpt lat="40.66542744644783" lon="-5.622692153245286"><ele>889.0</ele><time>2026-04-19T12:38:32Z</time></trkpt><trkpt lat="40.66561588923284" lon="-5.622596969204984"><ele>888.0</ele><time>2026-04-19T12:38:33Z</time></trkpt><trkpt lat="40.66580036105499" lon="-5.622506071783947"><ele>887.0</ele><time>2026-04-19T12:38:34Z</time></trkpt><trkpt lat="40.66598364773658" lon="-5.622416248724233"><ele>887.0</ele><time>2026-04-19T12:38:35Z</time></trkpt><trkpt lat="40.666170450054636" lon="-5.622329478549248"><ele>887.0</ele><time>2026-04-19T12:38:36Z</time></trkpt><trkpt lat="40.66635577293046" lon="-5.622239757163901"><ele>887.0</ele><time>2026-04-19T12:38:37Z</time></trkpt><trkpt lat="40.666541519965705" lon="-5.6221480213040875"><ele>887.0</ele><time>2026-04-19T12:38:38Z</time></trkpt><trkpt lat="40.66672858405445" lon="-5.622059909156277"><ele>887.0</ele><time>2026-04-19T12:38:39Z</time></trkpt><trkpt lat="40.66691298453144" lon="-5.6219639376442165"><ele>887.0</ele><time>2026-04-19T12:38:40Z</time></trkpt><trkpt lat="40.66709958458887" lon="-5.621872865200598"><ele>886.6666666666667</ele><time>2026-04-19T12:38:41Z</time></trkpt><trkpt lat="40.66728554016351" lon="-5.621784561436844"><ele>886.3333333333333</ele><time>2026-04-19T12:38:42Z</time></trkpt><trkpt lat="40.66747221622109" lon="-5.621697078570326"><ele>886.0</ele><time>2026-04-19T12:38:43Z</time></trkpt><trkpt lat="40.66766276632118" lon="-5.621607312245088"><ele>886.0</ele><time>2026-04-19T12:38:44Z</time></trkpt><trkpt lat="40.66784580594066" lon="-5.6215184823064215"><ele>886.0</ele><time>2026-04-19T12:38:45Z</time></trkpt><trkpt lat="40.66803165646646" lon="-5.621426809347453"><ele>886.0</ele><time>2026-04-19T12:38:46Z</time></trkpt><trkpt lat="40.66821775407887" lon="-5.621337755248727"><ele>886.0</ele><time>2026-04-19T12:38:47Z</time></trkpt><trkpt lat="40.66840232898881" lon="-5.621244395481939"><ele>886.0</ele><time>2026-04-19T12:38:48Z</time></trkpt><trkpt lat="40.6685851476283" lon="-5.621154134010044"><ele>886.0</ele><time>2026-04-19T12:38:49Z</time></trkpt><trkpt lat="40.66877374134719" lon="-5.621062580663563"><ele>886.3333333333333</ele><time>2026-04-19T12:38:50Z</time></trkpt><trkpt lat="40.668961545554325" lon="-5.620972884583174"><ele>886.6666666666667</ele><time>2026-04-19T12:38:51Z</time></trkpt><trkpt lat="40.66914917186476" lon="-5.620878881220588"><ele>887.0</ele><time>2026-04-19T12:38:52Z</time></trkpt><trkpt lat="40.66933471745704" lon="-5.620788066144646"><ele>886.6666666666667</ele><time>2026-04-19T12:38:53Z</time></trkpt><trkpt lat="40.669504339322714" lon="-5.62069086209721"><ele>886.3333333333333</ele><time>2026-04-19T12:38:54Z</time></trkpt><trkpt lat="40.669693787555005" lon="-5.620607482598852"><ele>886.0</ele><time>2026-04-19T12:38:55Z</time></trkpt><trkpt lat="40.669879936650865" lon="-5.620517428512522"><ele>886.0</ele><time>2026-04-19T12:38:56Z</time></trkpt><trkpt lat="40.67005925317429" lon="-5.62043464104716"><ele>886.0</ele><time>2026-04-19T12:38:57Z</time></trkpt><trkpt lat="40.67025186230461" lon="-5.620341731079403"><ele>886.0</ele><time>2026-04-19T12:38:58Z</time></trkpt><trkpt lat="40.670439749858346" lon="-5.62024904396145"><ele>885.6666666666666</ele><time>2026-04-19T12:38:59Z</time></trkpt><trkpt lat="40.67062174592074" lon="-5.620159636343482"><ele>885.3333333333333</ele><time>2026-04-19T12:39:00Z</time></trkpt><trkpt lat="40.670804514956686" lon="-5.620067032372547"><ele>885.0</ele><time>2026-04-19T12:39:01Z</time></trkpt><trkpt lat="40.670987432715656" lon="-5.61997961416636"><ele>884.6666666666667</ele><time>2026-04-19T12:39:02Z</time></trkpt><trkpt lat="40.671170869081585" lon="-5.619892998065907"><ele>884.3333333333334</ele><time>2026-04-19T12:39:02.999Z</time></trkpt><trkpt lat="40.671353855711615" lon="-5.619806263537032"><ele>884.0</ele><time>2026-04-19T12:39:03.999Z</time></trkpt><trkpt lat="40.67153759951683" lon="-5.61971952516585"><ele>884.0</ele><time>2026-04-19T12:39:04.999Z</time></trkpt><trkpt lat="40.67172248595254" lon="-5.619632995925516"><ele>884.0</ele><time>2026-04-19T12:39:05.999Z</time></trkpt><trkpt lat="40.6719072353479" lon="-5.619549903638919"><ele>884.0</ele><time>2026-04-19T12:39:06.999Z</time></trkpt><trkpt lat="40.6720985752375" lon="-5.619430314073727"><ele>883.6666666666667</ele><time>2026-04-19T12:39:07.999Z</time></trkpt><trkpt lat="40.672258379961406" lon="-5.61935990606842"><ele>883.3333333333333</ele><time>2026-04-19T12:39:08.999Z</time></trkpt><trkpt lat="40.672440154718544" lon="-5.619278407084204"><ele>883.0</ele><time>2026-04-19T12:39:09.999Z</time></trkpt><trkpt lat="40.67262299118518" lon="-5.619208238319457"><ele>882.6666666666666</ele><time>2026-04-19T12:39:10.999Z</time></trkpt><trkpt lat="40.67281350965588" lon="-5.619149670821143"><ele>882.3333333333333</ele><time>2026-04-19T12:39:11.999Z</time></trkpt><trkpt lat="40.67300279012196" lon="-5.619110360884821"><ele>882.0</ele><time>2026-04-19T12:39:12.999Z</time></trkpt><trkpt lat="40.67319612099268" lon="-5.619085741264473"><ele>882.0</ele><time>2026-04-19T12:39:13.999Z</time></trkpt><trkpt lat="40.67338612041979" lon="-5.619081956669883"><ele>882.0</ele><time>2026-04-19T12:39:14.999Z</time></trkpt><trkpt lat="40.67357327640943" lon="-5.619087208233745"><ele>882.0</ele><time>2026-04-19T12:39:15.999Z</time></trkpt><trkpt lat="40.673772056378276" lon="-5.619109112742802"><ele>880.6666666666667</ele><time>2026-04-19T12:39:16.999Z</time></trkpt><trkpt lat="40.67396214713114" lon="-5.619147607048222"><ele>879.3333333333334</ele><time>2026-04-19T12:39:17.999Z</time></trkpt><trkpt lat="40.67415167922056" lon="-5.619201316146313"><ele>878.0</ele><time>2026-04-19T12:39:18.999Z</time></trkpt><trkpt lat="40.67433816393936" lon="-5.619252559453374"><ele>876.3333333333334</ele><time>2026-04-19T12:39:19.999Z</time></trkpt><trkpt lat="40.67453317280356" lon="-5.619302805805988"><ele>874.6666666666667</ele><time>2026-04-19T12:39:20.999Z</time></trkpt><trkpt lat="40.674731278856335" lon="-5.6193578105496025"><ele>873.0</ele><time>2026-04-19T12:39:21.999Z</time></trkpt><trkpt lat="40.674933328475895" lon="-5.619407078109673"><ele>873.0</ele><time>2026-04-19T12:39:22.999Z</time></trkpt><trkpt lat="40.67513725326732" lon="-5.619464958317994"><ele>873.0</ele><time>2026-04-19T12:39:23.999Z</time></trkpt><trkpt lat="40.67534186666132" lon="-5.6195191276707"><ele>873.0</ele><time>2026-04-19T12:39:24.999Z</time></trkpt><trkpt lat="40.67554419163549" lon="-5.619572698971814"><ele>873.0</ele><time>2026-04-19T12:39:25.999Z</time></trkpt><trkpt lat="40.67573638825689" lon="-5.619621230704985"><ele>873.0</ele><time>2026-04-19T12:39:26.999Z</time></trkpt><trkpt lat="40.67593216718169" lon="-5.619676256492983"><ele>873.0</ele><time>2026-04-19T12:39:27.999Z</time></trkpt><trkpt lat="40.67613304930514" lon="-5.619731976733711"><ele>870.3333333333333</ele><time>2026-04-19T12:39:28.999Z</time></trkpt><trkpt lat="40.67633536041288" lon="-5.6197838572166035"><ele>867.6666666666666</ele><time>2026-04-19T12:39:29.999Z</time></trkpt><trkpt lat="40.676537700491274" lon="-5.6198358423414465"><ele>865.0</ele><time>2026-04-19T12:39:30.999Z</time></trkpt><trkpt lat="40.676739155903704" lon="-5.619886569161579"><ele>863.0</ele><time>2026-04-19T12:39:31.999Z</time></trkpt><trkpt lat="40.67694022698709" lon="-5.6199416738326"><ele>861.0</ele><time>2026-04-19T12:39:32.999Z</time></trkpt><trkpt lat="40.67713502178932" lon="-5.619994519050502"><ele>859.0</ele><time>2026-04-19T12:39:33.999Z</time></trkpt><trkpt lat="40.67733143478555" lon="-5.620049914957408"><ele>859.0</ele><time>2026-04-19T12:39:34.999Z</time></trkpt><trkpt lat="40.677526773855995" lon="-5.620102051273025"><ele>859.0</ele><time>2026-04-19T12:39:35.999Z</time></trkpt><trkpt lat="40.67772477455933" lon="-5.6201509538652505"><ele>859.0</ele><time>2026-04-19T12:39:36.999Z</time></trkpt><trkpt lat="40.67792363440898" lon="-5.620200506015002"><ele>855.6666666666666</ele><time>2026-04-19T12:39:37.999Z</time></trkpt><trkpt lat="40.67812385439508" lon="-5.620238217468545"><ele>852.3333333333333</ele><time>2026-04-19T12:39:38.999Z</time></trkpt><trkpt lat="40.67833776817571" lon="-5.620260664139924"><ele>849.0</ele><time>2026-04-19T12:39:39.999Z</time></trkpt><trkpt lat="40.678531931897865" lon="-5.620236704478025"><ele>848.0</ele><time>2026-04-19T12:39:40.999Z</time></trkpt><trkpt lat="40.67874434018596" lon="-5.620206123100962"><ele>847.0</ele><time>2026-04-19T12:39:41.999Z</time></trkpt><trkpt lat="40.67895332967168" lon="-5.620153903750911"><ele>846.0</ele><time>2026-04-19T12:39:42.999Z</time></trkpt><trkpt lat="40.679133209874934" lon="-5.620115324668439"><ele>846.0</ele><time>2026-04-19T12:39:43.999Z</time></trkpt><trkpt lat="40.679332759496965" lon="-5.620043471112572"><ele>846.0</ele><time>2026-04-19T12:39:44.999Z</time></trkpt><trkpt lat="40.67953329606003" lon="-5.619948309598948"><ele>846.0</ele><time>2026-04-19T12:39:45.999Z</time></trkpt><trkpt lat="40.67977282081551" lon="-5.619975921496772"><ele>845.6666666666667</ele><time>2026-04-19T12:39:46.999Z</time></trkpt><trkpt lat="40.67987995885214" lon="-5.619934096483711"><ele>845.3333333333334</ele><time>2026-04-19T12:39:47.999Z</time></trkpt><trkpt lat="40.680071580616065" lon="-5.619945751534862"><ele>845.0</ele><time>2026-04-19T12:39:48.999Z</time></trkpt><trkpt lat="40.680258663466795" lon="-5.619954037237953"><ele>845.3333333333334</ele><time>2026-04-19T12:39:49.999Z</time></trkpt><trkpt lat="40.680453645983356" lon="-5.619985926315009"><ele>845.6666666666667</ele><time>2026-04-19T12:39:50.999Z</time></trkpt><trkpt lat="40.68064435539625" lon="-5.620038221404064"><ele>846.0</ele><time>2026-04-19T12:39:51.999Z</time></trkpt><trkpt lat="40.68083285694903" lon="-5.620108645617158"><ele>846.0</ele><time>2026-04-19T12:39:52.998Z</time></trkpt><trkpt lat="40.68101973131783" lon="-5.620189538415038"><ele>846.0</ele><time>2026-04-19T12:39:53.998Z</time></trkpt><trkpt lat="40.68120281289435" lon="-5.620281300035796"><ele>846.0</ele><time>2026-04-19T12:39:54.998Z</time></trkpt><trkpt lat="40.68138345757948" lon="-5.62036446359358"><ele>842.6666666666667</ele><time>2026-04-19T12:39:55.998Z</time></trkpt><trkpt lat="40.681564517402826" lon="-5.6204430121960085"><ele>839.3333333333334</ele><time>2026-04-19T12:39:56.998Z</time></trkpt><trkpt lat="40.681745106055494" lon="-5.620525807630482"><ele>836.0</ele><time>2026-04-19T12:39:57.998Z</time></trkpt><trkpt lat="40.681926512646015" lon="-5.620604106057643"><ele>836.0</ele><time>2026-04-19T12:39:58.998Z</time></trkpt><trkpt lat="40.682104288238015" lon="-5.620683235193977"><ele>836.0</ele><time>2026-04-19T12:39:59.998Z</time></trkpt><trkpt lat="40.68228023289822" lon="-5.62076599489949"><ele>836.0</ele><time>2026-04-19T12:40:00.998Z</time></trkpt><trkpt lat="40.68245560076649" lon="-5.620843570911588"><ele>836.0</ele><time>2026-04-19T12:40:01.998Z</time></trkpt><trkpt lat="40.682652321587625" lon="-5.620929139161767"><ele>836.0</ele><time>2026-04-19T12:40:02.998Z</time></trkpt><trkpt lat="40.682831413495876" lon="-5.621005104141714"><ele>836.0</ele><time>2026-04-19T12:40:03.998Z</time></trkpt><trkpt lat="40.68300484849527" lon="-5.621069729884569"><ele>835.3333333333334</ele><time>2026-04-19T12:40:04.998Z</time></trkpt><trkpt lat="40.683187078853145" lon="-5.621144034913483"><ele>834.6666666666667</ele><time>2026-04-19T12:40:05.998Z</time></trkpt><trkpt lat="40.683366904234965" lon="-5.621221750161485"><ele>834.0</ele><time>2026-04-19T12:40:06.998Z</time></trkpt><trkpt lat="40.683548310825735" lon="-5.621300755032994"><ele>834.6666666666667</ele><time>2026-04-19T12:40:07.998Z</time></trkpt><trkpt lat="40.68372404810298" lon="-5.621374246019197"><ele>835.3333333333334</ele><time>2026-04-19T12:40:08.998Z</time></trkpt><trkpt lat="40.68390444591146" lon="-5.621445826327808"><ele>836.0</ele><time>2026-04-19T12:40:09.998Z</time></trkpt><trkpt lat="40.68408125320412" lon="-5.621521514222287"><ele>836.0</ele><time>2026-04-19T12:40:10.998Z</time></trkpt><trkpt lat="40.68425876088862" lon="-5.6215967273534035"><ele>836.0</ele><time>2026-04-19T12:40:11.998Z</time></trkpt><trkpt lat="40.68443341387688" lon="-5.62167307246089"><ele>836.0</ele><time>2026-04-19T12:40:12.998Z</time></trkpt><trkpt lat="40.68460727172294" lon="-5.621750343848057"><ele>835.6666666666667</ele><time>2026-04-19T12:40:13.998Z</time></trkpt><trkpt lat="40.6847836150961" lon="-5.621829525752371"><ele>835.3333333333333</ele><time>2026-04-19T12:40:14.998Z</time></trkpt><trkpt lat="40.68495709431094" lon="-5.621905362997983"><ele>835.0</ele><time>2026-04-19T12:40:15.998Z</time></trkpt><trkpt lat="40.685130551648086" lon="-5.621977884119365"><ele>836.0</ele><time>2026-04-19T12:40:16.998Z</time></trkpt><trkpt lat="40.685303467417725" lon="-5.622052550674483"><ele>837.0</ele><time>2026-04-19T12:40:17.998Z</time></trkpt><trkpt lat="40.68547639041508" lon="-5.622130297449938"><ele>838.0</ele><time>2026-04-19T12:40:18.998Z</time></trkpt><trkpt lat="40.68565195601261" lon="-5.622206083620168"><ele>838.0</ele><time>2026-04-19T12:40:19.998Z</time></trkpt><trkpt lat="40.68582814972042" lon="-5.622281077393691"><ele>838.0</ele><time>2026-04-19T12:40:20.998Z</time></trkpt><trkpt lat="40.686003697667985" lon="-5.622352420738886"><ele>838.0</ele><time>2026-04-19T12:40:21.998Z</time></trkpt><trkpt lat="40.686175665592394" lon="-5.622427987047601"><ele>836.6666666666666</ele><time>2026-04-19T12:40:22.998Z</time></trkpt><trkpt lat="40.68635116209655" lon="-5.622509677288227"><ele>835.3333333333333</ele><time>2026-04-19T12:40:23.998Z</time></trkpt><trkpt lat="40.68652976440407" lon="-5.622592135752723"><ele>834.0</ele><time>2026-04-19T12:40:24.998Z</time></trkpt><trkpt lat="40.68670880131325" lon="-5.622667635867271"><ele>834.0</ele><time>2026-04-19T12:40:26Z</time></trkpt><trkpt lat="40.68688880247431" lon="-5.622735603794196"><ele>834.0</ele><time>2026-04-19T12:40:27Z</time></trkpt><trkpt lat="40.68705659705236" lon="-5.622818593270924"><ele>834.0</ele><time>2026-04-19T12:40:28Z</time></trkpt><trkpt lat="40.68723524503573" lon="-5.622892400149268"><ele>834.3333333333333</ele><time>2026-04-19T12:40:29Z</time></trkpt><trkpt lat="40.68741387207033" lon="-5.622970602588505"><ele>834.6666666666666</ele><time>2026-04-19T12:40:30Z</time></trkpt><trkpt lat="40.68759167835394" lon="-5.623050052711084"><ele>835.0</ele><time>2026-04-19T12:40:31Z</time></trkpt><trkpt lat="40.687773639039314" lon="-5.623131424874545"><ele>835.3333333333333</ele><time>2026-04-19T12:40:32Z</time></trkpt><trkpt lat="40.687958324167255" lon="-5.623213835802995"><ele>835.6666666666667</ele><time>2026-04-19T12:40:33Z</time></trkpt><trkpt lat="40.68814468455013" lon="-5.623291793790638"><ele>836.0</ele><time>2026-04-19T12:40:34Z</time></trkpt><trkpt lat="40.68833643265911" lon="-5.623368763040326"><ele>836.0</ele><time>2026-04-19T12:40:35Z</time></trkpt><trkpt lat="40.68852494281335" lon="-5.623441183250272"><ele>836.0</ele><time>2026-04-19T12:40:36Z</time></trkpt><trkpt lat="40.688710298645724" lon="-5.623520070268099"><ele>836.0</ele><time>2026-04-19T12:40:37Z</time></trkpt><trkpt lat="40.68890617224991" lon="-5.623582731544575"><ele>835.6666666666667</ele><time>2026-04-19T12:40:38Z</time></trkpt><trkpt lat="40.689103853618015" lon="-5.623621326001795"><ele>835.3333333333333</ele><time>2026-04-19T12:40:39Z</time></trkpt><trkpt lat="40.689305454400404" lon="-5.623642813037519"><ele>835.0</ele><time>2026-04-19T12:40:40Z</time></trkpt><trkpt lat="40.6895001539816" lon="-5.623644659195489"><ele>834.6666666666666</ele><time>2026-04-19T12:40:41Z</time></trkpt><trkpt lat="40.68968751678444" lon="-5.623630515579593"><ele>834.3333333333333</ele><time>2026-04-19T12:40:42Z</time></trkpt><trkpt lat="40.689876825028335" lon="-5.623599507785051"><ele>834.0</ele><time>2026-04-19T12:40:43Z</time></trkpt><trkpt lat="40.69006476628116" lon="-5.623551490609808"><ele>834.0</ele><time>2026-04-19T12:40:44Z</time></trkpt><trkpt lat="40.69024813474531" lon="-5.623487725912175"><ele>834.0</ele><time>2026-04-19T12:40:45Z</time></trkpt><trkpt lat="40.690432917309394" lon="-5.623406696051591"><ele>834.0</ele><time>2026-04-19T12:40:46Z</time></trkpt><trkpt lat="40.69061033331195" lon="-5.623314288254998"><ele>834.3333333333333</ele><time>2026-04-19T12:40:47Z</time></trkpt><trkpt lat="40.690785458145974" lon="-5.623211745071135"><ele>834.6666666666666</ele><time>2026-04-19T12:40:48Z</time></trkpt><trkpt lat="40.69095854894544" lon="-5.623105413485364"><ele>835.0</ele><time>2026-04-19T12:40:49Z</time></trkpt><trkpt lat="40.691132897360426" lon="-5.623001090668328"><ele>835.3333333333333</ele><time>2026-04-19T12:40:50Z</time></trkpt><trkpt lat="40.69130624899254" lon="-5.622898354823684"><ele>835.6666666666667</ele><time>2026-04-19T12:40:51Z</time></trkpt><trkpt lat="40.69147837900281" lon="-5.622795247495102"><ele>836.0</ele><time>2026-04-19T12:40:52Z</time></trkpt><trkpt lat="40.691649242915545" lon="-5.622693334664651"><ele>836.0</ele><time>2026-04-19T12:40:53Z</time></trkpt><trkpt lat="40.69181884808806" lon="-5.622589213405921"><ele>836.0</ele><time>2026-04-19T12:40:54Z</time></trkpt><trkpt lat="40.691992388765684" lon="-5.622487922504875"><ele>836.0</ele><time>2026-04-19T12:40:55Z</time></trkpt><trkpt lat="40.692163824614894" lon="-5.622379584773543"><ele>838.3333333333334</ele><time>2026-04-19T12:40:56Z</time></trkpt><trkpt lat="40.692339741569256" lon="-5.622279223158755"><ele>840.6666666666667</ele><time>2026-04-19T12:40:57Z</time></trkpt><trkpt lat="40.692517181738516" lon="-5.622188166676105"><ele>843.0</ele><time>2026-04-19T12:40:58Z</time></trkpt><trkpt lat="40.692698061432736" lon="-5.622106089598318"><ele>844.0</ele><time>2026-04-19T12:40:59Z</time></trkpt><trkpt lat="40.69288998845052" lon="-5.622030222137593"><ele>845.0</ele><time>2026-04-19T12:41:00Z</time></trkpt><trkpt lat="40.69307967461804" lon="-5.621972528285204"><ele>846.0</ele><time>2026-04-19T12:41:01Z</time></trkpt><trkpt lat="40.6932727252742" lon="-5.621939893334149"><ele>842.3333333333333</ele><time>2026-04-19T12:41:02Z</time></trkpt><trkpt lat="40.693462318197234" lon="-5.621929424984687"><ele>838.6666666666666</ele><time>2026-04-19T12:41:03Z</time></trkpt><trkpt lat="40.693654714935185" lon="-5.621932025225489"><ele>835.0</ele><time>2026-04-19T12:41:04Z</time></trkpt><trkpt lat="40.69385358473424" lon="-5.6219541766803545"><ele>837.0</ele><time>2026-04-19T12:41:05Z</time></trkpt><trkpt lat="40.694045925232196" lon="-5.621999460766113"><ele>839.0</ele><time>2026-04-19T12:41:06Z</time></trkpt><trkpt lat="40.69423356299727" lon="-5.6220497500670294"><ele>841.0</ele><time>2026-04-19T12:41:07Z</time></trkpt><trkpt lat="40.694417090852966" lon="-5.6221204538134915"><ele>839.3333333333333</ele><time>2026-04-19T12:41:07.999Z</time></trkpt><trkpt lat="40.694600695610504" lon="-5.62219522063057"><ele>837.6666666666667</ele><time>2026-04-19T12:41:08.999Z</time></trkpt><trkpt lat="40.69477427874939" lon="-5.622272353424332"><ele>836.0</ele><time>2026-04-19T12:41:09.999Z</time></trkpt><trkpt lat="40.69495577556817" lon="-5.6223476577630755"><ele>836.0</ele><time>2026-04-19T12:41:10.999Z</time></trkpt><trkpt lat="40.69513134202823" lon="-5.622424822681194"><ele>836.0</ele><time>2026-04-19T12:41:11.999Z</time></trkpt><trkpt lat="40.69530905282491" lon="-5.622505087228551"><ele>836.0</ele><time>2026-04-19T12:41:12.999Z</time></trkpt><trkpt lat="40.69549177935469" lon="-5.622582250053425"><ele>835.3333333333334</ele><time>2026-04-19T12:41:13.999Z</time></trkpt><trkpt lat="40.69567642004583" lon="-5.6226597889375896"><ele>834.6666666666667</ele><time>2026-04-19T12:41:14.999Z</time></trkpt><trkpt lat="40.695867722395214" lon="-5.622739940760144"><ele>834.0</ele><time>2026-04-19T12:41:15.999Z</time></trkpt><trkpt lat="40.69604914351913" lon="-5.622817012311895"><ele>835.6666666666667</ele><time>2026-04-19T12:41:16.999Z</time></trkpt><trkpt lat="40.696234880756805" lon="-5.6229036282698015"><ele>837.3333333333334</ele><time>2026-04-19T12:41:17.999Z</time></trkpt><trkpt lat="40.69642243794853" lon="-5.622979119683982"><ele>839.0</ele><time>2026-04-19T12:41:18.999Z</time></trkpt><trkpt lat="40.69660300722507" lon="-5.623050515691835"><ele>839.0</ele><time>2026-04-19T12:41:19.999Z</time></trkpt><trkpt lat="40.69679222299991" lon="-5.623114241238896"><ele>839.0</ele><time>2026-04-19T12:41:20.999Z</time></trkpt><trkpt lat="40.6969792448975" lon="-5.623166711547862"><ele>839.0</ele><time>2026-04-19T12:41:21.999Z</time></trkpt><trkpt lat="40.697163755214405" lon="-5.623204471100878"><ele>837.3333333333334</ele><time>2026-04-19T12:41:22.999Z</time></trkpt><trkpt lat="40.69736008552162" lon="-5.623233501231318"><ele>835.6666666666667</ele><time>2026-04-19T12:41:23.999Z</time></trkpt><trkpt lat="40.69754784174082" lon="-5.62324762737602"><ele>834.0</ele><time>2026-04-19T12:41:24.999Z</time></trkpt><trkpt lat="40.69773635146215" lon="-5.623256116141876"><ele>833.6666666666667</ele><time>2026-04-19T12:41:25.999Z</time></trkpt><trkpt lat="40.697929024912625" lon="-5.623250812044275"><ele>833.3333333333334</ele><time>2026-04-19T12:41:26.999Z</time></trkpt><trkpt lat="40.69812316669464" lon="-5.623239374497663"><ele>833.0</ele><time>2026-04-19T12:41:27.999Z</time></trkpt><trkpt lat="40.698315880303085" lon="-5.623221499566884"><ele>833.0</ele><time>2026-04-19T12:41:28.999Z</time></trkpt><trkpt lat="40.698502207887145" lon="-5.623202983909913"><ele>833.0</ele><time>2026-04-19T12:41:29.999Z</time></trkpt><trkpt lat="40.69869559692317" lon="-5.623176153059639"><ele>833.0</ele><time>2026-04-19T12:41:30.999Z</time></trkpt><trkpt lat="40.69888834913699" lon="-5.623150780686454"><ele>833.6666666666667</ele><time>2026-04-19T12:41:31.999Z</time></trkpt><trkpt lat="40.69908146576481" lon="-5.6231353055680104"><ele>834.3333333333333</ele><time>2026-04-19T12:41:32.999Z</time></trkpt><trkpt lat="40.699277083354474" lon="-5.623121685949107"><ele>835.0</ele><time>2026-04-19T12:41:33.999Z</time></trkpt><trkpt lat="40.69947106363336" lon="-5.6231019188469435"><ele>836.6666666666666</ele><time>2026-04-19T12:41:34.999Z</time></trkpt><trkpt lat="40.69966240449525" lon="-5.623083026707141"><ele>838.3333333333333</ele><time>2026-04-19T12:41:35.999Z</time></trkpt><trkpt lat="40.69985715285544" lon="-5.62305862809804"><ele>840.0</ele><time>2026-04-19T12:41:36.999Z</time></trkpt><trkpt lat="40.700047497751775" lon="-5.623037832419852"><ele>840.0</ele><time>2026-04-19T12:41:37.999Z</time></trkpt><trkpt lat="40.70023713175834" lon="-5.6230201117879215"><ele>840.0</ele><time>2026-04-19T12:41:38.999Z</time></trkpt><trkpt lat="40.70042824968657" lon="-5.6230010619196324"><ele>840.0</ele><time>2026-04-19T12:41:39.999Z</time></trkpt><trkpt lat="40.70062156807858" lon="-5.622979098584359"><ele>840.6666666666667</ele><time>2026-04-19T12:41:40.999Z</time></trkpt><trkpt lat="40.700813644311076" lon="-5.622958199459734"><ele>841.3333333333334</ele><time>2026-04-19T12:41:41.999Z</time></trkpt><trkpt lat="40.70100727735265" lon="-5.622940011513273"><ele>842.0</ele><time>2026-04-19T12:41:42.999Z</time></trkpt><trkpt lat="40.701200465575894" lon="-5.622921795911418"><ele>840.3333333333334</ele><time>2026-04-19T12:41:43.999Z</time></trkpt><trkpt lat="40.701387966681565" lon="-5.622898625730354"><ele>838.6666666666667</ele><time>2026-04-19T12:41:44.999Z</time></trkpt><trkpt lat="40.701574643777356" lon="-5.622879165706559"><ele>837.0</ele><time>2026-04-19T12:41:45.999Z</time></trkpt><trkpt lat="40.701762005766184" lon="-5.6228584302604565"><ele>837.3333333333333</ele><time>2026-04-19T12:41:46.999Z</time></trkpt><trkpt lat="40.70195306318499" lon="-5.62283976184636"><ele>837.6666666666666</ele><time>2026-04-19T12:41:47.999Z</time></trkpt><trkpt lat="40.702144910083625" lon="-5.6228193602849545"><ele>838.0</ele><time>2026-04-19T12:41:48.999Z</time></trkpt><trkpt lat="40.70232824104197" lon="-5.622800279316784"><ele>835.6666666666666</ele><time>2026-04-19T12:41:49.999Z</time></trkpt><trkpt lat="40.70251690934726" lon="-5.622782703202506"><ele>833.3333333333333</ele><time>2026-04-19T12:41:50.999Z</time></trkpt><trkpt lat="40.702701795112425" lon="-5.622760142167577"><ele>831.0</ele><time>2026-04-19T12:41:51.999Z</time></trkpt><trkpt lat="40.702887092324715" lon="-5.6227440368515715"><ele>831.0</ele><time>2026-04-19T12:41:52.999Z</time></trkpt><trkpt lat="40.70306520177724" lon="-5.622723344609596"><ele>831.0</ele><time>2026-04-19T12:41:53.999Z</time></trkpt><trkpt lat="40.703240487386076" lon="-5.622695199790902"><ele>831.0</ele><time>2026-04-19T12:41:54.999Z</time></trkpt><trkpt lat="40.7034084992208" lon="-5.622672193220745"><ele>831.0</ele><time>2026-04-19T12:41:55.999Z</time></trkpt><trkpt lat="40.703577325949745" lon="-5.622641200116502"><ele>831.0</ele><time>2026-04-19T12:41:56.998Z</time></trkpt><trkpt lat="40.70373638980324" lon="-5.6226091698654885"><ele>831.0</ele><time>2026-04-19T12:41:57.998Z</time></trkpt><trkpt lat="40.70388458806553" lon="-5.622575254943171"><ele>831.5</ele><time>2026-04-19T12:41:58.998Z</time></trkpt><trkpt lat="40.70402971740955" lon="-5.622547389799648"><ele>832.0</ele><time>2026-04-19T12:41:59.998Z</time></trkpt><trkpt lat="40.704175176264776" lon="-5.622514144451925"><ele>832.5</ele><time>2026-04-19T12:42:00.998Z</time></trkpt><trkpt lat="40.70431326515208" lon="-5.622484512537588"><ele>833.0</ele><time>2026-04-19T12:42:01.998Z</time></trkpt><trkpt lat="40.7044423912076" lon="-5.62245995888557"><ele>834.5</ele><time>2026-04-19T12:42:02.998Z</time></trkpt><trkpt lat="40.70456723020722" lon="-5.622433620977054"><ele>836.0</ele><time>2026-04-19T12:42:03.998Z</time></trkpt><trkpt lat="40.70468727215087" lon="-5.622406745310638"><ele>837.5</ele><time>2026-04-19T12:42:04.998Z</time></trkpt><trkpt lat="40.7048010214834" lon="-5.622376246818509"><ele>839.0</ele><time>2026-04-19T12:42:05.998Z</time></trkpt><trkpt lat="40.70490280179147" lon="-5.622326301735173"><ele>839.0</ele><time>2026-04-19T12:42:06.998Z</time></trkpt><trkpt lat="40.704986108085485" lon="-5.6222531028370915"><ele>839.0</ele><time>2026-04-19T12:42:07.998Z</time></trkpt><trkpt lat="40.7050602069465" lon="-5.622170460364088"><ele>839.0</ele><time>2026-04-19T12:42:08.998Z</time></trkpt><trkpt lat="40.70514251612991" lon="-5.622115778600223"><ele>839.0</ele><time>2026-04-19T12:42:09.998Z</time></trkpt><trkpt lat="40.70523837644109" lon="-5.622100413362986"><ele>839.0</ele><time>2026-04-19T12:42:10.998Z</time></trkpt><trkpt lat="40.70534638383466" lon="-5.622119845608846"><ele>839.0</ele><time>2026-04-19T12:42:11.998Z</time></trkpt><trkpt lat="40.70545922360554" lon="-5.622161909241996"><ele>839.0</ele><time>2026-04-19T12:42:12.998Z</time></trkpt><trkpt lat="40.70558295433167" lon="-5.622184299853565"><ele>839.0</ele><time>2026-04-19T12:42:13.998Z</time></trkpt><trkpt lat="40.705715862370035" lon="-5.622178929075613"><ele>839.0</ele><time>2026-04-19T12:42:14.998Z</time></trkpt><trkpt lat="40.70585722834635" lon="-5.622166385947024"><ele>839.0</ele><time>2026-04-19T12:42:15.998Z</time></trkpt><trkpt lat="40.70600549418907" lon="-5.622145049605313"><ele>839.0</ele><time>2026-04-19T12:42:16.998Z</time></trkpt><trkpt lat="40.706159198349035" lon="-5.622124935193361"><ele>839.0</ele><time>2026-04-19T12:42:17.998Z</time></trkpt><trkpt lat="40.706316793386044" lon="-5.6221102516043"><ele>840.3333333333334</ele><time>2026-04-19T12:42:18.998Z</time></trkpt><trkpt lat="40.706469110259434" lon="-5.622101349588955"><ele>841.6666666666667</ele><time>2026-04-19T12:42:19.998Z</time></trkpt><trkpt lat="40.70662195256743" lon="-5.622100505089"><ele>843.0</ele><time>2026-04-19T12:42:20.998Z</time></trkpt><trkpt lat="40.7067780131138" lon="-5.622095222519848"><ele>844.0</ele><time>2026-04-19T12:42:21.998Z</time></trkpt><trkpt lat="40.706938453020776" lon="-5.62209623127483"><ele>845.0</ele><time>2026-04-19T12:42:22.998Z</time></trkpt><trkpt lat="40.70709924698056" lon="-5.622099251794838"><ele>846.0</ele><time>2026-04-19T12:42:23.998Z</time></trkpt><trkpt lat="40.707263448125026" lon="-5.6221046291176275"><ele>846.0</ele><time>2026-04-19T12:42:24.998Z</time></trkpt><trkpt lat="40.70742843315247" lon="-5.622117048437928"><ele>846.0</ele><time>2026-04-19T12:42:25.998Z</time></trkpt><trkpt lat="40.70759282954408" lon="-5.622137733849931"><ele>846.0</ele><time>2026-04-19T12:42:26.998Z</time></trkpt><trkpt lat="40.70775893969796" lon="-5.622158925616132"><ele>845.3333333333333</ele><time>2026-04-19T12:42:27.998Z</time></trkpt><trkpt lat="40.70793243630038" lon="-5.622182041253728"><ele>844.6666666666666</ele><time>2026-04-19T12:42:28.998Z</time></trkpt><trkpt lat="40.70809680413669" lon="-5.622216526448081"><ele>844.0</ele><time>2026-04-19T12:42:29.998Z</time></trkpt><trkpt lat="40.708262680185854" lon="-5.622255808764211"><ele>844.0</ele><time>2026-04-19T12:42:30.998Z</time></trkpt><trkpt lat="40.708431058446166" lon="-5.622286854258342"><ele>844.0</ele><time>2026-04-19T12:42:32Z</time></trkpt><trkpt lat="40.70860194624959" lon="-5.622320769656597"><ele>844.0</ele><time>2026-04-19T12:42:33Z</time></trkpt><trkpt lat="40.70877555800694" lon="-5.622357131813659"><ele>844.3333333333333</ele><time>2026-04-19T12:42:34Z</time></trkpt><trkpt lat="40.70895294581369" lon="-5.622387858777715"><ele>844.6666666666667</ele><time>2026-04-19T12:42:35Z</time></trkpt><trkpt lat="40.70913285464088" lon="-5.622413996793187"><ele>845.0</ele><time>2026-04-19T12:42:36Z</time></trkpt><trkpt lat="40.70931727295479" lon="-5.622432835566868"><ele>844.6666666666667</ele><time>2026-04-19T12:42:37Z</time></trkpt><trkpt lat="40.70950351679084" lon="-5.62243210226216"><ele>844.3333333333333</ele><time>2026-04-19T12:42:38Z</time></trkpt><trkpt lat="40.709693543114355" lon="-5.622410559533765"><ele>844.0</ele><time>2026-04-19T12:42:39Z</time></trkpt><trkpt lat="40.70987950142245" lon="-5.622368609510433"><ele>844.0</ele><time>2026-04-19T12:42:40Z</time></trkpt><trkpt lat="40.71006584554657" lon="-5.622305505599267"><ele>844.0</ele><time>2026-04-19T12:42:41Z</time></trkpt><trkpt lat="40.71024902845213" lon="-5.622217023643198"><ele>844.0</ele><time>2026-04-19T12:42:42Z</time></trkpt><trkpt lat="40.710424585005036" lon="-5.622111089553188"><ele>843.3333333333333</ele><time>2026-04-19T12:42:43Z</time></trkpt><trkpt lat="40.71059582671648" lon="-5.621985692722009"><ele>842.6666666666667</ele><time>2026-04-19T12:42:44Z</time></trkpt><trkpt lat="40.71075692388214" lon="-5.621844106889309"><ele>842.0</ele><time>2026-04-19T12:42:45Z</time></trkpt><trkpt lat="40.710909633722316" lon="-5.621685134527981"><ele>842.0</ele><time>2026-04-19T12:42:46Z</time></trkpt><trkpt lat="40.71105152183504" lon="-5.6215096794482555"><ele>842.0</ele><time>2026-04-19T12:42:47Z</time></trkpt><trkpt lat="40.711189062700306" lon="-5.621323516275889"><ele>842.0</ele><time>2026-04-19T12:42:48Z</time></trkpt><trkpt lat="40.71133497731356" lon="-5.621135989148577"><ele>840.3333333333334</ele><time>2026-04-19T12:42:49Z</time></trkpt><trkpt lat="40.711476719463064" lon="-5.620944399257664"><ele>838.6666666666667</ele><time>2026-04-19T12:42:50Z</time></trkpt><trkpt lat="40.711619733282866" lon="-5.62075601599065"><ele>837.0</ele><time>2026-04-19T12:42:51Z</time></trkpt><trkpt lat="40.71175592840095" lon="-5.6205636384609186"><ele>837.0</ele><time>2026-04-19T12:42:52Z</time></trkpt><trkpt lat="40.71189486368193" lon="-5.620375489814142"><ele>837.0</ele><time>2026-04-19T12:42:53Z</time></trkpt><trkpt lat="40.71203472486222" lon="-5.620187192470926"><ele>837.0</ele><time>2026-04-19T12:42:54Z</time></trkpt><trkpt lat="40.712170672957775" lon="-5.61999938188882"><ele>836.3333333333333</ele><time>2026-04-19T12:42:55Z</time></trkpt><trkpt lat="40.71230373892112" lon="-5.6198155606551685"><ele>835.6666666666666</ele><time>2026-04-19T12:42:56Z</time></trkpt><trkpt lat="40.71243874749215" lon="-5.619634590187293"><ele>835.0</ele><time>2026-04-19T12:42:57Z</time></trkpt><trkpt lat="40.71256993976947" lon="-5.619447669697349"><ele>835.0</ele><time>2026-04-19T12:42:58Z</time></trkpt><trkpt lat="40.712708299715295" lon="-5.619274019122884"><ele>835.0</ele><time>2026-04-19T12:42:59Z</time></trkpt><trkpt lat="40.712848828504384" lon="-5.619100627339518"><ele>835.0</ele><time>2026-04-19T12:43:00Z</time></trkpt><trkpt lat="40.71299968282608" lon="-5.618946264203334"><ele>834.6666666666666</ele><time>2026-04-19T12:43:01Z</time></trkpt><trkpt lat="40.713160923402306" lon="-5.618815106972454"><ele>834.3333333333333</ele><time>2026-04-19T12:43:02Z</time></trkpt><trkpt lat="40.71332981453606" lon="-5.61870372983598"><ele>834.0</ele><time>2026-04-19T12:43:03Z</time></trkpt><trkpt lat="40.713507165638" lon="-5.618616281653948"><ele>833.0</ele><time>2026-04-19T12:43:04Z</time></trkpt><trkpt lat="40.71368526976094" lon="-5.6185437962089155"><ele>832.0</ele><time>2026-04-19T12:43:05Z</time></trkpt><trkpt lat="40.71386869719162" lon="-5.618494273532968"><ele>831.0</ele><time>2026-04-19T12:43:06Z</time></trkpt><trkpt lat="40.71405607845057" lon="-5.618460856052647"><ele>831.0</ele><time>2026-04-19T12:43:07Z</time></trkpt><trkpt lat="40.71424393510342" lon="-5.618443840603177"><ele>831.0</ele><time>2026-04-19T12:43:08Z</time></trkpt><trkpt lat="40.71442860894436" lon="-5.618444734143045"><ele>831.0</ele><time>2026-04-19T12:43:09Z</time></trkpt><trkpt lat="40.714611295858" lon="-5.618465606318615"><ele>830.3333333333333</ele><time>2026-04-19T12:43:10Z</time></trkpt><trkpt lat="40.71479285348959" lon="-5.618499802871943"><ele>829.6666666666666</ele><time>2026-04-19T12:43:11Z</time></trkpt><trkpt lat="40.714972207352126" lon="-5.618540532845421"><ele>829.0</ele><time>2026-04-19T12:43:12Z</time></trkpt><trkpt lat="40.71515181210124" lon="-5.6185861485472826"><ele>829.6666666666666</ele><time>2026-04-19T12:43:13Z</time></trkpt><trkpt lat="40.715332649997514" lon="-5.6186371404629565"><ele>830.3333333333333</ele><time>2026-04-19T12:43:13.999Z</time></trkpt><trkpt lat="40.71550782791575" lon="-5.618679497964202"><ele>831.0</ele><time>2026-04-19T12:43:14.999Z</time></trkpt><trkpt lat="40.71567846462756" lon="-5.618723204778229"><ele>831.0</ele><time>2026-04-19T12:43:15.999Z</time></trkpt><trkpt lat="40.71585261918904" lon="-5.618768136258625"><ele>831.0</ele><time>2026-04-19T12:43:16.999Z</time></trkpt><trkpt lat="40.716029775516674" lon="-5.618812496738873"><ele>831.0</ele><time>2026-04-19T12:43:17.999Z</time></trkpt><trkpt lat="40.71620395027482" lon="-5.618856339313139"><ele>832.3333333333333</ele><time>2026-04-19T12:43:18.999Z</time></trkpt><trkpt lat="40.71637846626367" lon="-5.618899334993886"><ele>833.6666666666666</ele><time>2026-04-19T12:43:19.999Z</time></trkpt><trkpt lat="40.716554092469195" lon="-5.618939174153625"><ele>835.0</ele><time>2026-04-19T12:43:20.999Z</time></trkpt><trkpt lat="40.716728934934785" lon="-5.618981512338944"><ele>835.0</ele><time>2026-04-19T12:43:21.999Z</time></trkpt><trkpt lat="40.71690146829667" lon="-5.619026067902115"><ele>835.0</ele><time>2026-04-19T12:43:22.999Z</time></trkpt><trkpt lat="40.717076522497905" lon="-5.6190709816721505"><ele>835.0</ele><time>2026-04-19T12:43:23.999Z</time></trkpt><trkpt lat="40.71725041368471" lon="-5.619116210238663"><ele>836.0</ele><time>2026-04-19T12:43:24.999Z</time></trkpt><trkpt lat="40.71742469636943" lon="-5.619162966058203"><ele>837.0</ele><time>2026-04-19T12:43:25.999Z</time></trkpt><trkpt lat="40.71759847857039" lon="-5.619214341713996"><ele>838.0</ele><time>2026-04-19T12:43:26.999Z</time></trkpt><trkpt lat="40.717765648917506" lon="-5.619273299782362"><ele>839.3333333333333</ele><time>2026-04-19T12:43:27.999Z</time></trkpt><trkpt lat="40.7179333226194" lon="-5.619333132460929"><ele>840.6666666666667</ele><time>2026-04-19T12:43:28.999Z</time></trkpt><trkpt lat="40.71809570698722" lon="-5.619397538610186"><ele>842.0</ele><time>2026-04-19T12:43:29.999Z</time></trkpt><trkpt lat="40.71825606579556" lon="-5.6194677245956255"><ele>843.6666666666667</ele><time>2026-04-19T12:43:30.999Z</time></trkpt><trkpt lat="40.71841588369363" lon="-5.619549179182207"><ele>845.3333333333333</ele><time>2026-04-19T12:43:31.999Z</time></trkpt><trkpt lat="40.7185755883362" lon="-5.61962484779249"><ele>847.0</ele><time>2026-04-19T12:43:32.999Z</time></trkpt><trkpt lat="40.718732449400676" lon="-5.619707598750744"><ele>848.3333333333333</ele><time>2026-04-19T12:43:33.999Z</time></trkpt><trkpt lat="40.71888244765127" lon="-5.619801960771755"><ele>849.6666666666667</ele><time>2026-04-19T12:43:34.999Z</time></trkpt><trkpt lat="40.719030010479905" lon="-5.619902098654164"><ele>851.0</ele><time>2026-04-19T12:43:35.999Z</time></trkpt><trkpt lat="40.719176274560404" lon="-5.620014337526479"><ele>851.0</ele><time>2026-04-19T12:43:36.999Z</time></trkpt><trkpt lat="40.719313778454165" lon="-5.620134871821627"><ele>851.0</ele><time>2026-04-19T12:43:37.999Z</time></trkpt><trkpt lat="40.71945052021252" lon="-5.620261333773848"><ele>851.0</ele><time>2026-04-19T12:43:38.999Z</time></trkpt><trkpt lat="40.71957814464525" lon="-5.620396766910245"><ele>851.6666666666667</ele><time>2026-04-19T12:43:39.999Z</time></trkpt><trkpt lat="40.7197011643433" lon="-5.6205354390518"><ele>852.3333333333333</ele><time>2026-04-19T12:43:40.999Z</time></trkpt><trkpt lat="40.71981896793614" lon="-5.620680485808469"><ele>853.0</ele><time>2026-04-19T12:43:41.999Z</time></trkpt><trkpt lat="40.71993793238671" lon="-5.6208254990324695"><ele>853.0</ele><time>2026-04-19T12:43:42.999Z</time></trkpt><trkpt lat="40.720044857098316" lon="-5.620981397742852"><ele>853.0</ele><time>2026-04-19T12:43:43.999Z</time></trkpt><trkpt lat="40.72015109755052" lon="-5.621141437909702"><ele>853.0</ele><time>2026-04-19T12:43:44.999Z</time></trkpt><trkpt lat="40.720251415256094" lon="-5.6213086146481706"><ele>857.0</ele><time>2026-04-19T12:43:45.999Z</time></trkpt><trkpt lat="40.72034912086672" lon="-5.621473567921848"><ele>861.0</ele><time>2026-04-19T12:43:46.999Z</time></trkpt><trkpt lat="40.720443156459396" lon="-5.6216417532391585"><ele>865.0</ele><time>2026-04-19T12:43:47.999Z</time></trkpt><trkpt lat="40.72053500338917" lon="-5.621810552455303"><ele>866.0</ele><time>2026-04-19T12:43:48.999Z</time></trkpt><trkpt lat="40.7206133203187" lon="-5.621990205940821"><ele>867.0</ele><time>2026-04-19T12:43:49.999Z</time></trkpt><trkpt lat="40.72070322755208" lon="-5.622161357930749"><ele>868.0</ele><time>2026-04-19T12:43:50.999Z</time></trkpt><trkpt lat="40.720795720541545" lon="-5.6223331657892"><ele>868.0</ele><time>2026-04-19T12:43:51.999Z</time></trkpt><trkpt lat="40.72085724476609" lon="-5.622531524911704"><ele>868.0</ele><time>2026-04-19T12:43:52.999Z</time></trkpt><trkpt lat="40.72091782007663" lon="-5.622707586645825"><ele>868.0</ele><time>2026-04-19T12:43:53.999Z</time></trkpt><trkpt lat="40.7210002906427" lon="-5.622876964528434"><ele>870.75</ele><time>2026-04-19T12:43:54.999Z</time></trkpt><trkpt lat="40.72107798480571" lon="-5.623050912118239"><ele>873.5</ele><time>2026-04-19T12:43:55.999Z</time></trkpt><trkpt lat="40.72115178541161" lon="-5.623196060867931"><ele>876.25</ele><time>2026-04-19T12:43:56.999Z</time></trkpt><trkpt lat="40.72122816241688" lon="-5.623370479370926"><ele>879.0</ele><time>2026-04-19T12:43:57.999Z</time></trkpt><trkpt lat="40.72130877204516" lon="-5.623546974873857"><ele>878.6666666666667</ele><time>2026-04-19T12:43:58.999Z</time></trkpt><trkpt lat="40.72137716528244" lon="-5.623813157325309"><ele>878.3333333333334</ele><time>2026-04-19T12:43:59.999Z</time></trkpt><trkpt lat="40.721456571667844" lon="-5.623982401889491"><ele>878.0</ele><time>2026-04-19T12:44:00.999Z</time></trkpt><trkpt lat="40.72152296129049" lon="-5.6241267535992785"><ele>878.0</ele><time>2026-04-19T12:44:01.998Z</time></trkpt><trkpt lat="40.721599860260945" lon="-5.62429556923727"><ele>878.0</ele><time>2026-04-19T12:44:02.998Z</time></trkpt><trkpt lat="40.72167315291379" lon="-5.624433918048437"><ele>878.0</ele><time>2026-04-19T12:44:03.998Z</time></trkpt><trkpt lat="40.721740697439195" lon="-5.624596823470975"><ele>878.0</ele><time>2026-04-19T12:44:04.998Z</time></trkpt><trkpt lat="40.7218161444815" lon="-5.624779860733511"><ele>877.5</ele><time>2026-04-19T12:44:05.998Z</time></trkpt><trkpt lat="40.721896623493215" lon="-5.624975224399773"><ele>877.0</ele><time>2026-04-19T12:44:06.998Z</time></trkpt><trkpt lat="40.72196180074223" lon="-5.6251317932352825"><ele>876.5</ele><time>2026-04-19T12:44:07.998Z</time></trkpt><trkpt lat="40.722022030143194" lon="-5.625276476709052"><ele>876.0</ele><time>2026-04-19T12:44:08.998Z</time></trkpt><trkpt lat="40.7220906625009" lon="-5.62539868282504"><ele>878.5</ele><time>2026-04-19T12:44:09.998Z</time></trkpt><trkpt lat="40.722149801184415" lon="-5.62554137643976"><ele>881.0</ele><time>2026-04-19T12:44:10.998Z</time></trkpt><trkpt lat="40.72221365945457" lon="-5.625725675378295"><ele>883.5</ele><time>2026-04-19T12:44:11.998Z</time></trkpt><trkpt lat="40.72227186748405" lon="-5.6258714464050525"><ele>886.0</ele><time>2026-04-19T12:44:12.998Z</time></trkpt><trkpt lat="40.72235197712381" lon="-5.626032147659895"><ele>886.0</ele><time>2026-04-19T12:44:13.998Z</time></trkpt><trkpt lat="40.722420677683296" lon="-5.626160664968012"><ele>886.0</ele><time>2026-04-19T12:44:14.998Z</time></trkpt><trkpt lat="40.7224793417284" lon="-5.6263502665068685"><ele>886.0</ele><time>2026-04-19T12:44:15.998Z</time></trkpt><trkpt lat="40.72256459133187" lon="-5.6265334520923584"><ele>886.0</ele><time>2026-04-19T12:44:16.998Z</time></trkpt><trkpt lat="40.72262196243478" lon="-5.6266642805764135"><ele>886.0</ele><time>2026-04-19T12:44:17.998Z</time></trkpt><trkpt lat="40.72272261358185" lon="-5.626812284268877"><ele>886.0</ele><time>2026-04-19T12:44:18.998Z</time></trkpt><trkpt lat="40.72281181593715" lon="-5.626956430306103"><ele>886.0</ele><time>2026-04-19T12:44:19.998Z</time></trkpt><trkpt lat="40.722906707736186" lon="-5.627099879568045"><ele>886.0</ele><time>2026-04-19T12:44:20.998Z</time></trkpt><trkpt lat="40.72300578172648" lon="-5.627237545360401"><ele>887.25</ele><time>2026-04-19T12:44:21.998Z</time></trkpt><trkpt lat="40.723109080695316" lon="-5.6273711495903695"><ele>888.5</ele><time>2026-04-19T12:44:22.998Z</time></trkpt><trkpt lat="40.723217945836694" lon="-5.6274987479861585"><ele>889.75</ele><time>2026-04-19T12:44:23.998Z</time></trkpt><trkpt lat="40.72333087363373" lon="-5.627623119126601"><ele>891.0</ele><time>2026-04-19T12:44:24.998Z</time></trkpt><trkpt lat="40.72344421652259" lon="-5.627742127107895"><ele>891.5</ele><time>2026-04-19T12:44:25.998Z</time></trkpt><trkpt lat="40.72355777132745" lon="-5.627857697396981"><ele>892.0</ele><time>2026-04-19T12:44:26.998Z</time></trkpt><trkpt lat="40.72368008170986" lon="-5.62797164689096"><ele>892.5</ele><time>2026-04-19T12:44:27.998Z</time></trkpt><trkpt lat="40.72381034506699" lon="-5.628081522978056"><ele>893.0</ele><time>2026-04-19T12:44:28.998Z</time></trkpt><trkpt lat="40.72392578781858" lon="-5.628191625470568"><ele>893.6666666666667</ele><time>2026-04-19T12:44:29.998Z</time></trkpt><trkpt lat="40.72405113892408" lon="-5.628296727674692"><ele>894.3333333333333</ele><time>2026-04-19T12:44:30.998Z</time></trkpt><trkpt lat="40.72417689678365" lon="-5.628401493717923"><ele>895.0</ele><time>2026-04-19T12:44:31.998Z</time></trkpt><trkpt lat="40.724308695039866" lon="-5.628515885102883"><ele>895.25</ele><time>2026-04-19T12:44:32.998Z</time></trkpt><trkpt lat="40.7244360360896" lon="-5.628622246486319"><ele>895.5</ele><time>2026-04-19T12:44:33.998Z</time></trkpt><trkpt lat="40.72455163138767" lon="-5.628736008003741"><ele>895.75</ele><time>2026-04-19T12:44:34.998Z</time></trkpt><trkpt lat="40.724676539306216" lon="-5.628842604333322"><ele>896.0</ele><time>2026-04-19T12:44:35.998Z</time></trkpt><trkpt lat="40.72480334214555" lon="-5.628955949137241"><ele>897.0</ele><time>2026-04-19T12:44:36.998Z</time></trkpt><trkpt lat="40.724933010403255" lon="-5.6290685418504385"><ele>898.0</ele><time>2026-04-19T12:44:38Z</time></trkpt><trkpt lat="40.725061720403346" lon="-5.629179720030287"><ele>899.0</ele><time>2026-04-19T12:44:39Z</time></trkpt><trkpt lat="40.725198911537056" lon="-5.629294069075787"><ele>899.3333333333334</ele><time>2026-04-19T12:44:40Z</time></trkpt><trkpt lat="40.72533345046239" lon="-5.629411582001629"><ele>899.6666666666667</ele><time>2026-04-19T12:44:41Z</time></trkpt><trkpt lat="40.72547305439917" lon="-5.629531353673643"><ele>900.0</ele><time>2026-04-19T12:44:42Z</time></trkpt><trkpt lat="40.7256183355682" lon="-5.629651673552335"><ele>899.0</ele><time>2026-04-19T12:44:43Z</time></trkpt><trkpt lat="40.72576475079285" lon="-5.629776683118225"><ele>898.0</ele><time>2026-04-19T12:44:44Z</time></trkpt><trkpt lat="40.725909770768816" lon="-5.629920482354468"><ele>897.0</ele><time>2026-04-19T12:44:45Z</time></trkpt><trkpt lat="40.72605725601792" lon="-5.630046207990358"><ele>897.3333333333333</ele><time>2026-04-19T12:44:46Z</time></trkpt><trkpt lat="40.726215011929526" lon="-5.630170786931383"><ele>897.6666666666666</ele><time>2026-04-19T12:44:47Z</time></trkpt><trkpt lat="40.72637197295337" lon="-5.630297906147115"><ele>898.0</ele><time>2026-04-19T12:44:48Z</time></trkpt><trkpt lat="40.72653375894205" lon="-5.630425922776581"><ele>896.6666666666666</ele><time>2026-04-19T12:44:49Z</time></trkpt><trkpt lat="40.72669693229686" lon="-5.63055583678585"><ele>895.3333333333333</ele><time>2026-04-19T12:44:50Z</time></trkpt><trkpt lat="40.72686114739038" lon="-5.630686263053618"><ele>894.0</ele><time>2026-04-19T12:44:51Z</time></trkpt><trkpt lat="40.727029068135536" lon="-5.6308198074055325"><ele>893.3333333333333</ele><time>2026-04-19T12:44:52Z</time></trkpt><trkpt lat="40.72720167942372" lon="-5.630951378880772"><ele>892.6666666666666</ele><time>2026-04-19T12:44:53Z</time></trkpt><trkpt lat="40.727378139293116" lon="-5.631078707365599"><ele>892.0</ele><time>2026-04-19T12:44:54Z</time></trkpt><trkpt lat="40.727556577952626" lon="-5.631203623769279"><ele>890.3333333333333</ele><time>2026-04-19T12:44:55Z</time></trkpt><trkpt lat="40.72774240366531" lon="-5.6313258965958575"><ele>888.6666666666667</ele><time>2026-04-19T12:44:56Z</time></trkpt><trkpt lat="40.72792503644691" lon="-5.631446563341037"><ele>887.0</ele><time>2026-04-19T12:44:57Z</time></trkpt><trkpt lat="40.728108411254894" lon="-5.63156446810828"><ele>887.0</ele><time>2026-04-19T12:44:58Z</time></trkpt><trkpt lat="40.72829419505452" lon="-5.6316734753757105"><ele>887.0</ele><time>2026-04-19T12:44:59Z</time></trkpt><trkpt lat="40.72848469671046" lon="-5.63177271045073"><ele>887.0</ele><time>2026-04-19T12:45:00Z</time></trkpt><trkpt lat="40.728677608010486" lon="-5.6318655826812405"><ele>887.3333333333334</ele><time>2026-04-19T12:45:01Z</time></trkpt><trkpt lat="40.72887257665516" lon="-5.6319559844112685"><ele>887.6666666666667</ele><time>2026-04-19T12:45:02Z</time></trkpt><trkpt lat="40.72906684821384" lon="-5.632036776782632"><ele>888.0</ele><time>2026-04-19T12:45:03Z</time></trkpt><trkpt lat="40.72926335452992" lon="-5.632107074516867"><ele>887.6666666666667</ele><time>2026-04-19T12:45:04Z</time></trkpt><trkpt lat="40.729460633698146" lon="-5.632167211710495"><ele>887.3333333333334</ele><time>2026-04-19T12:45:05Z</time></trkpt><trkpt lat="40.72965340720204" lon="-5.632217167632202"><ele>887.0</ele><time>2026-04-19T12:45:06Z</time></trkpt><trkpt lat="40.729846439145796" lon="-5.6322599250544325"><ele>887.0</ele><time>2026-04-19T12:45:07Z</time></trkpt><trkpt lat="40.73004191263991" lon="-5.632289967112159"><ele>887.0</ele><time>2026-04-19T12:45:08Z</time></trkpt><trkpt lat="40.73023683941412" lon="-5.632310460889263"><ele>887.0</ele><time>2026-04-19T12:45:09Z</time></trkpt><trkpt lat="40.73043140985723" lon="-5.632320335420272"><ele>887.3333333333334</ele><time>2026-04-19T12:45:10Z</time></trkpt><trkpt lat="40.73062402153888" lon="-5.632318524486107"><ele>887.6666666666667</ele><time>2026-04-19T12:45:11Z</time></trkpt><trkpt lat="40.730817570532615" lon="-5.63230714778642"><ele>888.0</ele><time>2026-04-19T12:45:11.999Z</time></trkpt><trkpt lat="40.73100869812664" lon="-5.632288140682254"><ele>889.3333333333333</ele><time>2026-04-19T12:45:12.999Z</time></trkpt><trkpt lat="40.73119616765816" lon="-5.632258273237789"><ele>890.6666666666666</ele><time>2026-04-19T12:45:13.999Z</time></trkpt><trkpt lat="40.73138325864262" lon="-5.6322251265490895"><ele>892.0</ele><time>2026-04-19T12:45:14.999Z</time></trkpt><trkpt lat="40.731563731528894" lon="-5.632177819475885"><ele>892.0</ele><time>2026-04-19T12:45:15.999Z</time></trkpt><trkpt lat="40.73174739043996" lon="-5.632125309122309"><ele>892.0</ele><time>2026-04-19T12:45:16.999Z</time></trkpt><trkpt lat="40.7319239018235" lon="-5.632066250291639"><ele>892.0</ele><time>2026-04-19T12:45:17.999Z</time></trkpt><trkpt lat="40.732098246370846" lon="-5.631997838808863"><ele>895.0</ele><time>2026-04-19T12:45:18.999Z</time></trkpt><trkpt lat="40.732270219804974" lon="-5.63192141268352"><ele>898.0</ele><time>2026-04-19T12:45:19.999Z</time></trkpt><trkpt lat="40.7324407618772" lon="-5.631840679580359"><ele>901.0</ele><time>2026-04-19T12:45:20.999Z</time></trkpt><trkpt lat="40.73260591067891" lon="-5.63174924623548"><ele>900.6666666666666</ele><time>2026-04-19T12:45:21.999Z</time></trkpt><trkpt lat="40.73276642726861" lon="-5.631652185452816"><ele>900.3333333333333</ele><time>2026-04-19T12:45:22.999Z</time></trkpt><trkpt lat="40.732927004512305" lon="-5.631547033211615"><ele>900.0</ele><time>2026-04-19T12:45:23.999Z</time></trkpt><trkpt lat="40.7330847633948" lon="-5.631439462436193"><ele>900.0</ele><time>2026-04-19T12:45:24.999Z</time></trkpt><trkpt lat="40.73324065772761" lon="-5.631325133168473"><ele>900.0</ele><time>2026-04-19T12:45:25.999Z</time></trkpt><trkpt lat="40.733391488498064" lon="-5.6312034584201935"><ele>900.0</ele><time>2026-04-19T12:45:26.999Z</time></trkpt><trkpt lat="40.73354454345016" lon="-5.631077352166623"><ele>900.6666666666667</ele><time>2026-04-19T12:45:27.999Z</time></trkpt><trkpt lat="40.73370168691748" lon="-5.630949184336866"><ele>901.3333333333334</ele><time>2026-04-19T12:45:28.999Z</time></trkpt><trkpt lat="40.733860067796776" lon="-5.630821438866605"><ele>902.0</ele><time>2026-04-19T12:45:29.999Z</time></trkpt><trkpt lat="40.73401951076116" lon="-5.630682620095779"><ele>902.0</ele><time>2026-04-19T12:45:30.999Z</time></trkpt><trkpt lat="40.734174998601326" lon="-5.630540572196118"><ele>902.0</ele><time>2026-04-19T12:45:31.999Z</time></trkpt><trkpt lat="40.7343242037538" lon="-5.630392272388422"><ele>902.0</ele><time>2026-04-19T12:45:32.999Z</time></trkpt><trkpt lat="40.734476123558224" lon="-5.630243646092473"><ele>903.6666666666667</ele><time>2026-04-19T12:45:33.999Z</time></trkpt><trkpt lat="40.734626472690834" lon="-5.630099180887501"><ele>905.3333333333333</ele><time>2026-04-19T12:45:34.999Z</time></trkpt><trkpt lat="40.73477515815856" lon="-5.6299532984845"><ele>907.0</ele><time>2026-04-19T12:45:35.999Z</time></trkpt><trkpt lat="40.73492029662954" lon="-5.629809846813002"><ele>907.0</ele><time>2026-04-19T12:45:36.999Z</time></trkpt><trkpt lat="40.73506648201402" lon="-5.629660218849636"><ele>907.0</ele><time>2026-04-19T12:45:37.999Z</time></trkpt><trkpt lat="40.735219962947966" lon="-5.629503514432388"><ele>907.0</ele><time>2026-04-19T12:45:38.999Z</time></trkpt><trkpt lat="40.73537278390805" lon="-5.629354803132775"><ele>906.0</ele><time>2026-04-19T12:45:39.999Z</time></trkpt><trkpt lat="40.73552942168884" lon="-5.629208205223066"><ele>905.0</ele><time>2026-04-19T12:45:40.999Z</time></trkpt><trkpt lat="40.73569068674502" lon="-5.629064083257052"><ele>904.0</ele><time>2026-04-19T12:45:41.999Z</time></trkpt><trkpt lat="40.73585664735624" lon="-5.628918849702237"><ele>904.0</ele><time>2026-04-19T12:45:42.999Z</time></trkpt><trkpt lat="40.7360246257794" lon="-5.628770222170333"><ele>904.0</ele><time>2026-04-19T12:45:43.999Z</time></trkpt><trkpt lat="40.73619877576911" lon="-5.6286305792420395"><ele>904.0</ele><time>2026-04-19T12:45:44.999Z</time></trkpt><trkpt lat="40.73637763458794" lon="-5.62849567379721"><ele>901.6666666666666</ele><time>2026-04-19T12:45:45.999Z</time></trkpt><trkpt lat="40.73656392002476" lon="-5.6283664845154835"><ele>899.3333333333333</ele><time>2026-04-19T12:45:46.999Z</time></trkpt><trkpt lat="40.73675166364294" lon="-5.628248757574107"><ele>897.0</ele><time>2026-04-19T12:45:47.999Z</time></trkpt><trkpt lat="40.73694338440181" lon="-5.6281376537491745"><ele>895.3333333333333</ele><time>2026-04-19T12:45:48.999Z</time></trkpt><trkpt lat="40.73714098884083" lon="-5.628039104892912"><ele>893.6666666666666</ele><time>2026-04-19T12:45:49.999Z</time></trkpt><trkpt lat="40.73734309685495" lon="-5.6279492394339155"><ele>892.0</ele><time>2026-04-19T12:45:50.999Z</time></trkpt><trkpt lat="40.737543018931525" lon="-5.627883757218035"><ele>890.0</ele><time>2026-04-19T12:45:51.999Z</time></trkpt><trkpt lat="40.7377538211397" lon="-5.627824789014041"><ele>888.0</ele><time>2026-04-19T12:45:52.999Z</time></trkpt><trkpt lat="40.737966950745246" lon="-5.627775495342038"><ele>886.0</ele><time>2026-04-19T12:45:53.999Z</time></trkpt><trkpt lat="40.73818977115681" lon="-5.627736556505014"><ele>886.0</ele><time>2026-04-19T12:45:54.999Z</time></trkpt><trkpt lat="40.738410314317235" lon="-5.627707609129081"><ele>886.0</ele><time>2026-04-19T12:45:55.999Z</time></trkpt><trkpt lat="40.73863371684275" lon="-5.627680266031882"><ele>886.0</ele><time>2026-04-19T12:45:56.999Z</time></trkpt><trkpt lat="40.73885697078096" lon="-5.6276608244908335"><ele>884.0</ele><time>2026-04-19T12:45:57.999Z</time></trkpt><trkpt lat="40.739079553540094" lon="-5.627640047425837"><ele>882.0</ele><time>2026-04-19T12:45:58.999Z</time></trkpt><trkpt lat="40.739305879165926" lon="-5.627620160591797"><ele>880.5</ele><time>2026-04-19T12:45:59.999Z</time></trkpt><trkpt lat="40.73953327077856" lon="-5.627597689671434"><ele>879.0</ele><time>2026-04-19T12:46:00.999Z</time></trkpt><trkpt lat="40.73975913871252" lon="-5.6275837917361535"><ele>879.0</ele><time>2026-04-19T12:46:01.998Z</time></trkpt><trkpt lat="40.739984219373156" lon="-5.627568346172636"><ele>879.0</ele><time>2026-04-19T12:46:02.998Z</time></trkpt><trkpt lat="40.74020813204485" lon="-5.6275525285993675"><ele>879.0</ele><time>2026-04-19T12:46:03.998Z</time></trkpt><trkpt lat="40.74042737568942" lon="-5.627538834449799"><ele>879.0</ele><time>2026-04-19T12:46:04.998Z</time></trkpt><trkpt lat="40.740642203610896" lon="-5.627525695186025"><ele>879.0</ele><time>2026-04-19T12:46:05.998Z</time></trkpt><trkpt lat="40.74085587455338" lon="-5.627511047404665"><ele>879.0</ele><time>2026-04-19T12:46:06.998Z</time></trkpt><trkpt lat="40.741063553720984" lon="-5.627496794413298"><ele>879.0</ele><time>2026-04-19T12:46:07.998Z</time></trkpt><trkpt lat="40.7412706978828" lon="-5.627481491112069"><ele>879.0</ele><time>2026-04-19T12:46:08.998Z</time></trkpt><trkpt lat="40.741475427196605" lon="-5.627467439476611"><ele>879.0</ele><time>2026-04-19T12:46:09.998Z</time></trkpt><trkpt lat="40.74167872505737" lon="-5.6274530799067435"><ele>879.0</ele><time>2026-04-19T12:46:10.998Z</time></trkpt><trkpt lat="40.74187806774178" lon="-5.627438186514481"><ele>879.0</ele><time>2026-04-19T12:46:11.998Z</time></trkpt><trkpt lat="40.74207749750923" lon="-5.627423628843858"><ele>879.3333333333333</ele><time>2026-04-19T12:46:12.998Z</time></trkpt><trkpt lat="40.74227845882774" lon="-5.627406345191109"><ele>879.6666666666666</ele><time>2026-04-19T12:46:13.998Z</time></trkpt><trkpt lat="40.74247426379741" lon="-5.627391250041214"><ele>880.0</ele><time>2026-04-19T12:46:14.998Z</time></trkpt><trkpt lat="40.7426654280438" lon="-5.627377996628171"><ele>879.0</ele><time>2026-04-19T12:46:15.998Z</time></trkpt><trkpt lat="40.7428586829545" lon="-5.627365528354682"><ele>878.0</ele><time>2026-04-19T12:46:16.998Z</time></trkpt><trkpt lat="40.74305218500361" lon="-5.627349097961756"><ele>877.0</ele><time>2026-04-19T12:46:17.998Z</time></trkpt><trkpt lat="40.743243617361664" lon="-5.62733477430001"><ele>877.0</ele><time>2026-04-19T12:46:18.998Z</time></trkpt><trkpt lat="40.74343708670324" lon="-5.627320301649948"><ele>877.0</ele><time>2026-04-19T12:46:19.998Z</time></trkpt><trkpt lat="40.74362886198191" lon="-5.627305710928905"><ele>877.0</ele><time>2026-04-19T12:46:20.998Z</time></trkpt><trkpt lat="40.743822638219946" lon="-5.627289212921478"><ele>875.6666666666666</ele><time>2026-04-19T12:46:21.998Z</time></trkpt><trkpt lat="40.744022795819916" lon="-5.627277056281224"><ele>874.3333333333333</ele><time>2026-04-19T12:46:22.998Z</time></trkpt><trkpt lat="40.744226965960266" lon="-5.627263414406586"><ele>873.0</ele><time>2026-04-19T12:46:23.998Z</time></trkpt><trkpt lat="40.74443131290381" lon="-5.627245473538193"><ele>873.0</ele><time>2026-04-19T12:46:24.998Z</time></trkpt><trkpt lat="40.74463230969853" lon="-5.627234385765801"><ele>873.0</ele><time>2026-04-19T12:46:25.998Z</time></trkpt><trkpt lat="40.74483016304461" lon="-5.627217327544723"><ele>873.0</ele><time>2026-04-19T12:46:26.998Z</time></trkpt><trkpt lat="40.74502430857905" lon="-5.6272023844502925"><ele>874.3333333333333</ele><time>2026-04-19T12:46:27.998Z</time></trkpt><trkpt lat="40.74521550964631" lon="-5.627191108233449"><ele>875.6666666666666</ele><time>2026-04-19T12:46:28.998Z</time></trkpt><trkpt lat="40.74540516032566" lon="-5.627177304889551"><ele>877.0</ele><time>2026-04-19T12:46:29.998Z</time></trkpt><trkpt lat="40.745589757850084" lon="-5.627162327202939"><ele>877.0</ele><time>2026-04-19T12:46:30.998Z</time></trkpt><trkpt lat="40.745773243042116" lon="-5.627149927254901"><ele>877.0</ele><time>2026-04-19T12:46:31.998Z</time></trkpt><trkpt lat="40.74595303509655" lon="-5.6271403916859155"><ele>877.0</ele><time>2026-04-19T12:46:32.998Z</time></trkpt><trkpt lat="40.74613481777659" lon="-5.62712538789522"><ele>877.6666666666666</ele><time>2026-04-19T12:46:33.998Z</time></trkpt><trkpt lat="40.74631874233502" lon="-5.627109894982195"><ele>878.3333333333333</ele><time>2026-04-19T12:46:34.998Z</time></trkpt><trkpt lat="40.74650436105647" lon="-5.6270963470806965"><ele>879.0</ele><time>2026-04-19T12:46:35.998Z</time></trkpt><trkpt lat="40.74668563283309" lon="-5.627083232255947"><ele>879.0</ele><time>2026-04-19T12:46:36.998Z</time></trkpt><trkpt lat="40.74686216581281" lon="-5.627072000629157"><ele>879.0</ele><time>2026-04-19T12:46:37.998Z</time></trkpt><trkpt lat="40.74703141217645" lon="-5.627064423268447"><ele>879.0</ele><time>2026-04-19T12:46:38.998Z</time></trkpt><trkpt lat="40.7471991730981" lon="-5.627059623838041"><ele>878.6666666666667</ele><time>2026-04-19T12:46:39.998Z</time></trkpt><trkpt lat="40.7473653708534" lon="-5.62705849735207"><ele>878.3333333333334</ele><time>2026-04-19T12:46:40.998Z</time></trkpt><trkpt lat="40.747528417707734" lon="-5.627063334423666"><ele>878.0</ele><time>2026-04-19T12:46:41.998Z</time></trkpt><trkpt lat="40.74768758620449" lon="-5.627080629277763"><ele>879.0</ele><time>2026-04-19T12:46:42.998Z</time></trkpt><trkpt lat="40.74784767661764" lon="-5.627102282622756"><ele>880.0</ele><time>2026-04-19T12:46:44Z</time></trkpt><trkpt lat="40.74800818515168" lon="-5.627130129096309"><ele>881.0</ele><time>2026-04-19T12:46:45Z</time></trkpt><trkpt lat="40.74816877752262" lon="-5.627166223496121"><ele>881.0</ele><time>2026-04-19T12:46:46Z</time></trkpt><trkpt lat="40.74832795823553" lon="-5.627205323279452"><ele>881.0</ele><time>2026-04-19T12:46:47Z</time></trkpt><trkpt lat="40.74849341266274" lon="-5.627246937585645"><ele>881.0</ele><time>2026-04-19T12:46:48Z</time></trkpt><trkpt lat="40.748653968243374" lon="-5.627275179310317"><ele>881.0</ele><time>2026-04-19T12:46:49Z</time></trkpt><trkpt lat="40.7488142611689" lon="-5.62729464574681"><ele>881.0</ele><time>2026-04-19T12:46:50Z</time></trkpt><trkpt lat="40.748972928596324" lon="-5.62730567508496"><ele>881.0</ele><time>2026-04-19T12:46:51Z</time></trkpt><trkpt lat="40.74913993989675" lon="-5.627307347593803"><ele>881.0</ele><time>2026-04-19T12:46:52Z</time></trkpt><trkpt lat="40.74930366596199" lon="-5.627293190545674"><ele>881.0</ele><time>2026-04-19T12:46:53Z</time></trkpt><trkpt lat="40.74946884595286" lon="-5.62727549217441"><ele>881.0</ele><time>2026-04-19T12:46:54Z</time></trkpt><trkpt lat="40.74963727314572" lon="-5.627260891799563"><ele>881.0</ele><time>2026-04-19T12:46:55Z</time></trkpt><trkpt lat="40.7498087712087" lon="-5.627247072940456"><ele>881.0</ele><time>2026-04-19T12:46:56Z</time></trkpt><trkpt lat="40.74997604237991" lon="-5.627237160349604"><ele>881.0</ele><time>2026-04-19T12:46:57Z</time></trkpt><trkpt lat="40.75014748386249" lon="-5.627224812723043"><ele>882.0</ele><time>2026-04-19T12:46:58Z</time></trkpt><trkpt lat="40.75031412206399" lon="-5.627216840339029"><ele>883.0</ele><time>2026-04-19T12:46:59Z</time></trkpt><trkpt lat="40.75048569365292" lon="-5.627201649056864"><ele>884.0</ele><time>2026-04-19T12:47:00Z</time></trkpt><trkpt lat="40.750660796321654" lon="-5.627190886232191"><ele>884.0</ele><time>2026-04-19T12:47:01Z</time></trkpt><trkpt lat="40.750835094608846" lon="-5.627181173150617"><ele>884.0</ele><time>2026-04-19T12:47:02Z</time></trkpt><trkpt lat="40.75101300382724" lon="-5.627183690576306"><ele>884.0</ele><time>2026-04-19T12:47:03Z</time></trkpt><trkpt lat="40.751188177877225" lon="-5.627197259796489"><ele>884.3333333333334</ele><time>2026-04-19T12:47:04Z</time></trkpt><trkpt lat="40.75135826486914" lon="-5.627230483901903"><ele>884.6666666666667</ele><time>2026-04-19T12:47:05Z</time></trkpt><trkpt lat="40.751528505069665" lon="-5.6272769827894535"><ele>885.0</ele><time>2026-04-19T12:47:06Z</time></trkpt><trkpt lat="40.7516932312601" lon="-5.627339653683765"><ele>885.0</ele><time>2026-04-19T12:47:07Z</time></trkpt><trkpt lat="40.75185520756647" lon="-5.627418486489646"><ele>885.0</ele><time>2026-04-19T12:47:08Z</time></trkpt><trkpt lat="40.7520124129313" lon="-5.627512582199047"><ele>885.0</ele><time>2026-04-19T12:47:09Z</time></trkpt><trkpt lat="40.752160908318245" lon="-5.627615952464757"><ele>886.0</ele><time>2026-04-19T12:47:10Z</time></trkpt><trkpt lat="40.752313825712406" lon="-5.627718116974393"><ele>887.0</ele><time>2026-04-19T12:47:11Z</time></trkpt><trkpt lat="40.75246446567795" lon="-5.627822622333114"><ele>888.0</ele><time>2026-04-19T12:47:12Z</time></trkpt><trkpt lat="40.752613009502866" lon="-5.627929375488924"><ele>889.0</ele><time>2026-04-19T12:47:13Z</time></trkpt><trkpt lat="40.752764720151255" lon="-5.628033467615242"><ele>890.0</ele><time>2026-04-19T12:47:14Z</time></trkpt><trkpt lat="40.752914078756056" lon="-5.628136775155127"><ele>891.0</ele><time>2026-04-19T12:47:15Z</time></trkpt><trkpt lat="40.75306675162024" lon="-5.628237778044063"><ele>891.0</ele><time>2026-04-19T12:47:16Z</time></trkpt><trkpt lat="40.75322116040491" lon="-5.6283325520810665"><ele>891.0</ele><time>2026-04-19T12:47:17Z</time></trkpt><trkpt lat="40.753374707043044" lon="-5.628424294866318"><ele>891.0</ele><time>2026-04-19T12:47:17.999Z</time></trkpt><trkpt lat="40.75352489189559" lon="-5.628510744529575"><ele>891.3333333333333</ele><time>2026-04-19T12:47:18.999Z</time></trkpt><trkpt lat="40.753681963652504" lon="-5.628591510679467"><ele>891.6666666666666</ele><time>2026-04-19T12:47:19.999Z</time></trkpt><trkpt lat="40.75384445253071" lon="-5.628662103249023"><ele>892.0</ele><time>2026-04-19T12:47:20.999Z</time></trkpt><trkpt lat="40.754009084693365" lon="-5.62873039734201"><ele>892.0</ele><time>2026-04-19T12:47:21.999Z</time></trkpt><trkpt lat="40.754176313262676" lon="-5.628790355526317"><ele>892.0</ele><time>2026-04-19T12:47:22.999Z</time></trkpt><trkpt lat="40.754342828815" lon="-5.628847522833712"><ele>892.0</ele><time>2026-04-19T12:47:23.999Z</time></trkpt><trkpt lat="40.75451182408095" lon="-5.628908460611549"><ele>893.0</ele><time>2026-04-19T12:47:24.999Z</time></trkpt><trkpt lat="40.754684637415146" lon="-5.628967489330936"><ele>894.0</ele><time>2026-04-19T12:47:25.999Z</time></trkpt><trkpt lat="40.754860462016204" lon="-5.629021912007148"><ele>895.0</ele><time>2026-04-19T12:47:26.999Z</time></trkpt><trkpt lat="40.7550379257409" lon="-5.629069395675067"><ele>897.0</ele><time>2026-04-19T12:47:27.999Z</time></trkpt><trkpt lat="40.75521309848052" lon="-5.629106183884487"><ele>899.0</ele><time>2026-04-19T12:47:28.999Z</time></trkpt><trkpt lat="40.75538875588507" lon="-5.629139184435139"><ele>901.0</ele><time>2026-04-19T12:47:29.999Z</time></trkpt><trkpt lat="40.755564979639644" lon="-5.629167944178758"><ele>901.0</ele><time>2026-04-19T12:47:30.999Z</time></trkpt><trkpt lat="40.755743406584166" lon="-5.629191873447866"><ele>901.0</ele><time>2026-04-19T12:47:31.999Z</time></trkpt><trkpt lat="40.755922158422095" lon="-5.629210742072204"><ele>901.0</ele><time>2026-04-19T12:47:32.999Z</time></trkpt><trkpt lat="40.756099672059634" lon="-5.629226086668623"><ele>902.3333333333333</ele><time>2026-04-19T12:47:33.999Z</time></trkpt><trkpt lat="40.75627888272551" lon="-5.629236056745611"><ele>903.6666666666667</ele><time>2026-04-19T12:47:34.999Z</time></trkpt><trkpt lat="40.75645595644785" lon="-5.629238065636584"><ele>905.0</ele><time>2026-04-19T12:47:35.999Z</time></trkpt><trkpt lat="40.75663033091195" lon="-5.62923448078432"><ele>905.0</ele><time>2026-04-19T12:47:36.999Z</time></trkpt><trkpt lat="40.75681302761121" lon="-5.629220191271875"><ele>905.0</ele><time>2026-04-19T12:47:37.999Z</time></trkpt><trkpt lat="40.75699359668068" lon="-5.629198332620065"><ele>905.0</ele><time>2026-04-19T12:47:38.999Z</time></trkpt><trkpt lat="40.75717251136899" lon="-5.629173459656777"><ele>905.6666666666667</ele><time>2026-04-19T12:47:39.999Z</time></trkpt><trkpt lat="40.757352895621075" lon="-5.629139167980454"><ele>906.3333333333333</ele><time>2026-04-19T12:47:40.999Z</time></trkpt><trkpt lat="40.75753000465002" lon="-5.629108827651924"><ele>907.0</ele><time>2026-04-19T12:47:41.999Z</time></trkpt><trkpt lat="40.7577107013956" lon="-5.629071339649058"><ele>908.0</ele><time>2026-04-19T12:47:42.999Z</time></trkpt><trkpt lat="40.757889662883215" lon="-5.6290315002982485"><ele>909.0</ele><time>2026-04-19T12:47:43.999Z</time></trkpt><trkpt lat="40.75805985637913" lon="-5.628986282301674"><ele>910.0</ele><time>2026-04-19T12:47:44.999Z</time></trkpt><trkpt lat="40.758236815898364" lon="-5.628935911836913"><ele>910.0</ele><time>2026-04-19T12:47:45.999Z</time></trkpt><trkpt lat="40.7584103063973" lon="-5.6288857922817055"><ele>910.0</ele><time>2026-04-19T12:47:46.999Z</time></trkpt><trkpt lat="40.75857932670848" lon="-5.628832601052707"><ele>910.0</ele><time>2026-04-19T12:47:47.999Z</time></trkpt><trkpt lat="40.758743860001005" lon="-5.628773076618178"><ele>910.6666666666666</ele><time>2026-04-19T12:47:48.999Z</time></trkpt><trkpt lat="40.75890963916314" lon="-5.62871292132635"><ele>911.3333333333333</ele><time>2026-04-19T12:47:49.999Z</time></trkpt><trkpt lat="40.759073773334265" lon="-5.628652173425684"><ele>912.0</ele><time>2026-04-19T12:47:50.999Z</time></trkpt><trkpt lat="40.75923926266241" lon="-5.62859468964689"><ele>914.3333333333333</ele><time>2026-04-19T12:47:51.999Z</time></trkpt><trkpt lat="40.75940121084128" lon="-5.628533521542146"><ele>916.6666666666666</ele><time>2026-04-19T12:47:52.999Z</time></trkpt><trkpt lat="40.75956374300611" lon="-5.628475791232552"><ele>919.0</ele><time>2026-04-19T12:47:53.999Z</time></trkpt><trkpt lat="40.759728500339314" lon="-5.628416662761069"><ele>919.0</ele><time>2026-04-19T12:47:54.999Z</time></trkpt><trkpt lat="40.75989737464226" lon="-5.62835781787478"><ele>919.0</ele><time>2026-04-19T12:47:55.999Z</time></trkpt><trkpt lat="40.76007011969886" lon="-5.628295020761932"><ele>919.0</ele><time>2026-04-19T12:47:56.999Z</time></trkpt><trkpt lat="40.76024213647828" lon="-5.628233259391526"><ele>919.0</ele><time>2026-04-19T12:47:57.999Z</time></trkpt><trkpt lat="40.76041571109679" lon="-5.628169587534818"><ele>919.0</ele><time>2026-04-19T12:47:58.999Z</time></trkpt><trkpt lat="40.76058825319081" lon="-5.628103567814279"><ele>919.0</ele><time>2026-04-19T12:47:59.999Z</time></trkpt><trkpt lat="40.76076114087318" lon="-5.6280397288440875"><ele>919.0</ele><time>2026-04-19T12:48:00.999Z</time></trkpt><trkpt lat="40.7609301355922" lon="-5.627979736753971"><ele>919.0</ele><time>2026-04-19T12:48:01.999Z</time></trkpt><trkpt lat="40.76109636652671" lon="-5.627917867559495"><ele>919.0</ele><time>2026-04-19T12:48:02.999Z</time></trkpt><trkpt lat="40.761260766425" lon="-5.627854701209208"><ele>921.3333333333333</ele><time>2026-04-19T12:48:03.999Z</time></trkpt><trkpt lat="40.76142357032988" lon="-5.627790589412034"><ele>923.6666666666667</ele><time>2026-04-19T12:48:04.999Z</time></trkpt><trkpt lat="40.76158725826203" lon="-5.627730277882572"><ele>926.0</ele><time>2026-04-19T12:48:05.999Z</time></trkpt><trkpt lat="40.761746473204106" lon="-5.627673581971199"><ele>927.0</ele><time>2026-04-19T12:48:06.999Z</time></trkpt><trkpt lat="40.76190624712504" lon="-5.62761258322435"><ele>928.0</ele><time>2026-04-19T12:48:07.999Z</time></trkpt><trkpt lat="40.76206570172029" lon="-5.627552023796692"><ele>929.0</ele><time>2026-04-19T12:48:08.998Z</time></trkpt><trkpt lat="40.76222223449091" lon="-5.627495347155396"><ele>929.0</ele><time>2026-04-19T12:48:09.998Z</time></trkpt><trkpt lat="40.762380502460246" lon="-5.6274387639347685"><ele>929.0</ele><time>2026-04-19T12:48:10.998Z</time></trkpt><trkpt lat="40.762534791798295" lon="-5.627385701683428"><ele>929.0</ele><time>2026-04-19T12:48:11.998Z</time></trkpt><trkpt lat="40.76269208558745" lon="-5.627329225318662"><ele>929.3333333333334</ele><time>2026-04-19T12:48:12.998Z</time></trkpt><trkpt lat="40.76284775774179" lon="-5.6272691772601595"><ele>929.6666666666667</ele><time>2026-04-19T12:48:13.998Z</time></trkpt><trkpt lat="40.7629976128148" lon="-5.627192300469051"><ele>930.0</ele><time>2026-04-19T12:48:14.998Z</time></trkpt><trkpt lat="40.76315703033609" lon="-5.627139829791605"><ele>930.0</ele><time>2026-04-19T12:48:15.998Z</time></trkpt><trkpt lat="40.763323130352006" lon="-5.627077187153232"><ele>930.0</ele><time>2026-04-19T12:48:16.998Z</time></trkpt><trkpt lat="40.76348728285534" lon="-5.6270207664336525"><ele>930.0</ele><time>2026-04-19T12:48:17.998Z</time></trkpt><trkpt lat="40.76363864932889" lon="-5.626967517441"><ele>934.0</ele><time>2026-04-19T12:48:18.998Z</time></trkpt><trkpt lat="40.76379162796595" lon="-5.626913362883886"><ele>938.0</ele><time>2026-04-19T12:48:19.998Z</time></trkpt><trkpt lat="40.76394484141475" lon="-5.626855951805992"><ele>942.0</ele><time>2026-04-19T12:48:20.998Z</time></trkpt><trkpt lat="40.76409947603661" lon="-5.626800304434582"><ele>942.0</ele><time>2026-04-19T12:48:21.998Z</time></trkpt><trkpt lat="40.76425398511126" lon="-5.626744638950413"><ele>942.0</ele><time>2026-04-19T12:48:22.998Z</time></trkpt><trkpt lat="40.76441319729957" lon="-5.6266841667999135"><ele>942.0</ele><time>2026-04-19T12:48:23.998Z</time></trkpt><trkpt lat="40.76458383088963" lon="-5.6266280365237336"><ele>941.0</ele><time>2026-04-19T12:48:24.998Z</time></trkpt><trkpt lat="40.76475121926462" lon="-5.626570110574595"><ele>940.0</ele><time>2026-04-19T12:48:25.998Z</time></trkpt><trkpt lat="40.7649062993135" lon="-5.626507744622722"><ele>939.0</ele><time>2026-04-19T12:48:26.998Z</time></trkpt><trkpt lat="40.765064278285514" lon="-5.626445539016895"><ele>939.0</ele><time>2026-04-19T12:48:27.998Z</time></trkpt><trkpt lat="40.7652229956436" lon="-5.626387584949967"><ele>939.0</ele><time>2026-04-19T12:48:28.998Z</time></trkpt><trkpt lat="40.7653805430763" lon="-5.626326290000917"><ele>939.0</ele><time>2026-04-19T12:48:29.998Z</time></trkpt><trkpt lat="40.76554175694151" lon="-5.626265972075004"><ele>939.0</ele><time>2026-04-19T12:48:30.998Z</time></trkpt><trkpt lat="40.765701407219886" lon="-5.626207949409459"><ele>939.0</ele><time>2026-04-19T12:48:31.998Z</time></trkpt><trkpt lat="40.76586574138759" lon="-5.626147730131138"><ele>939.0</ele><time>2026-04-19T12:48:32.998Z</time></trkpt><trkpt lat="40.76602871337998" lon="-5.626095499204412"><ele>940.3333333333333</ele><time>2026-04-19T12:48:33.998Z</time></trkpt><trkpt lat="40.766192173718125" lon="-5.62603814359192"><ele>941.6666666666666</ele><time>2026-04-19T12:48:34.998Z</time></trkpt><trkpt lat="40.76635631458352" lon="-5.625979601385558"><ele>943.0</ele><time>2026-04-19T12:48:35.998Z</time></trkpt><trkpt lat="40.766517629094636" lon="-5.625918902221125"><ele>943.0</ele><time>2026-04-19T12:48:36.998Z</time></trkpt><trkpt lat="40.76668254385061" lon="-5.625861898495262"><ele>943.0</ele><time>2026-04-19T12:48:37.998Z</time></trkpt><trkpt lat="40.76684539212433" lon="-5.625798752461688"><ele>943.0</ele><time>2026-04-19T12:48:38.998Z</time></trkpt><trkpt lat="40.767010890915905" lon="-5.625736452588768"><ele>944.0</ele><time>2026-04-19T12:48:39.998Z</time></trkpt><trkpt lat="40.76717519734415" lon="-5.625675724930714"><ele>945.0</ele><time>2026-04-19T12:48:40.998Z</time></trkpt><trkpt lat="40.767338657559826" lon="-5.625615612608709"><ele>946.0</ele><time>2026-04-19T12:48:41.998Z</time></trkpt><trkpt lat="40.76749943991397" lon="-5.625555443700396"><ele>946.0</ele><time>2026-04-19T12:48:42.998Z</time></trkpt><trkpt lat="40.76765932868739" lon="-5.625497640930583"><ele>946.0</ele><time>2026-04-19T12:48:43.998Z</time></trkpt><trkpt lat="40.76781957949892" lon="-5.625439597142221"><ele>946.0</ele><time>2026-04-19T12:48:44.998Z</time></trkpt><trkpt lat="40.76797732947029" lon="-5.625386397777151"><ele>947.3333333333333</ele><time>2026-04-19T12:48:45.998Z</time></trkpt><trkpt lat="40.7681324963241" lon="-5.62534027547956"><ele>948.6666666666667</ele><time>2026-04-19T12:48:46.998Z</time></trkpt><trkpt lat="40.76828751608675" lon="-5.62530124766069"><ele>950.0</ele><time>2026-04-19T12:48:47.998Z</time></trkpt><trkpt lat="40.76844101186278" lon="-5.625270597743714"><ele>952.3333333333334</ele><time>2026-04-19T12:48:48.998Z</time></trkpt><trkpt lat="40.768595203993904" lon="-5.6252468391933945"><ele>954.6666666666667</ele><time>2026-04-19T12:48:50Z</time></trkpt><trkpt lat="40.76874390511701" lon="-5.62522282364516"><ele>957.0</ele><time>2026-04-19T12:48:51Z</time></trkpt><trkpt lat="40.76889332647633" lon="-5.625207858994854"><ele>957.0</ele><time>2026-04-19T12:48:52Z</time></trkpt><trkpt lat="40.7690450989192" lon="-5.625197243079743"><ele>957.0</ele><time>2026-04-19T12:48:53Z</time></trkpt><trkpt lat="40.769196138296316" lon="-5.625182173513848"><ele>957.0</ele><time>2026-04-19T12:48:54Z</time></trkpt><trkpt lat="40.76934966764602" lon="-5.625179131058086"><ele>958.0</ele><time>2026-04-19T12:48:55Z</time></trkpt><trkpt lat="40.76950883635264" lon="-5.625170784602778"><ele>959.0</ele><time>2026-04-19T12:48:56Z</time></trkpt><trkpt lat="40.76966770475551" lon="-5.6251677257971995"><ele>960.0</ele><time>2026-04-19T12:48:57Z</time></trkpt><trkpt lat="40.76982391910842" lon="-5.6251662145682895"><ele>960.0</ele><time>2026-04-19T12:48:58Z</time></trkpt><trkpt lat="40.76997786766806" lon="-5.625191623827185"><ele>960.0</ele><time>2026-04-19T12:48:59Z</time></trkpt><trkpt lat="40.770136565466494" lon="-5.625214304613831"><ele>960.0</ele><time>2026-04-19T12:49:00Z</time></trkpt><trkpt lat="40.77029840376808" lon="-5.62524130818884"><ele>959.3333333333333</ele><time>2026-04-19T12:49:01Z</time></trkpt><trkpt lat="40.77045879030543" lon="-5.625279647497443"><ele>958.6666666666666</ele><time>2026-04-19T12:49:02Z</time></trkpt><trkpt lat="40.77062096087362" lon="-5.625319481471302"><ele>958.0</ele><time>2026-04-19T12:49:03Z</time></trkpt><trkpt lat="40.770783552919546" lon="-5.625361087125396"><ele>958.6666666666666</ele><time>2026-04-19T12:49:04Z</time></trkpt><trkpt lat="40.770949486277836" lon="-5.625412432874931"><ele>959.3333333333333</ele><time>2026-04-19T12:49:05Z</time></trkpt><trkpt lat="40.77111810745103" lon="-5.62546508047535"><ele>960.0</ele><time>2026-04-19T12:49:06Z</time></trkpt><trkpt lat="40.771277470990086" lon="-5.6255190689247305"><ele>960.0</ele><time>2026-04-19T12:49:07Z</time></trkpt><trkpt lat="40.77144102215774" lon="-5.625570967178974"><ele>960.0</ele><time>2026-04-19T12:49:08Z</time></trkpt><trkpt lat="40.77160858782469" lon="-5.62563187384903"><ele>960.0</ele><time>2026-04-19T12:49:09Z</time></trkpt><trkpt lat="40.77177785028561" lon="-5.625691445882061"><ele>959.3333333333333</ele><time>2026-04-19T12:49:10Z</time></trkpt><trkpt lat="40.77195027088322" lon="-5.625755115439215"><ele>958.6666666666666</ele><time>2026-04-19T12:49:11Z</time></trkpt><trkpt lat="40.77212236425654" lon="-5.625810025092371"><ele>958.0</ele><time>2026-04-19T12:49:12Z</time></trkpt><trkpt lat="40.77229544390588" lon="-5.6258648237483335"><ele>958.0</ele><time>2026-04-19T12:49:13Z</time></trkpt><trkpt lat="40.77246924047358" lon="-5.625927140535283"><ele>958.0</ele><time>2026-04-19T12:49:14Z</time></trkpt><trkpt lat="40.77264266578253" lon="-5.625984898760284"><ele>958.0</ele><time>2026-04-19T12:49:15Z</time></trkpt><trkpt lat="40.77281722789542" lon="-5.626040736818418"><ele>958.3333333333333</ele><time>2026-04-19T12:49:16Z</time></trkpt><trkpt lat="40.772990750473" lon="-5.626096709327542"><ele>958.6666666666667</ele><time>2026-04-19T12:49:17Z</time></trkpt><trkpt lat="40.77316042342873" lon="-5.62615119762798"><ele>959.0</ele><time>2026-04-19T12:49:18Z</time></trkpt><trkpt lat="40.77333493239062" lon="-5.6262075066463"><ele>959.0</ele><time>2026-04-19T12:49:19Z</time></trkpt><trkpt lat="40.77350183832473" lon="-5.626265789176768"><ele>959.0</ele><time>2026-04-19T12:49:20Z</time></trkpt><trkpt lat="40.77367237064487" lon="-5.626325322073594"><ele>959.0</ele><time>2026-04-19T12:49:21Z</time></trkpt><trkpt lat="40.77384002307237" lon="-5.626383871887031"><ele>959.3333333333334</ele><time>2026-04-19T12:49:22Z</time></trkpt><trkpt lat="40.77401106138593" lon="-5.626446459475525"><ele>959.6666666666667</ele><time>2026-04-19T12:49:23Z</time></trkpt><trkpt lat="40.77418547658667" lon="-5.626512019534588"><ele>960.0</ele><time>2026-04-19T12:49:24Z</time></trkpt><trkpt lat="40.77435741645853" lon="-5.626572488300258"><ele>960.3333333333333</ele><time>2026-04-19T12:49:25Z</time></trkpt><trkpt lat="40.77453352805096" lon="-5.626629643119438"><ele>960.6666666666666</ele><time>2026-04-19T12:49:26Z</time></trkpt><trkpt lat="40.77470946971261" lon="-5.626687769671355"><ele>961.0</ele><time>2026-04-19T12:49:27Z</time></trkpt><trkpt lat="40.77488334970728" lon="-5.6267483434370265"><ele>961.0</ele><time>2026-04-19T12:49:28Z</time></trkpt><trkpt lat="40.7750592487866" lon="-5.626810144902985"><ele>961.0</ele><time>2026-04-19T12:49:29Z</time></trkpt><trkpt lat="40.775232773592144" lon="-5.62687477529752"><ele>961.0</ele><time>2026-04-19T12:49:30Z</time></trkpt><trkpt lat="40.77540863934287" lon="-5.626933912037931"><ele>961.3333333333333</ele><time>2026-04-19T12:49:30.999Z</time></trkpt><trkpt lat="40.77558427323004" lon="-5.626992396948984"><ele>961.6666666666667</ele><time>2026-04-19T12:49:31.999Z</time></trkpt><trkpt lat="40.7757589010923" lon="-5.627050144088103"><ele>962.0</ele><time>2026-04-19T12:49:32.999Z</time></trkpt><trkpt lat="40.77593635840623" lon="-5.627109305316436"><ele>961.3333333333334</ele><time>2026-04-19T12:49:33.999Z</time></trkpt><trkpt lat="40.77611144800224" lon="-5.627171164877377"><ele>960.6666666666667</ele><time>2026-04-19T12:49:34.999Z</time></trkpt><trkpt lat="40.77628552705932" lon="-5.627233930283758"><ele>960.0</ele><time>2026-04-19T12:49:35.999Z</time></trkpt><trkpt lat="40.77646156756619" lon="-5.627295942121817"><ele>960.0</ele><time>2026-04-19T12:49:36.999Z</time></trkpt><trkpt lat="40.7766368920106" lon="-5.627357078795896"><ele>960.0</ele><time>2026-04-19T12:49:37.999Z</time></trkpt><trkpt lat="40.77681261867709" lon="-5.627417344439806"><ele>960.0</ele><time>2026-04-19T12:49:38.999Z</time></trkpt><trkpt lat="40.776989942320824" lon="-5.627477427357772"><ele>959.3333333333333</ele><time>2026-04-19T12:49:39.999Z</time></trkpt><trkpt lat="40.77717073719645" lon="-5.627539590728799"><ele>958.6666666666666</ele><time>2026-04-19T12:49:40.999Z</time></trkpt><trkpt lat="40.77735195365264" lon="-5.6276021006404475"><ele>958.0</ele><time>2026-04-19T12:49:41.999Z</time></trkpt><trkpt lat="40.777535568442275" lon="-5.627663919898481"><ele>957.0</ele><time>2026-04-19T12:49:42.999Z</time></trkpt><trkpt lat="40.777719612412575" lon="-5.627728526873953"><ele>956.0</ele><time>2026-04-19T12:49:43.999Z</time></trkpt><trkpt lat="40.77790420490112" lon="-5.627792721996138"><ele>955.0</ele><time>2026-04-19T12:49:44.999Z</time></trkpt><trkpt lat="40.778089803210264" lon="-5.627858261996893"><ele>955.0</ele><time>2026-04-19T12:49:45.999Z</time></trkpt><trkpt lat="40.778277803235625" lon="-5.6279232254280815"><ele>955.0</ele><time>2026-04-19T12:49:46.999Z</time></trkpt><trkpt lat="40.77846801609896" lon="-5.627989964315444"><ele>955.0</ele><time>2026-04-19T12:49:47.999Z</time></trkpt><trkpt lat="40.778659235795104" lon="-5.628057781027483"><ele>954.3333333333333</ele><time>2026-04-19T12:49:48.999Z</time></trkpt><trkpt lat="40.778849667581554" lon="-5.628125496082604"><ele>953.6666666666667</ele><time>2026-04-19T12:49:49.999Z</time></trkpt><trkpt lat="40.7790398114918" lon="-5.628194037187141"><ele>953.0</ele><time>2026-04-19T12:49:50.999Z</time></trkpt><trkpt lat="40.77922983008468" lon="-5.628259767112794"><ele>952.0</ele><time>2026-04-19T12:49:51.999Z</time></trkpt><trkpt lat="40.77942066323498" lon="-5.628323953186593"><ele>951.0</ele><time>2026-04-19T12:49:52.999Z</time></trkpt><trkpt lat="40.779608114864494" lon="-5.628388360375135"><ele>950.0</ele><time>2026-04-19T12:49:53.999Z</time></trkpt><trkpt lat="40.77979367036444" lon="-5.628458171002076"><ele>950.0</ele><time>2026-04-19T12:49:54.999Z</time></trkpt><trkpt lat="40.77998204226713" lon="-5.628519103921029"><ele>950.0</ele><time>2026-04-19T12:49:55.999Z</time></trkpt><trkpt lat="40.7801707232966" lon="-5.6285816839977"><ele>950.0</ele><time>2026-04-19T12:49:56.999Z</time></trkpt><trkpt lat="40.78035833796175" lon="-5.628645264800936"><ele>950.6666666666667</ele><time>2026-04-19T12:49:57.999Z</time></trkpt><trkpt lat="40.78054462642452" lon="-5.628708814099283"><ele>951.3333333333333</ele><time>2026-04-19T12:49:58.999Z</time></trkpt><trkpt lat="40.78073095521117" lon="-5.628773479753566"><ele>952.0</ele><time>2026-04-19T12:49:59.999Z</time></trkpt><trkpt lat="40.78091393039567" lon="-5.62883863490316"><ele>951.3333333333333</ele><time>2026-04-19T12:50:00.999Z</time></trkpt><trkpt lat="40.78109489766523" lon="-5.628907034912188"><ele>950.6666666666667</ele><time>2026-04-19T12:50:01.999Z</time></trkpt><trkpt lat="40.781281222055426" lon="-5.628968802811844"><ele>950.0</ele><time>2026-04-19T12:50:02.999Z</time></trkpt><trkpt lat="40.78146704234934" lon="-5.629030905489108"><ele>950.0</ele><time>2026-04-19T12:50:03.999Z</time></trkpt><trkpt lat="40.78165440309553" lon="-5.629088116596674"><ele>950.0</ele><time>2026-04-19T12:50:04.999Z</time></trkpt><trkpt lat="40.7818416847975" lon="-5.629150466598858"><ele>950.0</ele><time>2026-04-19T12:50:05.999Z</time></trkpt><trkpt lat="40.78202548788807" lon="-5.629213810201221"><ele>950.0</ele><time>2026-04-19T12:50:06.999Z</time></trkpt><trkpt lat="40.78220721876923" lon="-5.629277372930406"><ele>950.0</ele><time>2026-04-19T12:50:07.999Z</time></trkpt><trkpt lat="40.78239272959706" lon="-5.629344887460206"><ele>950.0</ele><time>2026-04-19T12:50:08.999Z</time></trkpt><trkpt lat="40.7825739636875" lon="-5.6294088172200745"><ele>950.6666666666667</ele><time>2026-04-19T12:50:09.999Z</time></trkpt><trkpt lat="40.782755989169765" lon="-5.629472585135825"><ele>951.3333333333333</ele><time>2026-04-19T12:50:10.999Z</time></trkpt><trkpt lat="40.78293829971569" lon="-5.6295324849406185"><ele>952.0</ele><time>2026-04-19T12:50:11.999Z</time></trkpt><trkpt lat="40.7831211235946" lon="-5.629594410852615"><ele>952.6666666666666</ele><time>2026-04-19T12:50:12.999Z</time></trkpt><trkpt lat="40.78330081129507" lon="-5.629655224481222"><ele>953.3333333333333</ele><time>2026-04-19T12:50:13.999Z</time></trkpt><trkpt lat="40.78348309404003" lon="-5.629711310224917"><ele>954.0</ele><time>2026-04-19T12:50:14.999Z</time></trkpt><trkpt lat="40.783666649246165" lon="-5.629765526397362"><ele>952.6666666666667</ele><time>2026-04-19T12:50:15.999Z</time></trkpt><trkpt lat="40.78384447589144" lon="-5.6298335534926345"><ele>951.3333333333334</ele><time>2026-04-19T12:50:16.999Z</time></trkpt><trkpt lat="40.7840245503146" lon="-5.629899371311418"><ele>950.0</ele><time>2026-04-19T12:50:17.999Z</time></trkpt><trkpt lat="40.7842013882608" lon="-5.6299669836364"><ele>948.6666666666667</ele><time>2026-04-19T12:50:18.999Z</time></trkpt><trkpt lat="40.7843839207956" lon="-5.630034900108205"><ele>947.3333333333333</ele><time>2026-04-19T12:50:19.999Z</time></trkpt><trkpt lat="40.78457190879354" lon="-5.630099443987929"><ele>946.0</ele><time>2026-04-19T12:50:20.998Z</time></trkpt><trkpt lat="40.78475953517824" lon="-5.630164497312232"><ele>946.0</ele><time>2026-04-19T12:50:21.998Z</time></trkpt><trkpt lat="40.78494876251155" lon="-5.630229746659842"><ele>946.0</ele><time>2026-04-19T12:50:22.998Z</time></trkpt><trkpt lat="40.78513962806307" lon="-5.630294454014444"><ele>946.0</ele><time>2026-04-19T12:50:23.998Z</time></trkpt><trkpt lat="40.78532782077859" lon="-5.630356675468163"><ele>946.3333333333333</ele><time>2026-04-19T12:50:24.998Z</time></trkpt><trkpt lat="40.7855151674125" lon="-5.6304220038653146"><ele>946.6666666666667</ele><time>2026-04-19T12:50:25.998Z</time></trkpt><trkpt lat="40.78570154781639" lon="-5.630486506052498"><ele>947.0</ele><time>2026-04-19T12:50:26.998Z</time></trkpt><trkpt lat="40.78588714292169" lon="-5.6305495422470235"><ele>946.6666666666667</ele><time>2026-04-19T12:50:27.998Z</time></trkpt><trkpt lat="40.78607142388786" lon="-5.630614078771357"><ele>946.3333333333333</ele><time>2026-04-19T12:50:28.998Z</time></trkpt><trkpt lat="40.78625445296969" lon="-5.630677676453973"><ele>946.0</ele><time>2026-04-19T12:50:29.998Z</time></trkpt><trkpt lat="40.78643888684898" lon="-5.630743852328916"><ele>946.0</ele><time>2026-04-19T12:50:30.998Z</time></trkpt><trkpt lat="40.78662290222312" lon="-5.6308052686407475"><ele>946.0</ele><time>2026-04-19T12:50:31.998Z</time></trkpt><trkpt lat="40.7868055422444" lon="-5.63086665501072"><ele>946.0</ele><time>2026-04-19T12:50:32.998Z</time></trkpt><trkpt lat="40.7869866240501" lon="-5.630927069166881"><ele>947.0</ele><time>2026-04-19T12:50:33.998Z</time></trkpt><trkpt lat="40.78716182527178" lon="-5.630989029520959"><ele>948.0</ele><time>2026-04-19T12:50:34.998Z</time></trkpt><trkpt lat="40.78733649526658" lon="-5.631053109071319"><ele>949.0</ele><time>2026-04-19T12:50:35.998Z</time></trkpt><trkpt lat="40.787508862704016" lon="-5.631115970927929"><ele>951.0</ele><time>2026-04-19T12:50:36.998Z</time></trkpt><trkpt lat="40.787681070697325" lon="-5.631174785467507"><ele>953.0</ele><time>2026-04-19T12:50:37.998Z</time></trkpt><trkpt lat="40.787852751530956" lon="-5.63123511630684"><ele>955.0</ele><time>2026-04-19T12:50:38.998Z</time></trkpt><trkpt lat="40.7880195267155" lon="-5.631296797190892"><ele>955.0</ele><time>2026-04-19T12:50:39.998Z</time></trkpt><trkpt lat="40.78818215841552" lon="-5.631355906509712"><ele>955.0</ele><time>2026-04-19T12:50:40.998Z</time></trkpt><trkpt lat="40.78834735578769" lon="-5.631414644471361"><ele>955.0</ele><time>2026-04-19T12:50:41.998Z</time></trkpt><trkpt lat="40.788512771520885" lon="-5.631470777359534"><ele>955.3333333333333</ele><time>2026-04-19T12:50:42.998Z</time></trkpt><trkpt lat="40.78867248404571" lon="-5.631528784854133"><ele>955.6666666666667</ele><time>2026-04-19T12:50:43.998Z</time></trkpt><trkpt lat="40.788834052019595" lon="-5.631589947094204"><ele>956.0</ele><time>2026-04-19T12:50:44.998Z</time></trkpt><trkpt lat="40.78899855905819" lon="-5.631644486365813"><ele>956.0</ele><time>2026-04-19T12:50:45.998Z</time></trkpt><trkpt lat="40.78916625902718" lon="-5.631698467683606"><ele>956.0</ele><time>2026-04-19T12:50:46.998Z</time></trkpt><trkpt lat="40.78933249332403" lon="-5.631753220717113"><ele>956.0</ele><time>2026-04-19T12:50:47.998Z</time></trkpt><trkpt lat="40.78950291446419" lon="-5.631810164908052"><ele>955.6666666666667</ele><time>2026-04-19T12:50:48.998Z</time></trkpt><trkpt lat="40.78967239938205" lon="-5.631870582149143"><ele>955.3333333333333</ele><time>2026-04-19T12:50:49.998Z</time></trkpt><trkpt lat="40.78984583063366" lon="-5.631928838137105"><ele>955.0</ele><time>2026-04-19T12:50:50.998Z</time></trkpt><trkpt lat="40.790019637554195" lon="-5.631990564986558"><ele>955.6666666666666</ele><time>2026-04-19T12:50:51.998Z</time></trkpt><trkpt lat="40.79019246224564" lon="-5.632050422899676"><ele>956.3333333333333</ele><time>2026-04-19T12:50:52.998Z</time></trkpt><trkpt lat="40.790368354335435" lon="-5.63211309812038"><ele>957.0</ele><time>2026-04-19T12:50:53.998Z</time></trkpt><trkpt lat="40.79054470169365" lon="-5.632172817816024"><ele>957.0</ele><time>2026-04-19T12:50:54.998Z</time></trkpt><trkpt lat="40.79072006443697" lon="-5.632232832777959"><ele>957.0</ele><time>2026-04-19T12:50:56Z</time></trkpt><trkpt lat="40.790896694103985" lon="-5.6322919834522835"><ele>957.0</ele><time>2026-04-19T12:50:57Z</time></trkpt><trkpt lat="40.79107261451424" lon="-5.632353365441282"><ele>956.6666666666667</ele><time>2026-04-19T12:50:58Z</time></trkpt><trkpt lat="40.791248026138035" lon="-5.632417875824871"><ele>956.3333333333334</ele><time>2026-04-19T12:50:59Z</time></trkpt><trkpt lat="40.79142472726267" lon="-5.632480880306099"><ele>956.0</ele><time>2026-04-19T12:51:00Z</time></trkpt><trkpt lat="40.791600695372644" lon="-5.632539763063272"><ele>956.0</ele><time>2026-04-19T12:51:01Z</time></trkpt><trkpt lat="40.79177639342181" lon="-5.632598624821059"><ele>956.0</ele><time>2026-04-19T12:51:02Z</time></trkpt><trkpt lat="40.79195321510406" lon="-5.63265915407459"><ele>956.0</ele><time>2026-04-19T12:51:03Z</time></trkpt><trkpt lat="40.792128635536876" lon="-5.632720241123218"><ele>956.0</ele><time>2026-04-19T12:51:04Z</time></trkpt><trkpt lat="40.79230484325448" lon="-5.632780941131963"><ele>956.0</ele><time>2026-04-19T12:51:05Z</time></trkpt><trkpt lat="40.79248201923966" lon="-5.632843018186705"><ele>956.0</ele><time>2026-04-19T12:51:06Z</time></trkpt><trkpt lat="40.79266004699155" lon="-5.632906390951999"><ele>957.3333333333334</ele><time>2026-04-19T12:51:07Z</time></trkpt><trkpt lat="40.792838134190475" lon="-5.63297168149176"><ele>958.6666666666667</ele><time>2026-04-19T12:51:08Z</time></trkpt><trkpt lat="40.79301427529983" lon="-5.633033920974481"><ele>960.0</ele><time>2026-04-19T12:51:09Z</time></trkpt><trkpt lat="40.793186782610526" lon="-5.633094648215092"><ele>960.0</ele><time>2026-04-19T12:51:10Z</time></trkpt><trkpt lat="40.793361968387444" lon="-5.633151320429977"><ele>960.0</ele><time>2026-04-19T12:51:11Z</time></trkpt><trkpt lat="40.79353747888488" lon="-5.63319882672891"><ele>960.0</ele><time>2026-04-19T12:51:12Z</time></trkpt><trkpt lat="40.793709451054205" lon="-5.633249483096752"><ele>961.0</ele><time>2026-04-19T12:51:13Z</time></trkpt><trkpt lat="40.79387745182408" lon="-5.633300936173827"><ele>962.0</ele><time>2026-04-19T12:51:14Z</time></trkpt><trkpt lat="40.79404775994128" lon="-5.6333497342200385"><ele>963.0</ele><time>2026-04-19T12:51:15Z</time></trkpt><trkpt lat="40.794224054653135" lon="-5.633389705948388"><ele>963.3333333333333</ele><time>2026-04-19T12:51:16Z</time></trkpt><trkpt lat="40.79439545606435" lon="-5.633419566100011"><ele>963.6666666666666</ele><time>2026-04-19T12:51:17Z</time></trkpt><trkpt lat="40.79456201642277" lon="-5.633447371026578"><ele>964.0</ele><time>2026-04-19T12:51:18Z</time></trkpt><trkpt lat="40.794734685873884" lon="-5.633451497983252"><ele>964.0</ele><time>2026-04-19T12:51:19Z</time></trkpt><trkpt lat="40.794908285445885" lon="-5.633449863447635"><ele>964.0</ele><time>2026-04-19T12:51:20Z</time></trkpt><trkpt lat="40.795090358503224" lon="-5.633451313463449"><ele>964.0</ele><time>2026-04-19T12:51:21Z</time></trkpt><trkpt lat="40.79527473359576" lon="-5.633446464345638"><ele>964.6666666666666</ele><time>2026-04-19T12:51:22Z</time></trkpt><trkpt lat="40.79545885837272" lon="-5.6334401935370675"><ele>965.3333333333333</ele><time>2026-04-19T12:51:23Z</time></trkpt><trkpt lat="40.79563779187091" lon="-5.633427580966579"><ele>966.0</ele><time>2026-04-19T12:51:24Z</time></trkpt><trkpt lat="40.79581909270074" lon="-5.633411945954301"><ele>966.0</ele><time>2026-04-19T12:51:25Z</time></trkpt><trkpt lat="40.79599929913383" lon="-5.63340448674883"><ele>966.0</ele><time>2026-04-19T12:51:26Z</time></trkpt><trkpt lat="40.796180692111164" lon="-5.633395780721573"><ele>966.0</ele><time>2026-04-19T12:51:27Z</time></trkpt><trkpt lat="40.79635807271576" lon="-5.633384238017466"><ele>967.0</ele><time>2026-04-19T12:51:28Z</time></trkpt><trkpt lat="40.796538979125465" lon="-5.633374688544027"><ele>968.0</ele><time>2026-04-19T12:51:29Z</time></trkpt><trkpt lat="40.796710960533375" lon="-5.6333614913228205"><ele>969.0</ele><time>2026-04-19T12:51:30Z</time></trkpt><trkpt lat="40.79688691327283" lon="-5.633348351218607"><ele>970.0</ele><time>2026-04-19T12:51:31Z</time></trkpt><trkpt lat="40.79706865445726" lon="-5.633338413953232"><ele>971.0</ele><time>2026-04-19T12:51:32Z</time></trkpt><trkpt lat="40.797246209876604" lon="-5.633315873606398"><ele>972.0</ele><time>2026-04-19T12:51:33Z</time></trkpt><trkpt lat="40.797424644812054" lon="-5.6333018878392656"><ele>972.0</ele><time>2026-04-19T12:51:34Z</time></trkpt><trkpt lat="40.797598889033374" lon="-5.633291597696627"><ele>972.0</ele><time>2026-04-19T12:51:35Z</time></trkpt><trkpt lat="40.79777889684438" lon="-5.633273375918497"><ele>972.0</ele><time>2026-04-19T12:51:36Z</time></trkpt><trkpt lat="40.79795275459646" lon="-5.633264250938536"><ele>972.6666666666667</ele><time>2026-04-19T12:51:36.999Z</time></trkpt><trkpt lat="40.79813380115669" lon="-5.633263501507356"><ele>973.3333333333334</ele><time>2026-04-19T12:51:37.999Z</time></trkpt><trkpt lat="40.79831159511099" lon="-5.63325094836366"><ele>974.0</ele><time>2026-04-19T12:51:38.999Z</time></trkpt><trkpt lat="40.79849073977352" lon="-5.633236036544186"><ele>974.6666666666667</ele><time>2026-04-19T12:51:39.999Z</time></trkpt><trkpt lat="40.7986663842977" lon="-5.63321897326341"><ele>975.3333333333333</ele><time>2026-04-19T12:51:40.999Z</time></trkpt><trkpt lat="40.7988365218918" lon="-5.633212930399857"><ele>976.0</ele><time>2026-04-19T12:51:41.999Z</time></trkpt><trkpt lat="40.79901629919317" lon="-5.633198572834367"><ele>976.0</ele><time>2026-04-19T12:51:42.999Z</time></trkpt><trkpt lat="40.79919501697411" lon="-5.63318860362367"><ele>976.0</ele><time>2026-04-19T12:51:43.999Z</time></trkpt><trkpt lat="40.79937565118838" lon="-5.63317607365021"><ele>976.0</ele><time>2026-04-19T12:51:44.999Z</time></trkpt><trkpt lat="40.79955493321204" lon="-5.633165403217954"><ele>977.0</ele><time>2026-04-19T12:51:45.999Z</time></trkpt><trkpt lat="40.79973474041905" lon="-5.63315299609372"><ele>978.0</ele><time>2026-04-19T12:51:46.999Z</time></trkpt><trkpt lat="40.79991622131385" lon="-5.633139706933449"><ele>979.0</ele><time>2026-04-19T12:51:47.999Z</time></trkpt><trkpt lat="40.80009725366443" lon="-5.6331280938850625"><ele>980.0</ele><time>2026-04-19T12:51:48.999Z</time></trkpt><trkpt lat="40.80027897488292" lon="-5.633117273447795"><ele>981.0</ele><time>2026-04-19T12:51:49.999Z</time></trkpt><trkpt lat="40.800457998813584" lon="-5.633103638268688"><ele>982.0</ele><time>2026-04-19T12:51:50.999Z</time></trkpt><trkpt lat="40.800638164884546" lon="-5.633089824506102"><ele>982.0</ele><time>2026-04-19T12:51:51.999Z</time></trkpt><trkpt lat="40.8008203091766" lon="-5.633075191680977"><ele>982.0</ele><time>2026-04-19T12:51:52.999Z</time></trkpt><trkpt lat="40.8009980766513" lon="-5.633064304929565"><ele>982.0</ele><time>2026-04-19T12:51:53.999Z</time></trkpt><trkpt lat="40.80117835216142" lon="-5.6330547821891095"><ele>982.6666666666666</ele><time>2026-04-19T12:51:54.999Z</time></trkpt><trkpt lat="40.80135930776985" lon="-5.633041192940687"><ele>983.3333333333333</ele><time>2026-04-19T12:51:55.999Z</time></trkpt><trkpt lat="40.801542082165" lon="-5.6330315630706815"><ele>984.0</ele><time>2026-04-19T12:51:56.999Z</time></trkpt><trkpt lat="40.801724060521174" lon="-5.633020384143365"><ele>984.0</ele><time>2026-04-19T12:51:57.999Z</time></trkpt><trkpt lat="40.8019086446427" lon="-5.633010976288086"><ele>984.0</ele><time>2026-04-19T12:51:58.999Z</time></trkpt><trkpt lat="40.802092133805246" lon="-5.632999279841534"><ele>984.0</ele><time>2026-04-19T12:51:59.999Z</time></trkpt><trkpt lat="40.80227721476866" lon="-5.632983660466537"><ele>984.0</ele><time>2026-04-19T12:52:00.999Z</time></trkpt><trkpt lat="40.802465129430914" lon="-5.63296871829125"><ele>984.0</ele><time>2026-04-19T12:52:01.999Z</time></trkpt><trkpt lat="40.80265094318318" lon="-5.632958464964516"><ele>984.0</ele><time>2026-04-19T12:52:02.999Z</time></trkpt><trkpt lat="40.8028381652452" lon="-5.6329488184058425"><ele>984.0</ele><time>2026-04-19T12:52:03.999Z</time></trkpt><trkpt lat="40.803026317454645" lon="-5.632942441349706"><ele>984.0</ele><time>2026-04-19T12:52:04.999Z</time></trkpt><trkpt lat="40.80321631741062" lon="-5.632928557969242"><ele>984.0</ele><time>2026-04-19T12:52:05.999Z</time></trkpt><trkpt lat="40.80340606599948" lon="-5.632917944535488"><ele>984.3333333333333</ele><time>2026-04-19T12:52:06.999Z</time></trkpt><trkpt lat="40.803598064336434" lon="-5.63290425602075"><ele>984.6666666666666</ele><time>2026-04-19T12:52:07.999Z</time></trkpt><trkpt lat="40.80379007761153" lon="-5.632888878482812"><ele>985.0</ele><time>2026-04-19T12:52:08.999Z</time></trkpt><trkpt lat="40.80398200377337" lon="-5.6328765480162195"><ele>985.0</ele><time>2026-04-19T12:52:09.999Z</time></trkpt><trkpt lat="40.80417438941832" lon="-5.632862263582233"><ele>985.0</ele><time>2026-04-19T12:52:10.999Z</time></trkpt><trkpt lat="40.80436552998814" lon="-5.632848628692886"><ele>985.0</ele><time>2026-04-19T12:52:11.999Z</time></trkpt><trkpt lat="40.80455827759839" lon="-5.632832165405297"><ele>985.6666666666666</ele><time>2026-04-19T12:52:12.999Z</time></trkpt><trkpt lat="40.80475020729678" lon="-5.63281959850605"><ele>986.3333333333333</ele><time>2026-04-19T12:52:13.999Z</time></trkpt><trkpt lat="40.80494286770809" lon="-5.632807719166954"><ele>987.0</ele><time>2026-04-19T12:52:14.999Z</time></trkpt><trkpt lat="40.80513668001925" lon="-5.632795441179016"><ele>987.6666666666667</ele><time>2026-04-19T12:52:15.999Z</time></trkpt><trkpt lat="40.80532945685779" lon="-5.632782944295405"><ele>988.3333333333334</ele><time>2026-04-19T12:52:16.999Z</time></trkpt><trkpt lat="40.805519936205336" lon="-5.632770228861715"><ele>989.0</ele><time>2026-04-19T12:52:17.999Z</time></trkpt><trkpt lat="40.805709038120895" lon="-5.632754336002007"><ele>989.0</ele><time>2026-04-19T12:52:18.999Z</time></trkpt><trkpt lat="40.80589596595912" lon="-5.632739424780514"><ele>989.0</ele><time>2026-04-19T12:52:19.999Z</time></trkpt><trkpt lat="40.80608176239596" lon="-5.6327229260327005"><ele>989.0</ele><time>2026-04-19T12:52:20.999Z</time></trkpt><trkpt lat="40.80626787336965" lon="-5.632706971328382"><ele>989.6666666666667</ele><time>2026-04-19T12:52:21.999Z</time></trkpt><trkpt lat="40.806450614885435" lon="-5.632690106916594"><ele>990.3333333333333</ele><time>2026-04-19T12:52:22.999Z</time></trkpt><trkpt lat="40.80663135535887" lon="-5.632667758352295"><ele>991.0</ele><time>2026-04-19T12:52:23.999Z</time></trkpt><trkpt lat="40.806812212733924" lon="-5.632639021872408"><ele>992.3333333333333</ele><time>2026-04-19T12:52:24.999Z</time></trkpt><trkpt lat="40.80699282702856" lon="-5.6326062249570805"><ele>993.6666666666667</ele><time>2026-04-19T12:52:25.998Z</time></trkpt><trkpt lat="40.8071711946173" lon="-5.632566701718963"><ele>995.0</ele><time>2026-04-19T12:52:26.998Z</time></trkpt><trkpt lat="40.807348641326044" lon="-5.632516518809353"><ele>995.0</ele><time>2026-04-19T12:52:27.998Z</time></trkpt><trkpt lat="40.80752556046963" lon="-5.632463042924208"><ele>995.0</ele><time>2026-04-19T12:52:28.998Z</time></trkpt><trkpt lat="40.80769942991734" lon="-5.6324029684859935"><ele>995.0</ele><time>2026-04-19T12:52:29.998Z</time></trkpt><trkpt lat="40.80787433764181" lon="-5.632339328945089"><ele>996.0</ele><time>2026-04-19T12:52:30.998Z</time></trkpt><trkpt lat="40.80804573147063" lon="-5.632264729448354"><ele>997.0</ele><time>2026-04-19T12:52:31.998Z</time></trkpt><trkpt lat="40.80821639705983" lon="-5.632182005973813"><ele>998.0</ele><time>2026-04-19T12:52:32.998Z</time></trkpt><trkpt lat="40.80838293271238" lon="-5.632087539593349"><ele>999.0</ele><time>2026-04-19T12:52:33.998Z</time></trkpt><trkpt lat="40.808547129161376" lon="-5.631982681811026"><ele>1000.0</ele><time>2026-04-19T12:52:34.998Z</time></trkpt><trkpt lat="40.808709230544686" lon="-5.631870867305909"><ele>1001.0</ele><time>2026-04-19T12:52:35.998Z</time></trkpt><trkpt lat="40.808869786880784" lon="-5.631755558636303"><ele>1001.0</ele><time>2026-04-19T12:52:36.998Z</time></trkpt><trkpt lat="40.809031455159904" lon="-5.63164181980869"><ele>1001.0</ele><time>2026-04-19T12:52:37.998Z</time></trkpt><trkpt lat="40.80919139939666" lon="-5.631523151677023"><ele>1001.0</ele><time>2026-04-19T12:52:38.998Z</time></trkpt><trkpt lat="40.80935088619286" lon="-5.631394416775707"><ele>1002.6666666666667</ele><time>2026-04-19T12:52:39.998Z</time></trkpt><trkpt lat="40.8095104724044" lon="-5.6312628401875635"><ele>1004.3333333333333</ele><time>2026-04-19T12:52:40.998Z</time></trkpt><trkpt lat="40.80966839557068" lon="-5.631127367308303"><ele>1006.0</ele><time>2026-04-19T12:52:41.998Z</time></trkpt><trkpt lat="40.809825226455644" lon="-5.630987970578028"><ele>1006.0</ele><time>2026-04-19T12:52:42.998Z</time></trkpt><trkpt lat="40.80998078238887" lon="-5.630849185166734"><ele>1006.0</ele><time>2026-04-19T12:52:43.998Z</time></trkpt><trkpt lat="40.81013615225255" lon="-5.630702364749101"><ele>1006.0</ele><time>2026-04-19T12:52:44.998Z</time></trkpt><trkpt lat="40.81029042256054" lon="-5.6305546220845635"><ele>1006.0</ele><time>2026-04-19T12:52:45.998Z</time></trkpt><trkpt lat="40.81044859632925" lon="-5.630406013448195"><ele>1006.0</ele><time>2026-04-19T12:52:46.998Z</time></trkpt><trkpt lat="40.81060839265771" lon="-5.630256217368721"><ele>1006.0</ele><time>2026-04-19T12:52:47.998Z</time></trkpt><trkpt lat="40.81076979980039" lon="-5.630107904844628"><ele>1005.0</ele><time>2026-04-19T12:52:48.998Z</time></trkpt><trkpt lat="40.81093173400826" lon="-5.62995552891316"><ele>1004.0</ele><time>2026-04-19T12:52:49.998Z</time></trkpt><trkpt lat="40.811096124806085" lon="-5.6298123401188125"><ele>1003.0</ele><time>2026-04-19T12:52:50.998Z</time></trkpt><trkpt lat="40.811262463767555" lon="-5.6296745066058715"><ele>1002.3333333333333</ele><time>2026-04-19T12:52:51.998Z</time></trkpt><trkpt lat="40.81143067065193" lon="-5.62954150693097"><ele>1001.6666666666667</ele><time>2026-04-19T12:52:52.998Z</time></trkpt><trkpt lat="40.8116012982545" lon="-5.629409618873688"><ele>1001.0</ele><time>2026-04-19T12:52:53.998Z</time></trkpt><trkpt lat="40.81177262322607" lon="-5.629289479798749"><ele>1000.3333333333334</ele><time>2026-04-19T12:52:54.998Z</time></trkpt><trkpt lat="40.81194772244897" lon="-5.6291759181100165"><ele>999.6666666666667</ele><time>2026-04-19T12:52:55.998Z</time></trkpt><trkpt lat="40.812128510154444" lon="-5.629072286253043"><ele>999.0</ele><time>2026-04-19T12:52:56.998Z</time></trkpt><trkpt lat="40.81230914416893" lon="-5.62897570301722"><ele>999.0</ele><time>2026-04-19T12:52:57.998Z</time></trkpt><trkpt lat="40.81249243368011" lon="-5.628887308661015"><ele>999.0</ele><time>2026-04-19T12:52:58.998Z</time></trkpt><trkpt lat="40.81267338484118" lon="-5.628811188776009"><ele>999.0</ele><time>2026-04-19T12:52:59.998Z</time></trkpt><trkpt lat="40.81285962963567" lon="-5.628746576590272"><ele>999.3333333333333</ele><time>2026-04-19T12:53:00.998Z</time></trkpt><trkpt lat="40.81304771014726" lon="-5.628693718152457"><ele>999.6666666666666</ele><time>2026-04-19T12:53:02Z</time></trkpt><trkpt lat="40.81323741635747" lon="-5.628656081931526"><ele>1000.0</ele><time>2026-04-19T12:53:03Z</time></trkpt><trkpt lat="40.81342927056793" lon="-5.628625961125265"><ele>999.3333333333333</ele><time>2026-04-19T12:53:04Z</time></trkpt><trkpt lat="40.81361897096625" lon="-5.628607836544239"><ele>998.6666666666667</ele><time>2026-04-19T12:53:05Z</time></trkpt><trkpt lat="40.813803299297895" lon="-5.628591475792371"><ele>998.0</ele><time>2026-04-19T12:53:06Z</time></trkpt><trkpt lat="40.813998587149364" lon="-5.628594510422438"><ele>998.0</ele><time>2026-04-19T12:53:07Z</time></trkpt><trkpt lat="40.81418800229728" lon="-5.628609792747751"><ele>998.0</ele><time>2026-04-19T12:53:08Z</time></trkpt><trkpt lat="40.81437704112474" lon="-5.6286303302671135"><ele>998.0</ele><time>2026-04-19T12:53:09Z</time></trkpt><trkpt lat="40.81456393272441" lon="-5.628664653800462"><ele>997.3333333333334</ele><time>2026-04-19T12:53:10Z</time></trkpt><trkpt lat="40.81475731941704" lon="-5.628703203449867"><ele>996.6666666666667</ele><time>2026-04-19T12:53:11Z</time></trkpt><trkpt lat="40.814946042606856" lon="-5.6287598560916745"><ele>996.0</ele><time>2026-04-19T12:53:12Z</time></trkpt><trkpt lat="40.81513515759382" lon="-5.628827005863964"><ele>995.0</ele><time>2026-04-19T12:53:13Z</time></trkpt><trkpt lat="40.815325170391496" lon="-5.6289043932721095"><ele>994.0</ele><time>2026-04-19T12:53:14Z</time></trkpt><trkpt lat="40.81551208056461" lon="-5.628989035160641"><ele>993.0</ele><time>2026-04-19T12:53:15Z</time></trkpt><trkpt lat="40.81570317493652" lon="-5.629084671038101"><ele>993.0</ele><time>2026-04-19T12:53:16Z</time></trkpt><trkpt lat="40.81588805026432" lon="-5.629198813026218"><ele>993.0</ele><time>2026-04-19T12:53:17Z</time></trkpt><trkpt lat="40.81606890198037" lon="-5.629325038095789"><ele>993.0</ele><time>2026-04-19T12:53:18Z</time></trkpt><trkpt lat="40.81624726759611" lon="-5.62945530614947"><ele>991.0</ele><time>2026-04-19T12:53:19Z</time></trkpt><trkpt lat="40.81641925259428" lon="-5.629598726077497"><ele>989.0</ele><time>2026-04-19T12:53:20Z</time></trkpt><trkpt lat="40.8165890462744" lon="-5.629742761427435"><ele>987.0</ele><time>2026-04-19T12:53:21Z</time></trkpt><trkpt lat="40.81675215466493" lon="-5.629899221236383"><ele>984.6666666666667</ele><time>2026-04-19T12:53:22Z</time></trkpt><trkpt lat="40.81691833921652" lon="-5.630062500028166"><ele>982.3333333333334</ele><time>2026-04-19T12:53:23Z</time></trkpt><trkpt lat="40.81707690139377" lon="-5.6302247479014484"><ele>980.0</ele><time>2026-04-19T12:53:24Z</time></trkpt><trkpt lat="40.81723892024994" lon="-5.6303926023480955"><ele>979.6666666666667</ele><time>2026-04-19T12:53:25Z</time></trkpt><trkpt lat="40.81739442384955" lon="-5.630559851999935"><ele>979.3333333333333</ele><time>2026-04-19T12:53:26Z</time></trkpt><trkpt lat="40.817554024581725" lon="-5.630728125387377"><ele>979.0</ele><time>2026-04-19T12:53:27Z</time></trkpt><trkpt lat="40.81770628475244" lon="-5.630899161021144"><ele>977.0</ele><time>2026-04-19T12:53:28Z</time></trkpt><trkpt lat="40.81786446466813" lon="-5.631062928221799"><ele>975.0</ele><time>2026-04-19T12:53:29Z</time></trkpt><trkpt lat="40.818021758782685" lon="-5.631235619852487"><ele>973.0</ele><time>2026-04-19T12:53:30Z</time></trkpt><trkpt lat="40.81817703649073" lon="-5.631415544980264"><ele>972.3333333333333</ele><time>2026-04-19T12:53:31Z</time></trkpt><trkpt lat="40.818324075777845" lon="-5.631572809330961"><ele>971.6666666666667</ele><time>2026-04-19T12:53:32Z</time></trkpt><trkpt lat="40.8184892780373" lon="-5.63176428935157"><ele>971.0</ele><time>2026-04-19T12:53:33Z</time></trkpt><trkpt lat="40.81865054407656" lon="-5.631937514523779"><ele>969.6666666666667</ele><time>2026-04-19T12:53:34Z</time></trkpt><trkpt lat="40.818809664042774" lon="-5.632115363043663"><ele>968.3333333333333</ele><time>2026-04-19T12:53:35Z</time></trkpt><trkpt lat="40.8189647139871" lon="-5.632287740833916"><ele>967.0</ele><time>2026-04-19T12:53:36Z</time></trkpt><trkpt lat="40.819121300271696" lon="-5.632455666965472"><ele>967.0</ele><time>2026-04-19T12:53:37Z</time></trkpt><trkpt lat="40.81927468936405" lon="-5.63262373586521"><ele>967.0</ele><time>2026-04-19T12:53:38Z</time></trkpt><trkpt lat="40.819430466686" lon="-5.632797997554168"><ele>967.0</ele><time>2026-04-19T12:53:39Z</time></trkpt><trkpt lat="40.81958560659992" lon="-5.6329664703768465"><ele>965.0</ele><time>2026-04-19T12:53:40Z</time></trkpt><trkpt lat="40.81974843320682" lon="-5.63313446922418"><ele>963.0</ele><time>2026-04-19T12:53:41Z</time></trkpt><trkpt lat="40.819904010246105" lon="-5.6332987196993916"><ele>961.0</ele><time>2026-04-19T12:53:42Z</time></trkpt><trkpt lat="40.820058975474815" lon="-5.633463668539871"><ele>960.3333333333333</ele><time>2026-04-19T12:53:42.999Z</time></trkpt><trkpt lat="40.82021186622387" lon="-5.633634199834112"><ele>959.6666666666667</ele><time>2026-04-19T12:53:43.999Z</time></trkpt><trkpt lat="40.82036498945592" lon="-5.633801226503468"><ele>959.0</ele><time>2026-04-19T12:53:44.999Z</time></trkpt><trkpt lat="40.82052340788852" lon="-5.633968108889348"><ele>957.6666666666667</ele><time>2026-04-19T12:53:45.999Z</time></trkpt><trkpt lat="40.82067725576749" lon="-5.634131808008713"><ele>956.3333333333333</ele><time>2026-04-19T12:53:46.999Z</time></trkpt><trkpt lat="40.82082689988525" lon="-5.634298053495398"><ele>955.0</ele><time>2026-04-19T12:53:47.999Z</time></trkpt><trkpt lat="40.82097807859968" lon="-5.634457842131247"><ele>953.3333333333333</ele><time>2026-04-19T12:53:48.999Z</time></trkpt><trkpt lat="40.82111903269746" lon="-5.634614736848785"><ele>951.6666666666667</ele><time>2026-04-19T12:53:49.999Z</time></trkpt><trkpt lat="40.821261900361904" lon="-5.634775428695934"><ele>950.0</ele><time>2026-04-19T12:53:50.999Z</time></trkpt><trkpt lat="40.82141157168356" lon="-5.634936965368031"><ele>950.0</ele><time>2026-04-19T12:53:51.999Z</time></trkpt><trkpt lat="40.82155597955517" lon="-5.63509923507417"><ele>950.0</ele><time>2026-04-19T12:53:52.999Z</time></trkpt><trkpt lat="40.821699817110165" lon="-5.635258973212973"><ele>950.0</ele><time>2026-04-19T12:53:53.999Z</time></trkpt><trkpt lat="40.821847911436805" lon="-5.635417355039508"><ele>949.3333333333334</ele><time>2026-04-19T12:53:54.999Z</time></trkpt><trkpt lat="40.82199767347415" lon="-5.635574036759866"><ele>948.6666666666667</ele><time>2026-04-19T12:53:55.999Z</time></trkpt><trkpt lat="40.822148978965856" lon="-5.635734116930835"><ele>948.0</ele><time>2026-04-19T12:53:56.999Z</time></trkpt><trkpt lat="40.82230636923497" lon="-5.635893069642394"><ele>948.0</ele><time>2026-04-19T12:53:57.999Z</time></trkpt><trkpt lat="40.82246429551496" lon="-5.636053288995193"><ele>948.0</ele><time>2026-04-19T12:53:58.999Z</time></trkpt><trkpt lat="40.82262883593108" lon="-5.636211655948675"><ele>948.0</ele><time>2026-04-19T12:53:59.999Z</time></trkpt><trkpt lat="40.82279769384086" lon="-5.6363647982789855"><ele>945.6666666666667</ele><time>2026-04-19T12:54:00.999Z</time></trkpt><trkpt lat="40.82297285922951" lon="-5.636507196702796"><ele>943.3333333333334</ele><time>2026-04-19T12:54:01.999Z</time></trkpt><trkpt lat="40.82315306118073" lon="-5.6366403250273285"><ele>941.0</ele><time>2026-04-19T12:54:02.999Z</time></trkpt><trkpt lat="40.823338176065235" lon="-5.63676541360167"><ele>941.3333333333334</ele><time>2026-04-19T12:54:03.999Z</time></trkpt><trkpt lat="40.82352331000227" lon="-5.636880791558839"><ele>941.6666666666667</ele><time>2026-04-19T12:54:04.999Z</time></trkpt><trkpt lat="40.823707853567804" lon="-5.6369883290997675"><ele>942.0</ele><time>2026-04-19T12:54:05.999Z</time></trkpt><trkpt lat="40.823898794909475" lon="-5.637094492401894"><ele>940.3333333333333</ele><time>2026-04-19T12:54:06.999Z</time></trkpt><trkpt lat="40.82408565231638" lon="-5.637199993790939"><ele>938.6666666666666</ele><time>2026-04-19T12:54:07.999Z</time></trkpt><trkpt lat="40.82427219268083" lon="-5.6373089445579625"><ele>937.0</ele><time>2026-04-19T12:54:08.999Z</time></trkpt><trkpt lat="40.82445978264148" lon="-5.63741742223356"><ele>936.3333333333333</ele><time>2026-04-19T12:54:09.999Z</time></trkpt><trkpt lat="40.824648272924115" lon="-5.637523544621096"><ele>935.6666666666667</ele><time>2026-04-19T12:54:10.999Z</time></trkpt><trkpt lat="40.82483404295626" lon="-5.637631512969185"><ele>935.0</ele><time>2026-04-19T12:54:11.999Z</time></trkpt><trkpt lat="40.82502580552109" lon="-5.637736166961109"><ele>932.6666666666667</ele><time>2026-04-19T12:54:12.999Z</time></trkpt><trkpt lat="40.82521696808568" lon="-5.637839661065063"><ele>930.3333333333333</ele><time>2026-04-19T12:54:13.999Z</time></trkpt><trkpt lat="40.82540653957052" lon="-5.637946159527988"><ele>928.0</ele><time>2026-04-19T12:54:14.999Z</time></trkpt><trkpt lat="40.825599464262936" lon="-5.638051398648474"><ele>928.0</ele><time>2026-04-19T12:54:15.999Z</time></trkpt><trkpt lat="40.825792747481884" lon="-5.638148493867978"><ele>928.0</ele><time>2026-04-19T12:54:16.999Z</time></trkpt><trkpt lat="40.825986921169694" lon="-5.6382449934727905"><ele>928.0</ele><time>2026-04-19T12:54:17.999Z</time></trkpt><trkpt lat="40.82618319957451" lon="-5.638332737447239"><ele>927.3333333333333</ele><time>2026-04-19T12:54:18.999Z</time></trkpt><trkpt lat="40.82638345083416" lon="-5.638405700566493"><ele>926.6666666666667</ele><time>2026-04-19T12:54:19.999Z</time></trkpt><trkpt lat="40.826584382367244" lon="-5.638469788347827"><ele>926.0</ele><time>2026-04-19T12:54:20.999Z</time></trkpt><trkpt lat="40.82679197214318" lon="-5.6385232953381905"><ele>925.6666666666667</ele><time>2026-04-19T12:54:21.999Z</time></trkpt><trkpt lat="40.8270021141236" lon="-5.6385703800947375"><ele>925.3333333333333</ele><time>2026-04-19T12:54:22.999Z</time></trkpt><trkpt lat="40.82721033876402" lon="-5.638601998176857"><ele>925.0</ele><time>2026-04-19T12:54:23.999Z</time></trkpt><trkpt lat="40.82741790493391" lon="-5.638618723677331"><ele>925.0</ele><time>2026-04-19T12:54:24.999Z</time></trkpt><trkpt lat="40.82762392103269" lon="-5.638627379433996"><ele>925.0</ele><time>2026-04-19T12:54:25.999Z</time></trkpt><trkpt lat="40.82783011130657" lon="-5.638626402766477"><ele>925.0</ele><time>2026-04-19T12:54:26.999Z</time></trkpt><trkpt lat="40.82803197115149" lon="-5.638625523717471"><ele>924.6666666666666</ele><time>2026-04-19T12:54:27.999Z</time></trkpt><trkpt lat="40.82823626700341" lon="-5.638617533419994"><ele>924.3333333333333</ele><time>2026-04-19T12:54:28.999Z</time></trkpt><trkpt lat="40.82844036101478" lon="-5.638611081747524"><ele>924.0</ele><time>2026-04-19T12:54:29.999Z</time></trkpt><trkpt lat="40.828645506240015" lon="-5.638601735518892"><ele>923.3333333333333</ele><time>2026-04-19T12:54:30.999Z</time></trkpt><trkpt lat="40.82885313908935" lon="-5.638594564809122"><ele>922.6666666666666</ele><time>2026-04-19T12:54:31.998Z</time></trkpt><trkpt lat="40.82906105542585" lon="-5.638588165568016"><ele>922.0</ele><time>2026-04-19T12:54:32.998Z</time></trkpt><trkpt lat="40.8292646693605" lon="-5.638586395061984"><ele>921.6666666666666</ele><time>2026-04-19T12:54:33.998Z</time></trkpt><trkpt lat="40.82947185773238" lon="-5.638585546026775"><ele>921.3333333333333</ele><time>2026-04-19T12:54:34.998Z</time></trkpt><trkpt lat="40.82967740904336" lon="-5.638580121829748"><ele>921.0</ele><time>2026-04-19T12:54:35.998Z</time></trkpt><trkpt lat="40.82988936762592" lon="-5.638572420964574"><ele>921.0</ele><time>2026-04-19T12:54:36.998Z</time></trkpt><trkpt lat="40.83010140794849" lon="-5.638564272743474"><ele>921.0</ele><time>2026-04-19T12:54:37.998Z</time></trkpt><trkpt lat="40.83031040044914" lon="-5.63856221991161"><ele>921.0</ele><time>2026-04-19T12:54:38.998Z</time></trkpt><trkpt lat="40.83051664947966" lon="-5.638557694182228"><ele>919.6666666666667</ele><time>2026-04-19T12:54:39.998Z</time></trkpt><trkpt lat="40.830722804802036" lon="-5.638551514143608"><ele>918.3333333333334</ele><time>2026-04-19T12:54:40.998Z</time></trkpt><trkpt lat="40.83092903859893" lon="-5.638540006420024"><ele>917.0</ele><time>2026-04-19T12:54:41.998Z</time></trkpt><trkpt lat="40.83113216783344" lon="-5.638540801611798"><ele>916.3333333333334</ele><time>2026-04-19T12:54:42.998Z</time></trkpt><trkpt lat="40.83133252862661" lon="-5.638533347859439"><ele>915.6666666666667</ele><time>2026-04-19T12:54:43.998Z</time></trkpt><trkpt lat="40.83153462991032" lon="-5.638525640416643"><ele>915.0</ele><time>2026-04-19T12:54:44.998Z</time></trkpt><trkpt lat="40.83173693750777" lon="-5.638519749517838"><ele>915.0</ele><time>2026-04-19T12:54:45.998Z</time></trkpt><trkpt lat="40.83194506970035" lon="-5.638517286815022"><ele>915.0</ele><time>2026-04-19T12:54:46.998Z</time></trkpt><trkpt lat="40.83214560464683" lon="-5.638508937134829"><ele>915.0</ele><time>2026-04-19T12:54:47.998Z</time></trkpt><trkpt lat="40.83234827228434" lon="-5.638502811167859"><ele>915.0</ele><time>2026-04-19T12:54:48.998Z</time></trkpt><trkpt lat="40.832552149210464" lon="-5.638501185533486"><ele>915.0</ele><time>2026-04-19T12:54:49.998Z</time></trkpt><trkpt lat="40.83275191628818" lon="-5.638502047796765"><ele>915.0</ele><time>2026-04-19T12:54:50.998Z</time></trkpt><trkpt lat="40.83294983935753" lon="-5.638493350924646"><ele>915.6666666666667</ele><time>2026-04-19T12:54:51.998Z</time></trkpt><trkpt lat="40.83314728281856" lon="-5.638485277686773"><ele>916.3333333333334</ele><time>2026-04-19T12:54:52.998Z</time></trkpt><trkpt lat="40.83334136808535" lon="-5.638479465387385"><ele>917.0</ele><time>2026-04-19T12:54:53.998Z</time></trkpt><trkpt lat="40.83352520527622" lon="-5.638471549365973"><ele>917.6666666666667</ele><time>2026-04-19T12:54:54.998Z</time></trkpt><trkpt lat="40.833718168876636" lon="-5.63846104984562"><ele>918.3333333333333</ele><time>2026-04-19T12:54:55.998Z</time></trkpt><trkpt lat="40.83390346207828" lon="-5.63845542360088"><ele>919.0</ele><time>2026-04-19T12:54:56.998Z</time></trkpt><trkpt lat="40.834091122538695" lon="-5.638453401184766"><ele>919.0</ele><time>2026-04-19T12:54:57.998Z</time></trkpt><trkpt lat="40.83427882445505" lon="-5.638452539665543"><ele>919.0</ele><time>2026-04-19T12:54:58.998Z</time></trkpt><trkpt lat="40.83447013454852" lon="-5.638446762437199"><ele>919.0</ele><time>2026-04-19T12:54:59.998Z</time></trkpt><trkpt lat="40.834659682193596" lon="-5.638441644012938"><ele>918.6666666666666</ele><time>2026-04-19T12:55:00.998Z</time></trkpt><trkpt lat="40.834851306295825" lon="-5.638438503842638"><ele>918.3333333333333</ele><time>2026-04-19T12:55:01.998Z</time></trkpt><trkpt lat="40.835042731109205" lon="-5.638434551119671"><ele>918.0</ele><time>2026-04-19T12:55:02.998Z</time></trkpt><trkpt lat="40.83523151624434" lon="-5.638431629796609"><ele>918.0</ele><time>2026-04-19T12:55:03.998Z</time></trkpt><trkpt lat="40.835423229942855" lon="-5.638434725069193"><ele>918.0</ele><time>2026-04-19T12:55:04.998Z</time></trkpt><trkpt lat="40.83561250479352" lon="-5.638441256493074"><ele>918.0</ele><time>2026-04-19T12:55:05.998Z</time></trkpt><trkpt lat="40.83579790740018" lon="-5.63845325313779"><ele>916.3333333333333</ele><time>2026-04-19T12:55:06.998Z</time></trkpt><trkpt lat="40.83599678157059" lon="-5.6384848067919515"><ele>914.6666666666666</ele><time>2026-04-19T12:55:08Z</time></trkpt><trkpt lat="40.83618578934489" lon="-5.638522328269296"><ele>913.0</ele><time>2026-04-19T12:55:09Z</time></trkpt><trkpt lat="40.836373535499106" lon="-5.638573550768324"><ele>912.6666666666666</ele><time>2026-04-19T12:55:10Z</time></trkpt><trkpt lat="40.83656612063608" lon="-5.638635957808553"><ele>912.3333333333333</ele><time>2026-04-19T12:55:11Z</time></trkpt><trkpt lat="40.83675763805893" lon="-5.638706606390184"><ele>912.0</ele><time>2026-04-19T12:55:12Z</time></trkpt><trkpt lat="40.83694973124104" lon="-5.638789621493073"><ele>912.0</ele><time>2026-04-19T12:55:13Z</time></trkpt><trkpt lat="40.83713825974821" lon="-5.638876839485454"><ele>912.0</ele><time>2026-04-19T12:55:14Z</time></trkpt><trkpt lat="40.83732860966909" lon="-5.63896736239384"><ele>912.0</ele><time>2026-04-19T12:55:15Z</time></trkpt><trkpt lat="40.83752217582142" lon="-5.639063110057202"><ele>910.3333333333333</ele><time>2026-04-19T12:55:16Z</time></trkpt><trkpt lat="40.8377119805039" lon="-5.6391592229495995"><ele>908.6666666666666</ele><time>2026-04-19T12:55:17Z</time></trkpt><trkpt lat="40.83790289142406" lon="-5.639255625077791"><ele>907.0</ele><time>2026-04-19T12:55:18Z</time></trkpt><trkpt lat="40.838092499142356" lon="-5.639350646058501"><ele>907.0</ele><time>2026-04-19T12:55:19Z</time></trkpt><trkpt lat="40.83828410354934" lon="-5.639446012427784"><ele>907.0</ele><time>2026-04-19T12:55:20Z</time></trkpt><trkpt lat="40.83847818354846" lon="-5.63954490934143"><ele>907.0</ele><time>2026-04-19T12:55:21Z</time></trkpt><trkpt lat="40.83866742329386" lon="-5.639646896158993"><ele>905.3333333333333</ele><time>2026-04-19T12:55:22Z</time></trkpt><trkpt lat="40.83886266803023" lon="-5.639746444765805"><ele>903.6666666666667</ele><time>2026-04-19T12:55:23Z</time></trkpt><trkpt lat="40.83905543509817" lon="-5.6398390164795575"><ele>902.0</ele><time>2026-04-19T12:55:24Z</time></trkpt><trkpt lat="40.83925683924377" lon="-5.639927127351824"><ele>901.3333333333334</ele><time>2026-04-19T12:55:25Z</time></trkpt><trkpt lat="40.839456580244274" lon="-5.640014566115896"><ele>900.6666666666667</ele><time>2026-04-19T12:55:26Z</time></trkpt><trkpt lat="40.839657476532814" lon="-5.640100478501874"><ele>900.0</ele><time>2026-04-19T12:55:27Z</time></trkpt><trkpt lat="40.83985653757795" lon="-5.640180909994998"><ele>900.0</ele><time>2026-04-19T12:55:28Z</time></trkpt><trkpt lat="40.84005494442209" lon="-5.640259042182614"><ele>900.0</ele><time>2026-04-19T12:55:29Z</time></trkpt><trkpt lat="40.84025496283312" lon="-5.640336359580628"><ele>900.0</ele><time>2026-04-19T12:55:30Z</time></trkpt><trkpt lat="40.84045360377036" lon="-5.640412970469477"><ele>900.3333333333333</ele><time>2026-04-19T12:55:31Z</time></trkpt><trkpt lat="40.8406472723935" lon="-5.640484104293479"><ele>900.6666666666666</ele><time>2026-04-19T12:55:32Z</time></trkpt><trkpt lat="40.84083987896868" lon="-5.640551566830602"><ele>901.0</ele><time>2026-04-19T12:55:33Z</time></trkpt><trkpt lat="40.841030079038866" lon="-5.640616319485292"><ele>902.3333333333333</ele><time>2026-04-19T12:55:34Z</time></trkpt><trkpt lat="40.8412184014192" lon="-5.640685011479149"><ele>903.6666666666667</ele><time>2026-04-19T12:55:35Z</time></trkpt><trkpt lat="40.84140195654392" lon="-5.640748000895924"><ele>905.0</ele><time>2026-04-19T12:55:36Z</time></trkpt><trkpt lat="40.84159787362473" lon="-5.640810153872196"><ele>905.0</ele><time>2026-04-19T12:55:37Z</time></trkpt><trkpt lat="40.841768423358026" lon="-5.640886984908288"><ele>905.0</ele><time>2026-04-19T12:55:38Z</time></trkpt><trkpt lat="40.841940368870944" lon="-5.640950471123997"><ele>905.0</ele><time>2026-04-19T12:55:39Z</time></trkpt><trkpt lat="40.84211182439345" lon="-5.641012025740572"><ele>904.6666666666667</ele><time>2026-04-19T12:55:40Z</time></trkpt><trkpt lat="40.84228381449166" lon="-5.641074459673395"><ele>904.3333333333333</ele><time>2026-04-19T12:55:41Z</time></trkpt><trkpt lat="40.842459532332384" lon="-5.641138560441655"><ele>904.0</ele><time>2026-04-19T12:55:42Z</time></trkpt><trkpt lat="40.842637388416435" lon="-5.641200079395531"><ele>904.6666666666666</ele><time>2026-04-19T12:55:43Z</time></trkpt><trkpt lat="40.84281454330498" lon="-5.641267506445783"><ele>905.3333333333333</ele><time>2026-04-19T12:55:44Z</time></trkpt><trkpt lat="40.84298537386804" lon="-5.641340407156075"><ele>906.0</ele><time>2026-04-19T12:55:45Z</time></trkpt><trkpt lat="40.843161531333166" lon="-5.641404448706108"><ele>906.0</ele><time>2026-04-19T12:55:46Z</time></trkpt><trkpt lat="40.843342939228044" lon="-5.641469600496346"><ele>906.0</ele><time>2026-04-19T12:55:46.999Z</time></trkpt><trkpt lat="40.843524845688364" lon="-5.641543967492963"><ele>906.0</ele><time>2026-04-19T12:55:47.999Z</time></trkpt><trkpt lat="40.84370629002875" lon="-5.641620889328702"><ele>905.6666666666667</ele><time>2026-04-19T12:55:48.999Z</time></trkpt><trkpt lat="40.843887408637556" lon="-5.641703763528906"><ele>905.3333333333334</ele><time>2026-04-19T12:55:49.999Z</time></trkpt><trkpt lat="40.844064405601365" lon="-5.641800634229823"><ele>905.0</ele><time>2026-04-19T12:55:50.999Z</time></trkpt><trkpt lat="40.84424124283256" lon="-5.641901664426155"><ele>905.3333333333334</ele><time>2026-04-19T12:55:51.999Z</time></trkpt><trkpt lat="40.84441855473154" lon="-5.642003474042301"><ele>905.6666666666667</ele><time>2026-04-19T12:55:52.999Z</time></trkpt><trkpt lat="40.84459446190061" lon="-5.642124518765849"><ele>906.0</ele><time>2026-04-19T12:55:53.999Z</time></trkpt><trkpt lat="40.844765941120144" lon="-5.6422459132234914"><ele>906.0</ele><time>2026-04-19T12:55:54.999Z</time></trkpt><trkpt lat="40.84493330379564" lon="-5.642357399651614"><ele>906.0</ele><time>2026-04-19T12:55:55.999Z</time></trkpt><trkpt lat="40.845105282297844" lon="-5.642477415801695"><ele>906.0</ele><time>2026-04-19T12:55:56.999Z</time></trkpt><trkpt lat="40.845276858785375" lon="-5.642598289272235"><ele>906.0</ele><time>2026-04-19T12:55:57.999Z</time></trkpt><trkpt lat="40.84544475269365" lon="-5.642725278326939"><ele>906.0</ele><time>2026-04-19T12:55:58.999Z</time></trkpt><trkpt lat="40.84561752481505" lon="-5.6428435692608785"><ele>906.0</ele><time>2026-04-19T12:55:59.999Z</time></trkpt><trkpt lat="40.84579134357208" lon="-5.642968150152086"><ele>904.0</ele><time>2026-04-19T12:56:00.999Z</time></trkpt><trkpt lat="40.84596284600023" lon="-5.643097725294451"><ele>902.0</ele><time>2026-04-19T12:56:01.999Z</time></trkpt><trkpt lat="40.84613905958379" lon="-5.643222784991364"><ele>900.0</ele><time>2026-04-19T12:56:02.999Z</time></trkpt><trkpt lat="40.84632035752272" lon="-5.643349538300448"><ele>900.0</ele><time>2026-04-19T12:56:03.999Z</time></trkpt><trkpt lat="40.84649876558769" lon="-5.643474718650086"><ele>900.0</ele><time>2026-04-19T12:56:04.999Z</time></trkpt><trkpt lat="40.846680282730354" lon="-5.643607291991288"><ele>900.0</ele><time>2026-04-19T12:56:05.999Z</time></trkpt><trkpt lat="40.84685471961752" lon="-5.643735607708812"><ele>898.3333333333333</ele><time>2026-04-19T12:56:06.999Z</time></trkpt><trkpt lat="40.84703493704484" lon="-5.643852106510063"><ele>896.6666666666666</ele><time>2026-04-19T12:56:07.999Z</time></trkpt><trkpt lat="40.84721560737678" lon="-5.643974628967058"><ele>895.0</ele><time>2026-04-19T12:56:08.999Z</time></trkpt><trkpt lat="40.84739032575169" lon="-5.644101842245374"><ele>895.0</ele><time>2026-04-19T12:56:09.999Z</time></trkpt><trkpt lat="40.847568398294634" lon="-5.6442239515018136"><ele>895.0</ele><time>2026-04-19T12:56:10.999Z</time></trkpt><trkpt lat="40.84774813464385" lon="-5.644357472772546"><ele>895.0</ele><time>2026-04-19T12:56:11.999Z</time></trkpt><trkpt lat="40.84791701827213" lon="-5.644471989362132"><ele>894.3333333333333</ele><time>2026-04-19T12:56:12.999Z</time></trkpt><trkpt lat="40.848088584321864" lon="-5.644600585683546"><ele>893.6666666666667</ele><time>2026-04-19T12:56:13.999Z</time></trkpt><trkpt lat="40.848255897225904" lon="-5.644722927878503"><ele>893.0</ele><time>2026-04-19T12:56:14.999Z</time></trkpt><trkpt lat="40.84843042372349" lon="-5.644845062868346"><ele>892.3333333333334</ele><time>2026-04-19T12:56:15.999Z</time></trkpt><trkpt lat="40.84860719624186" lon="-5.644966433526239"><ele>891.6666666666667</ele><time>2026-04-19T12:56:16.999Z</time></trkpt><trkpt lat="40.8487755602362" lon="-5.645085139166376"><ele>891.0</ele><time>2026-04-19T12:56:17.999Z</time></trkpt><trkpt lat="40.84894876840537" lon="-5.645200381393756"><ele>891.6666666666667</ele><time>2026-04-19T12:56:18.999Z</time></trkpt><trkpt lat="40.84911967485226" lon="-5.645314914087238"><ele>892.3333333333334</ele><time>2026-04-19T12:56:19.999Z</time></trkpt><trkpt lat="40.84928820906214" lon="-5.645430376450406"><ele>893.0</ele><time>2026-04-19T12:56:20.999Z</time></trkpt><trkpt lat="40.84945346398105" lon="-5.64555292802244"><ele>891.6666666666667</ele><time>2026-04-19T12:56:21.999Z</time></trkpt><trkpt lat="40.84962427171506" lon="-5.645685564212133"><ele>890.3333333333333</ele><time>2026-04-19T12:56:22.999Z</time></trkpt><trkpt lat="40.84979723691882" lon="-5.645806182819935"><ele>889.0</ele><time>2026-04-19T12:56:23.999Z</time></trkpt><trkpt lat="40.84996939423265" lon="-5.645926612533363"><ele>888.3333333333333</ele><time>2026-04-19T12:56:24.999Z</time></trkpt><trkpt lat="40.850143561472045" lon="-5.64604909047977"><ele>887.6666666666667</ele><time>2026-04-19T12:56:25.999Z</time></trkpt><trkpt lat="40.85031692014542" lon="-5.646173765334746"><ele>887.0</ele><time>2026-04-19T12:56:26.999Z</time></trkpt><trkpt lat="40.85048950107546" lon="-5.6462973870106605"><ele>887.0</ele><time>2026-04-19T12:56:27.999Z</time></trkpt><trkpt lat="40.85066389777457" lon="-5.64641435141881"><ele>887.0</ele><time>2026-04-19T12:56:28.999Z</time></trkpt><trkpt lat="40.85083650735052" lon="-5.646536774879062"><ele>887.0</ele><time>2026-04-19T12:56:29.999Z</time></trkpt><trkpt lat="40.85101081257094" lon="-5.646658653709023"><ele>887.0</ele><time>2026-04-19T12:56:30.999Z</time></trkpt><trkpt lat="40.85118625917441" lon="-5.646780803983833"><ele>887.0</ele><time>2026-04-19T12:56:31.999Z</time></trkpt><trkpt lat="40.85135911665307" lon="-5.646903408563419"><ele>887.0</ele><time>2026-04-19T12:56:32.999Z</time></trkpt><trkpt lat="40.851531576245854" lon="-5.647026797331578"><ele>886.0</ele><time>2026-04-19T12:56:33.999Z</time></trkpt><trkpt lat="40.85170445673275" lon="-5.647148339026636"><ele>885.0</ele><time>2026-04-19T12:56:34.998Z</time></trkpt><trkpt lat="40.8518781491148" lon="-5.647266960202808"><ele>884.0</ele><time>2026-04-19T12:56:35.998Z</time></trkpt><trkpt lat="40.85204758944153" lon="-5.647393231397729"><ele>884.0</ele><time>2026-04-19T12:56:36.998Z</time></trkpt><trkpt lat="40.85222378978753" lon="-5.647519675383139"><ele>884.0</ele><time>2026-04-19T12:56:37.998Z</time></trkpt><trkpt lat="40.85239542654051" lon="-5.647644348158607"><ele>884.0</ele><time>2026-04-19T12:56:38.998Z</time></trkpt><trkpt lat="40.85257239034714" lon="-5.647770574500051"><ele>882.0</ele><time>2026-04-19T12:56:39.998Z</time></trkpt><trkpt lat="40.85274933886174" lon="-5.647898520594706"><ele>880.0</ele><time>2026-04-19T12:56:40.998Z</time></trkpt><trkpt lat="40.85293051586602" lon="-5.648024946545565"><ele>878.0</ele><time>2026-04-19T12:56:41.998Z</time></trkpt><trkpt lat="40.85311034997381" lon="-5.648152129222107"><ele>878.0</ele><time>2026-04-19T12:56:42.998Z</time></trkpt><trkpt lat="40.853287731429376" lon="-5.648282987042863"><ele>878.0</ele><time>2026-04-19T12:56:43.998Z</time></trkpt><trkpt lat="40.8534586017711" lon="-5.648411185849333"><ele>878.0</ele><time>2026-04-19T12:56:44.998Z</time></trkpt><trkpt lat="40.853624723284334" lon="-5.648529718402782"><ele>876.6666666666667</ele><time>2026-04-19T12:56:45.998Z</time></trkpt><trkpt lat="40.8537958923964" lon="-5.648648390638482"><ele>875.3333333333333</ele><time>2026-04-19T12:56:46.998Z</time></trkpt><trkpt lat="40.85396925814458" lon="-5.648764414028257"><ele>874.0</ele><time>2026-04-19T12:56:47.998Z</time></trkpt><trkpt lat="40.854142254608064" lon="-5.648889577433952"><ele>875.0</ele><time>2026-04-19T12:56:48.998Z</time></trkpt><trkpt lat="40.854303468326556" lon="-5.6490018720468305"><ele>876.0</ele><time>2026-04-19T12:56:49.998Z</time></trkpt><trkpt lat="40.85446304358008" lon="-5.649111474889825"><ele>877.0</ele><time>2026-04-19T12:56:50.998Z</time></trkpt><trkpt lat="40.854615950183884" lon="-5.649224567468008"><ele>877.0</ele><time>2026-04-19T12:56:51.998Z</time></trkpt><trkpt lat="40.85477462310424" lon="-5.649332502492891"><ele>877.0</ele><time>2026-04-19T12:56:52.998Z</time></trkpt><trkpt lat="40.85492689446038" lon="-5.64944171166566"><ele>877.0</ele><time>2026-04-19T12:56:53.998Z</time></trkpt><trkpt lat="40.85507795727425" lon="-5.649543399520066"><ele>878.3333333333333</ele><time>2026-04-19T12:56:54.998Z</time></trkpt><trkpt lat="40.85522377426676" lon="-5.649648894632516"><ele>879.6666666666667</ele><time>2026-04-19T12:56:55.998Z</time></trkpt><trkpt lat="40.855367840247276" lon="-5.649752757702145"><ele>881.0</ele><time>2026-04-19T12:56:56.998Z</time></trkpt><trkpt lat="40.85550943310044" lon="-5.64985519095428"><ele>881.0</ele><time>2026-04-19T12:56:57.998Z</time></trkpt><trkpt lat="40.85564936253426" lon="-5.649950970535429"><ele>881.0</ele><time>2026-04-19T12:56:58.998Z</time></trkpt><trkpt lat="40.85579353212274" lon="-5.650046085803158"><ele>881.0</ele><time>2026-04-19T12:56:59.998Z</time></trkpt><trkpt lat="40.855933775687696" lon="-5.650135564156142"><ele>880.6666666666667</ele><time>2026-04-19T12:57:00.998Z</time></trkpt><trkpt lat="40.85607295733384" lon="-5.650223816384309"><ele>880.3333333333333</ele><time>2026-04-19T12:57:01.998Z</time></trkpt><trkpt lat="40.8562134049949" lon="-5.65030144002448"><ele>880.0</ele><time>2026-04-19T12:57:02.998Z</time></trkpt><trkpt lat="40.85636077838976" lon="-5.650380221619177"><ele>879.6666666666666</ele><time>2026-04-19T12:57:03.998Z</time></trkpt><trkpt lat="40.8565012477885" lon="-5.650462054666214"><ele>879.3333333333333</ele><time>2026-04-19T12:57:04.998Z</time></trkpt><trkpt lat="40.85663988497425" lon="-5.650544881291027"><ele>879.0</ele><time>2026-04-19T12:57:05.998Z</time></trkpt><trkpt lat="40.85678421896508" lon="-5.650624569820723"><ele>878.0</ele><time>2026-04-19T12:57:06.998Z</time></trkpt><trkpt lat="40.85693256791225" lon="-5.650708922683193"><ele>877.0</ele><time>2026-04-19T12:57:07.998Z</time></trkpt><trkpt lat="40.85706464240718" lon="-5.65081170017804"><ele>876.0</ele><time>2026-04-19T12:57:08.998Z</time></trkpt><trkpt lat="40.85719670797114" lon="-5.650888736163151"><ele>876.0</ele><time>2026-04-19T12:57:09.998Z</time></trkpt><trkpt lat="40.85733188398829" lon="-5.650955437595682"><ele>876.0</ele><time>2026-04-19T12:57:10.998Z</time></trkpt><trkpt lat="40.85746620578129" lon="-5.651019981206014"><ele>876.0</ele><time>2026-04-19T12:57:11.998Z</time></trkpt><trkpt lat="40.857594839200516" lon="-5.651086844317553"><ele>876.0</ele><time>2026-04-19T12:57:12.998Z</time></trkpt><trkpt lat="40.85771814758401" lon="-5.6511584232191865"><ele>875.5</ele><time>2026-04-19T12:57:14Z</time></trkpt><trkpt lat="40.857841306130894" lon="-5.651226135012323"><ele>875.0</ele><time>2026-04-19T12:57:15Z</time></trkpt><trkpt lat="40.8579686398981" lon="-5.65129204796233"><ele>874.5</ele><time>2026-04-19T12:57:16Z</time></trkpt><trkpt lat="40.85809345218264" lon="-5.65136046561563"><ele>874.0</ele><time>2026-04-19T12:57:17Z</time></trkpt><trkpt lat="40.85822294850285" lon="-5.651430548925615"><ele>874.0</ele><time>2026-04-19T12:57:18Z</time></trkpt><trkpt lat="40.858349891218054" lon="-5.651502031729724"><ele>874.0</ele><time>2026-04-19T12:57:19Z</time></trkpt><trkpt lat="40.858474311927125" lon="-5.651569492207833"><ele>874.0</ele><time>2026-04-19T12:57:20Z</time></trkpt><trkpt lat="40.858596659783856" lon="-5.651639323396056"><ele>874.0</ele><time>2026-04-19T12:57:21Z</time></trkpt><trkpt lat="40.858708598409045" lon="-5.6517219680329704"><ele>874.25</ele><time>2026-04-19T12:57:22Z</time></trkpt><trkpt lat="40.85882828566778" lon="-5.651788949188299"><ele>874.5</ele><time>2026-04-19T12:57:23Z</time></trkpt><trkpt lat="40.858954848590436" lon="-5.651852881567524"><ele>874.75</ele><time>2026-04-19T12:57:24Z</time></trkpt><trkpt lat="40.85908292798709" lon="-5.651919513720476"><ele>875.0</ele><time>2026-04-19T12:57:25Z</time></trkpt><trkpt lat="40.859214248689284" lon="-5.651985499252909"><ele>874.5</ele><time>2026-04-19T12:57:26Z</time></trkpt><trkpt lat="40.859354295268766" lon="-5.6520536164010995"><ele>874.0</ele><time>2026-04-19T12:57:27Z</time></trkpt><trkpt lat="40.85948411041253" lon="-5.652131660132601"><ele>873.5</ele><time>2026-04-19T12:57:28Z</time></trkpt><trkpt lat="40.85961138604636" lon="-5.652203976899017"><ele>873.0</ele><time>2026-04-19T12:57:29Z</time></trkpt><trkpt lat="40.859739338320054" lon="-5.652275961409032"><ele>873.0</ele><time>2026-04-19T12:57:30Z</time></trkpt><trkpt lat="40.85987080741524" lon="-5.652352624958913"><ele>873.0</ele><time>2026-04-19T12:57:31Z</time></trkpt><trkpt lat="40.85999981786" lon="-5.65242962754555"><ele>873.0</ele><time>2026-04-19T12:57:32Z</time></trkpt><trkpt lat="40.860133804657956" lon="-5.6525087510875025"><ele>873.0</ele><time>2026-04-19T12:57:33Z</time></trkpt><trkpt lat="40.86025846498205" lon="-5.652587014878675"><ele>873.0</ele><time>2026-04-19T12:57:34Z</time></trkpt><trkpt lat="40.86037959775632" lon="-5.652645182861871"><ele>873.0</ele><time>2026-04-19T12:57:35Z</time></trkpt><trkpt lat="40.86049920228622" lon="-5.652720610801131"><ele>873.0</ele><time>2026-04-19T12:57:36Z</time></trkpt><trkpt lat="40.86062730751182" lon="-5.652788823079086"><ele>873.0</ele><time>2026-04-19T12:57:37Z</time></trkpt><trkpt lat="40.860764600480735" lon="-5.652863143057918"><ele>873.0</ele><time>2026-04-19T12:57:38Z</time></trkpt><trkpt lat="40.86090481581099" lon="-5.652937271837425"><ele>873.0</ele><time>2026-04-19T12:57:39Z</time></trkpt><trkpt lat="40.86104523051854" lon="-5.65301559906205"><ele>873.0</ele><time>2026-04-19T12:57:40Z</time></trkpt><trkpt lat="40.861196088665395" lon="-5.653093255783777"><ele>873.0</ele><time>2026-04-19T12:57:41Z</time></trkpt><trkpt lat="40.86133957072416" lon="-5.653175591609945"><ele>873.0</ele><time>2026-04-19T12:57:42Z</time></trkpt><trkpt lat="40.861483424774825" lon="-5.653264921235335"><ele>873.0</ele><time>2026-04-19T12:57:43Z</time></trkpt><trkpt lat="40.861623090817986" lon="-5.653349058448202"><ele>873.0</ele><time>2026-04-19T12:57:44Z</time></trkpt><trkpt lat="40.861762570246064" lon="-5.653436970143771"><ele>873.0</ele><time>2026-04-19T12:57:45Z</time></trkpt><trkpt lat="40.86191301338572" lon="-5.653525357969235"><ele>873.0</ele><time>2026-04-19T12:57:46Z</time></trkpt><trkpt lat="40.86205646309559" lon="-5.653616953276626"><ele>872.0</ele><time>2026-04-19T12:57:47Z</time></trkpt><trkpt lat="40.862197747329404" lon="-5.653699863898249"><ele>871.0</ele><time>2026-04-19T12:57:48Z</time></trkpt><trkpt lat="40.862329364136706" lon="-5.653791481602277"><ele>870.0</ele><time>2026-04-19T12:57:49Z</time></trkpt><trkpt lat="40.86246549518637" lon="-5.653883832279308"><ele>870.0</ele><time>2026-04-19T12:57:50Z</time></trkpt><trkpt lat="40.86259103293548" lon="-5.653977003266282"><ele>870.0</ele><time>2026-04-19T12:57:51Z</time></trkpt><trkpt lat="40.862713221692665" lon="-5.654050472350792"><ele>870.0</ele><time>2026-04-19T12:57:52Z</time></trkpt><trkpt lat="40.8628192011051" lon="-5.654129617939434"><ele>870.0</ele><time>2026-04-19T12:57:53Z</time></trkpt><trkpt lat="40.86289428782004" lon="-5.654223773811449"><ele>870.8</ele><time>2026-04-19T12:57:53.999Z</time></trkpt><trkpt lat="40.86298059257287" lon="-5.654271980821366"><ele>871.6</ele><time>2026-04-19T12:57:54.999Z</time></trkpt><trkpt lat="40.863061102056854" lon="-5.654338389031951"><ele>872.4000000000001</ele><time>2026-04-19T12:57:55.999Z</time></trkpt><trkpt lat="40.86315055570788" lon="-5.654429209774751"><ele>873.2</ele><time>2026-04-19T12:57:56.999Z</time></trkpt><trkpt lat="40.863237959457244" lon="-5.654538486259949"><ele>874.0</ele><time>2026-04-19T12:57:57.999Z</time></trkpt><trkpt lat="40.863335531731636" lon="-5.654649969130475"><ele>874.0</ele><time>2026-04-19T12:57:58.999Z</time></trkpt><trkpt lat="40.86343772504574" lon="-5.654754318443034"><ele>874.0</ele><time>2026-04-19T12:57:59.999Z</time></trkpt><trkpt lat="40.86354499504833" lon="-5.654876760941965"><ele>874.0</ele><time>2026-04-19T12:58:00.999Z</time></trkpt><trkpt lat="40.86365075711466" lon="-5.65500278872409"><ele>874.0</ele><time>2026-04-19T12:58:01.999Z</time></trkpt><trkpt lat="40.86375875835557" lon="-5.655135779301214"><ele>874.25</ele><time>2026-04-19T12:58:02.999Z</time></trkpt><trkpt lat="40.86385239092291" lon="-5.655262986334867"><ele>874.5</ele><time>2026-04-19T12:58:03.999Z</time></trkpt><trkpt lat="40.8639651742839" lon="-5.655390167601961"><ele>874.75</ele><time>2026-04-19T12:58:04.999Z</time></trkpt><trkpt lat="40.864081542133405" lon="-5.655517345464641"><ele>875.0</ele><time>2026-04-19T12:58:05.999Z</time></trkpt><trkpt lat="40.86419866414759" lon="-5.655645983620927"><ele>875.0</ele><time>2026-04-19T12:58:06.999Z</time></trkpt><trkpt lat="40.864309956805414" lon="-5.655781969051286"><ele>875.0</ele><time>2026-04-19T12:58:07.999Z</time></trkpt><trkpt lat="40.86443226219497" lon="-5.655917177076906"><ele>875.0</ele><time>2026-04-19T12:58:08.999Z</time></trkpt><trkpt lat="40.86456029832845" lon="-5.65604674320803"><ele>874.3333333333334</ele><time>2026-04-19T12:58:09.999Z</time></trkpt><trkpt lat="40.86469606905625" lon="-5.65617065428955"><ele>873.6666666666667</ele><time>2026-04-19T12:58:10.999Z</time></trkpt><trkpt lat="40.86483475106865" lon="-5.656297982282727"><ele>873.0</ele><time>2026-04-19T12:58:11.999Z</time></trkpt><trkpt lat="40.86498258584442" lon="-5.656419690064534"><ele>872.3333333333333</ele><time>2026-04-19T12:58:12.999Z</time></trkpt><trkpt lat="40.86514051440841" lon="-5.656546294983104"><ele>871.6666666666666</ele><time>2026-04-19T12:58:13.999Z</time></trkpt><trkpt lat="40.86530020090393" lon="-5.656662267479864"><ele>871.0</ele><time>2026-04-19T12:58:14.999Z</time></trkpt><trkpt lat="40.86546238483213" lon="-5.656765165558099"><ele>871.0</ele><time>2026-04-19T12:58:15.999Z</time></trkpt><trkpt lat="40.86562945656252" lon="-5.656867374352489"><ele>871.0</ele><time>2026-04-19T12:58:16.999Z</time></trkpt><trkpt lat="40.86580135954499" lon="-5.656950229277586"><ele>871.0</ele><time>2026-04-19T12:58:17.999Z</time></trkpt><trkpt lat="40.86598274236216" lon="-5.657031986164102"><ele>868.6666666666666</ele><time>2026-04-19T12:58:18.999Z</time></trkpt><trkpt lat="40.8661638173049" lon="-5.657108872147622"><ele>866.3333333333333</ele><time>2026-04-19T12:58:19.999Z</time></trkpt><trkpt lat="40.86635371242327" lon="-5.657173284108165"><ele>864.0</ele><time>2026-04-19T12:58:20.999Z</time></trkpt><trkpt lat="40.86654671556193" lon="-5.657235383771474"><ele>864.0</ele><time>2026-04-19T12:58:21.999Z</time></trkpt><trkpt lat="40.86673782642337" lon="-5.657300086294188"><ele>864.0</ele><time>2026-04-19T12:58:22.999Z</time></trkpt><trkpt lat="40.866932180002486" lon="-5.657363563846278"><ele>864.0</ele><time>2026-04-19T12:58:23.999Z</time></trkpt><trkpt lat="40.86712756447566" lon="-5.657431173995442"><ele>864.6666666666667</ele><time>2026-04-19T12:58:24.999Z</time></trkpt><trkpt lat="40.86731778385596" lon="-5.65749928078736"><ele>865.3333333333334</ele><time>2026-04-19T12:58:25.999Z</time></trkpt><trkpt lat="40.86751581886316" lon="-5.657562821445697"><ele>866.0</ele><time>2026-04-19T12:58:26.999Z</time></trkpt><trkpt lat="40.867716161944095" lon="-5.657632324556816"><ele>866.6666666666667</ele><time>2026-04-19T12:58:27.999Z</time></trkpt><trkpt lat="40.86791759747145" lon="-5.657705301441945"><ele>867.3333333333333</ele><time>2026-04-19T12:58:28.999Z</time></trkpt><trkpt lat="40.868114680231955" lon="-5.657777743059035"><ele>868.0</ele><time>2026-04-19T12:58:29.999Z</time></trkpt><trkpt lat="40.86831087240923" lon="-5.65785010348382"><ele>866.3333333333333</ele><time>2026-04-19T12:58:30.999Z</time></trkpt><trkpt lat="40.86850552517497" lon="-5.657922596616265"><ele>864.6666666666667</ele><time>2026-04-19T12:58:31.999Z</time></trkpt><trkpt lat="40.86870059417962" lon="-5.657994241305815"><ele>863.0</ele><time>2026-04-19T12:58:32.999Z</time></trkpt><trkpt lat="40.86889422555629" lon="-5.658064645259737"><ele>863.0</ele><time>2026-04-19T12:58:33.999Z</time></trkpt><trkpt lat="40.86908734859042" lon="-5.658134052285096"><ele>863.0</ele><time>2026-04-19T12:58:34.999Z</time></trkpt><trkpt lat="40.86928253691146" lon="-5.658200044649375"><ele>863.0</ele><time>2026-04-19T12:58:35.999Z</time></trkpt><trkpt lat="40.86947794682253" lon="-5.658269040194621"><ele>862.0</ele><time>2026-04-19T12:58:36.999Z</time></trkpt><trkpt lat="40.86967211648768" lon="-5.658336560782156"><ele>861.0</ele><time>2026-04-19T12:58:37.999Z</time></trkpt><trkpt lat="40.86986501647964" lon="-5.658404886396424"><ele>860.0</ele><time>2026-04-19T12:58:38.999Z</time></trkpt><trkpt lat="40.87006154250646" lon="-5.658470806107126"><ele>860.0</ele><time>2026-04-19T12:58:39.999Z</time></trkpt><trkpt lat="40.87025599923851" lon="-5.658534916218436"><ele>860.0</ele><time>2026-04-19T12:58:40.999Z</time></trkpt><trkpt lat="40.87045345804861" lon="-5.658600064408703"><ele>860.0</ele><time>2026-04-19T12:58:41.999Z</time></trkpt><trkpt lat="40.87064817997291" lon="-5.658669093915809"><ele>860.0</ele><time>2026-04-19T12:58:42.998Z</time></trkpt><trkpt lat="40.87084989552033" lon="-5.6587452031642576"><ele>860.0</ele><time>2026-04-19T12:58:43.998Z</time></trkpt><trkpt lat="40.871046169548194" lon="-5.658823578640527"><ele>860.0</ele><time>2026-04-19T12:58:44.998Z</time></trkpt><trkpt lat="40.87124356201001" lon="-5.658908717228154"><ele>859.0</ele><time>2026-04-19T12:58:45.998Z</time></trkpt><trkpt lat="40.871438139755" lon="-5.658994397959565"><ele>858.0</ele><time>2026-04-19T12:58:46.998Z</time></trkpt><trkpt lat="40.87163392014931" lon="-5.659078164857909"><ele>857.0</ele><time>2026-04-19T12:58:47.998Z</time></trkpt><trkpt lat="40.87181586163006" lon="-5.659171286538835"><ele>857.0</ele><time>2026-04-19T12:58:48.998Z</time></trkpt><trkpt lat="40.87200538577" lon="-5.659253657554739"><ele>857.0</ele><time>2026-04-19T12:58:49.998Z</time></trkpt><trkpt lat="40.87219380594661" lon="-5.659333145854868"><ele>857.0</ele><time>2026-04-19T12:58:50.998Z</time></trkpt><trkpt lat="40.87238203375625" lon="-5.659410786972353"><ele>857.0</ele><time>2026-04-19T12:58:51.998Z</time></trkpt><trkpt lat="40.872573725587955" lon="-5.659481777300398"><ele>857.0</ele><time>2026-04-19T12:58:52.998Z</time></trkpt><trkpt lat="40.87276979389651" lon="-5.659547770644305"><ele>857.0</ele><time>2026-04-19T12:58:53.998Z</time></trkpt><trkpt lat="40.872965045087156" lon="-5.659603493568057"><ele>857.0</ele><time>2026-04-19T12:58:54.998Z</time></trkpt><trkpt lat="40.873159686261104" lon="-5.659650813694637"><ele>857.0</ele><time>2026-04-19T12:58:55.998Z</time></trkpt><trkpt lat="40.873352262269755" lon="-5.659686487264136"><ele>857.0</ele><time>2026-04-19T12:58:56.998Z</time></trkpt><trkpt lat="40.8735454396106" lon="-5.659711360368579"><ele>857.3333333333334</ele><time>2026-04-19T12:58:57.998Z</time></trkpt><trkpt lat="40.8737397725461" lon="-5.659726246724833"><ele>857.6666666666667</ele><time>2026-04-19T12:58:58.998Z</time></trkpt><trkpt lat="40.87393494722284" lon="-5.659734238760009"><ele>858.0</ele><time>2026-04-19T12:58:59.998Z</time></trkpt><trkpt lat="40.874130412295024" lon="-5.659733288000326"><ele>857.6666666666667</ele><time>2026-04-19T12:59:00.998Z</time></trkpt><trkpt lat="40.874326700668334" lon="-5.659716876187867"><ele>857.3333333333334</ele><time>2026-04-19T12:59:01.998Z</time></trkpt><trkpt lat="40.87452185323832" lon="-5.659697540216749"><ele>857.0</ele><time>2026-04-19T12:59:02.998Z</time></trkpt><trkpt lat="40.87471918108077" lon="-5.659666587608847"><ele>857.0</ele><time>2026-04-19T12:59:03.998Z</time></trkpt><trkpt lat="40.87491600931757" lon="-5.65962462624541"><ele>857.0</ele><time>2026-04-19T12:59:04.998Z</time></trkpt><trkpt lat="40.875114149385446" lon="-5.659577450425042"><ele>857.0</ele><time>2026-04-19T12:59:05.998Z</time></trkpt><trkpt lat="40.87531098440365" lon="-5.6595234907415835"><ele>856.0</ele><time>2026-04-19T12:59:06.998Z</time></trkpt><trkpt lat="40.87551088475897" lon="-5.659470706587567"><ele>855.0</ele><time>2026-04-19T12:59:07.998Z</time></trkpt><trkpt lat="40.87571267563123" lon="-5.6594109045518755"><ele>854.0</ele><time>2026-04-19T12:59:08.998Z</time></trkpt><trkpt lat="40.87591243700318" lon="-5.659352516857776"><ele>852.6666666666667</ele><time>2026-04-19T12:59:09.998Z</time></trkpt><trkpt lat="40.87611028254138" lon="-5.659295084982575"><ele>851.3333333333333</ele><time>2026-04-19T12:59:10.998Z</time></trkpt><trkpt lat="40.876309865480074" lon="-5.6592333044691765"><ele>850.0</ele><time>2026-04-19T12:59:11.998Z</time></trkpt><trkpt lat="40.876509958331695" lon="-5.6591769925834"><ele>850.0</ele><time>2026-04-19T12:59:12.998Z</time></trkpt><trkpt lat="40.876714446608766" lon="-5.659132349850424"><ele>850.0</ele><time>2026-04-19T12:59:13.998Z</time></trkpt><trkpt lat="40.876913101422666" lon="-5.659079167142857"><ele>850.0</ele><time>2026-04-19T12:59:14.998Z</time></trkpt><trkpt lat="40.87711118254742" lon="-5.659038526291229"><ele>849.6666666666666</ele><time>2026-04-19T12:59:15.998Z</time></trkpt><trkpt lat="40.877312150137335" lon="-5.659008454081364"><ele>849.3333333333333</ele><time>2026-04-19T12:59:16.998Z</time></trkpt><trkpt lat="40.87751409067006" lon="-5.658988139209867"><ele>849.0</ele><time>2026-04-19T12:59:17.998Z</time></trkpt><trkpt lat="40.87771525358603" lon="-5.658983094966748"><ele>849.0</ele><time>2026-04-19T12:59:18.998Z</time></trkpt><trkpt lat="40.877918815188195" lon="-5.65898776434039"><ele>849.0</ele><time>2026-04-19T12:59:20Z</time></trkpt><trkpt lat="40.87812334652545" lon="-5.659006487107091"><ele>849.0</ele><time>2026-04-19T12:59:21Z</time></trkpt><trkpt lat="40.87832565243567" lon="-5.659039533623542"><ele>848.0</ele><time>2026-04-19T12:59:22Z</time></trkpt><trkpt lat="40.87852576882285" lon="-5.659088017380064"><ele>847.0</ele><time>2026-04-19T12:59:23Z</time></trkpt><trkpt lat="40.878723188294074" lon="-5.659146841128002"><ele>846.0</ele><time>2026-04-19T12:59:24Z</time></trkpt><trkpt lat="40.87891736765526" lon="-5.659219628221567"><ele>846.0</ele><time>2026-04-19T12:59:25Z</time></trkpt><trkpt lat="40.87910767263" lon="-5.659306075331691"><ele>846.0</ele><time>2026-04-19T12:59:26Z</time></trkpt><trkpt lat="40.87929687741677" lon="-5.659404130793383"><ele>846.0</ele><time>2026-04-19T12:59:27Z</time></trkpt><trkpt lat="40.87948150073081" lon="-5.659515341385535"><ele>846.0</ele><time>2026-04-19T12:59:28Z</time></trkpt><trkpt lat="40.879662023960265" lon="-5.659635981743231"><ele>846.0</ele><time>2026-04-19T12:59:29Z</time></trkpt><trkpt lat="40.87983708683327" lon="-5.659767426920935"><ele>846.0</ele><time>2026-04-19T12:59:30Z</time></trkpt><trkpt lat="40.88000717749777" lon="-5.659905977785136"><ele>847.3333333333333</ele><time>2026-04-19T12:59:31Z</time></trkpt><trkpt lat="40.8801707702631" lon="-5.660052507670533"><ele>848.6666666666666</ele><time>2026-04-19T12:59:32Z</time></trkpt><trkpt lat="40.880325500561305" lon="-5.660210313010344"><ele>850.0</ele><time>2026-04-19T12:59:33Z</time></trkpt><trkpt lat="40.880474327464434" lon="-5.660372996176687"><ele>850.0</ele><time>2026-04-19T12:59:34Z</time></trkpt><trkpt lat="40.880620696274605" lon="-5.660538966982435"><ele>850.0</ele><time>2026-04-19T12:59:35Z</time></trkpt><trkpt lat="40.880761975820356" lon="-5.660707164938021"><ele>850.0</ele><time>2026-04-19T12:59:36Z</time></trkpt><trkpt lat="40.88090080606267" lon="-5.660877618191401"><ele>851.0</ele><time>2026-04-19T12:59:37Z</time></trkpt><trkpt lat="40.88103428287307" lon="-5.66104743725423"><ele>852.0</ele><time>2026-04-19T12:59:38Z</time></trkpt><trkpt lat="40.881170335399695" lon="-5.661216640833861"><ele>853.0</ele><time>2026-04-19T12:59:39Z</time></trkpt><trkpt lat="40.881306286936315" lon="-5.661382821175137"><ele>853.0</ele><time>2026-04-19T12:59:40Z</time></trkpt><trkpt lat="40.88144454557377" lon="-5.661545686058908"><ele>853.0</ele><time>2026-04-19T12:59:41Z</time></trkpt><trkpt lat="40.88158154890515" lon="-5.66171256910841"><ele>853.0</ele><time>2026-04-19T12:59:42Z</time></trkpt><trkpt lat="40.88171715605788" lon="-5.661877943171184"><ele>855.0</ele><time>2026-04-19T12:59:43Z</time></trkpt><trkpt lat="40.88185955087728" lon="-5.662039976617391"><ele>857.0</ele><time>2026-04-19T12:59:44Z</time></trkpt><trkpt lat="40.881999271279064" lon="-5.662198631502048"><ele>859.0</ele><time>2026-04-19T12:59:45Z</time></trkpt><trkpt lat="40.8821434824404" lon="-5.66235728538153"><ele>859.0</ele><time>2026-04-19T12:59:46Z</time></trkpt><trkpt lat="40.88228603141182" lon="-5.662509019704631"><ele>859.0</ele><time>2026-04-19T12:59:47Z</time></trkpt><trkpt lat="40.88243440873291" lon="-5.662656062176293"><ele>859.0</ele><time>2026-04-19T12:59:48Z</time></trkpt><trkpt lat="40.88258615093292" lon="-5.6627975072167525"><ele>858.6666666666666</ele><time>2026-04-19T12:59:49Z</time></trkpt><trkpt lat="40.882739659395746" lon="-5.662936793395944"><ele>858.3333333333333</ele><time>2026-04-19T12:59:50Z</time></trkpt><trkpt lat="40.88289817871491" lon="-5.663075696265926"><ele>858.0</ele><time>2026-04-19T12:59:51Z</time></trkpt><trkpt lat="40.883061368690726" lon="-5.663207376373031"><ele>858.0</ele><time>2026-04-19T12:59:52Z</time></trkpt><trkpt lat="40.88322934658634" lon="-5.663328469287175"><ele>858.0</ele><time>2026-04-19T12:59:53Z</time></trkpt><trkpt lat="40.88339892411809" lon="-5.663442013546683"><ele>858.0</ele><time>2026-04-19T12:59:54Z</time></trkpt><trkpt lat="40.88357474780528" lon="-5.663545394032621"><ele>858.3333333333333</ele><time>2026-04-19T12:59:55Z</time></trkpt><trkpt lat="40.88374974648362" lon="-5.6636430125558235"><ele>858.6666666666666</ele><time>2026-04-19T12:59:55.999Z</time></trkpt><trkpt lat="40.88393138746437" lon="-5.663726087524689"><ele>859.0</ele><time>2026-04-19T12:59:56.999Z</time></trkpt><trkpt lat="40.88411535896987" lon="-5.663800543284959"><ele>858.3333333333333</ele><time>2026-04-19T12:59:57.999Z</time></trkpt><trkpt lat="40.884302794370235" lon="-5.663866622521078"><ele>857.6666666666667</ele><time>2026-04-19T12:59:58.999Z</time></trkpt><trkpt lat="40.88449621939496" lon="-5.663924126746107"><ele>857.0</ele><time>2026-04-19T12:59:59.999Z</time></trkpt><trkpt lat="40.884683674986164" lon="-5.66397807670852"><ele>857.0</ele><time>2026-04-19T13:00:00.999Z</time></trkpt><trkpt lat="40.88488012030996" lon="-5.6640242629487485"><ele>857.0</ele><time>2026-04-19T13:00:01.999Z</time></trkpt><trkpt lat="40.885077503104206" lon="-5.664061396847248"><ele>857.0</ele><time>2026-04-19T13:00:02.999Z</time></trkpt><trkpt lat="40.88527743684251" lon="-5.664092845930026"><ele>856.3333333333334</ele><time>2026-04-19T13:00:03.999Z</time></trkpt><trkpt lat="40.885479057494976" lon="-5.664116157963665"><ele>855.6666666666667</ele><time>2026-04-19T13:00:04.999Z</time></trkpt><trkpt lat="40.88568135063704" lon="-5.664128331922506"><ele>855.0</ele><time>2026-04-19T13:00:05.999Z</time></trkpt><trkpt lat="40.88588307897837" lon="-5.664136599498609"><ele>855.0</ele><time>2026-04-19T13:00:06.999Z</time></trkpt><trkpt lat="40.886092970855366" lon="-5.664144469133769"><ele>855.0</ele><time>2026-04-19T13:00:07.999Z</time></trkpt><trkpt lat="40.88629812469447" lon="-5.664154700151818"><ele>855.0</ele><time>2026-04-19T13:00:08.999Z</time></trkpt><trkpt lat="40.88649495903462" lon="-5.6641614123407376"><ele>855.0</ele><time>2026-04-19T13:00:09.999Z</time></trkpt><trkpt lat="40.8867051641815" lon="-5.664162283866258"><ele>855.0</ele><time>2026-04-19T13:00:10.999Z</time></trkpt><trkpt lat="40.88689901120306" lon="-5.664162729741583"><ele>855.0</ele><time>2026-04-19T13:00:11.999Z</time></trkpt><trkpt lat="40.88710364174837" lon="-5.6641708260811665"><ele>854.3333333333333</ele><time>2026-04-19T13:00:12.999Z</time></trkpt><trkpt lat="40.887307174606725" lon="-5.664169346814215"><ele>853.6666666666666</ele><time>2026-04-19T13:00:13.999Z</time></trkpt><trkpt lat="40.88751481460975" lon="-5.664171467246786"><ele>853.0</ele><time>2026-04-19T13:00:14.999Z</time></trkpt><trkpt lat="40.88772062147696" lon="-5.664175200527002"><ele>852.3333333333333</ele><time>2026-04-19T13:00:15.999Z</time></trkpt><trkpt lat="40.887928092131375" lon="-5.664178888694801"><ele>851.6666666666667</ele><time>2026-04-19T13:00:16.999Z</time></trkpt><trkpt lat="40.888138380117454" lon="-5.664183155275996"><ele>851.0</ele><time>2026-04-19T13:00:17.999Z</time></trkpt><trkpt lat="40.88835171539276" lon="-5.664188772449758"><ele>850.3333333333334</ele><time>2026-04-19T13:00:18.999Z</time></trkpt><trkpt lat="40.88856770766944" lon="-5.664193958787707"><ele>849.6666666666667</ele><time>2026-04-19T13:00:19.999Z</time></trkpt><trkpt lat="40.88878243170391" lon="-5.664199529815898"><ele>849.0</ele><time>2026-04-19T13:00:20.999Z</time></trkpt><trkpt lat="40.889003665832995" lon="-5.664198926459961"><ele>849.0</ele><time>2026-04-19T13:00:21.999Z</time></trkpt><trkpt lat="40.88921960999265" lon="-5.664203620810763"><ele>849.0</ele><time>2026-04-19T13:00:22.999Z</time></trkpt><trkpt lat="40.88943638991154" lon="-5.66420538622403"><ele>849.0</ele><time>2026-04-19T13:00:23.999Z</time></trkpt><trkpt lat="40.88965199000659" lon="-5.6642086109193"><ele>848.3333333333333</ele><time>2026-04-19T13:00:24.999Z</time></trkpt><trkpt lat="40.889866504287625" lon="-5.664212933845156"><ele>847.6666666666666</ele><time>2026-04-19T13:00:25.999Z</time></trkpt><trkpt lat="40.890079643996465" lon="-5.664217168966803"><ele>847.0</ele><time>2026-04-19T13:00:26.999Z</time></trkpt><trkpt lat="40.890293463878436" lon="-5.6642193472872995"><ele>846.6666666666666</ele><time>2026-04-19T13:00:27.999Z</time></trkpt><trkpt lat="40.890503412152874" lon="-5.664222073537372"><ele>846.3333333333333</ele><time>2026-04-19T13:00:28.999Z</time></trkpt><trkpt lat="40.89071816602772" lon="-5.664224375684151"><ele>846.0</ele><time>2026-04-19T13:00:29.999Z</time></trkpt><trkpt lat="40.89093197343701" lon="-5.664228516754748"><ele>844.6666666666667</ele><time>2026-04-19T13:00:30.999Z</time></trkpt><trkpt lat="40.89114943882651" lon="-5.6642309888754765"><ele>843.3333333333334</ele><time>2026-04-19T13:00:31.999Z</time></trkpt><trkpt lat="40.891362877534306" lon="-5.664237631771315"><ele>842.0</ele><time>2026-04-19T13:00:32.999Z</time></trkpt><trkpt lat="40.891579546902406" lon="-5.664244157518749"><ele>841.0</ele><time>2026-04-19T13:00:33.999Z</time></trkpt><trkpt lat="40.8917982635008" lon="-5.664250615822118"><ele>840.0</ele><time>2026-04-19T13:00:34.999Z</time></trkpt><trkpt lat="40.89201962436892" lon="-5.664252938940857"><ele>839.0</ele><time>2026-04-19T13:00:35.999Z</time></trkpt><trkpt lat="40.89223761013752" lon="-5.664257299744063"><ele>839.0</ele><time>2026-04-19T13:00:36.999Z</time></trkpt><trkpt lat="40.89245719757987" lon="-5.664262181895064"><ele>839.0</ele><time>2026-04-19T13:00:37.999Z</time></trkpt><trkpt lat="40.89267440789744" lon="-5.664267319785918"><ele>839.0</ele><time>2026-04-19T13:00:38.999Z</time></trkpt><trkpt lat="40.89289161019102" lon="-5.6642689225725675"><ele>838.5</ele><time>2026-04-19T13:00:39.999Z</time></trkpt><trkpt lat="40.8931236598666" lon="-5.664270664759695"><ele>838.0</ele><time>2026-04-19T13:00:40.999Z</time></trkpt><trkpt lat="40.89334440371685" lon="-5.664275763099685"><ele>837.3333333333333</ele><time>2026-04-19T13:00:41.999Z</time></trkpt><trkpt lat="40.89355837337114" lon="-5.6642837315341446"><ele>836.6666666666667</ele><time>2026-04-19T13:00:42.999Z</time></trkpt><trkpt lat="40.89377586277664" lon="-5.664284216173198"><ele>836.0</ele><time>2026-04-19T13:00:43.998Z</time></trkpt><trkpt lat="40.89399505269644" lon="-5.664281288268307"><ele>836.0</ele><time>2026-04-19T13:00:44.998Z</time></trkpt><trkpt lat="40.89420663683637" lon="-5.664286303662168"><ele>836.0</ele><time>2026-04-19T13:00:45.998Z</time></trkpt><trkpt lat="40.894412015406104" lon="-5.664298352650239"><ele>836.0</ele><time>2026-04-19T13:00:46.998Z</time></trkpt><trkpt lat="40.894625881515886" lon="-5.664306286341689"><ele>835.3333333333334</ele><time>2026-04-19T13:00:47.998Z</time></trkpt><trkpt lat="40.89483629980996" lon="-5.664308216824219"><ele>834.6666666666667</ele><time>2026-04-19T13:00:48.998Z</time></trkpt><trkpt lat="40.895046011936756" lon="-5.664312472399276"><ele>834.0</ele><time>2026-04-19T13:00:49.998Z</time></trkpt><trkpt lat="40.89525348692166" lon="-5.664311342735194"><ele>833.3333333333333</ele><time>2026-04-19T13:00:50.998Z</time></trkpt><trkpt lat="40.895458570530366" lon="-5.664312379732116"><ele>832.6666666666666</ele><time>2026-04-19T13:00:51.998Z</time></trkpt><trkpt lat="40.89567442867115" lon="-5.664319703078799"><ele>832.0</ele><time>2026-04-19T13:00:52.998Z</time></trkpt><trkpt lat="40.89588809719992" lon="-5.664323942173555"><ele>831.0</ele><time>2026-04-19T13:00:53.998Z</time></trkpt><trkpt lat="40.89609674499414" lon="-5.664325204668666"><ele>830.0</ele><time>2026-04-19T13:00:54.998Z</time></trkpt><trkpt lat="40.89630368956614" lon="-5.664327528093701"><ele>829.0</ele><time>2026-04-19T13:00:55.998Z</time></trkpt><trkpt lat="40.89651004543575" lon="-5.6643308550810225"><ele>829.0</ele><time>2026-04-19T13:00:56.998Z</time></trkpt><trkpt lat="40.896718175722" lon="-5.664333275127933"><ele>829.0</ele><time>2026-04-19T13:00:57.998Z</time></trkpt><trkpt lat="40.89692671292908" lon="-5.664340139663934"><ele>829.0</ele><time>2026-04-19T13:00:58.998Z</time></trkpt><trkpt lat="40.89713329728437" lon="-5.664343482177551"><ele>828.3333333333333</ele><time>2026-04-19T13:00:59.998Z</time></trkpt><trkpt lat="40.897336548124784" lon="-5.664345937501202"><ele>827.6666666666667</ele><time>2026-04-19T13:01:00.998Z</time></trkpt><trkpt lat="40.89754221947078" lon="-5.664349668001764"><ele>827.0</ele><time>2026-04-19T13:01:01.998Z</time></trkpt><trkpt lat="40.89774503745758" lon="-5.664351673620728"><ele>827.0</ele><time>2026-04-19T13:01:02.998Z</time></trkpt><trkpt lat="40.89794595938118" lon="-5.664352636913196"><ele>827.0</ele><time>2026-04-19T13:01:03.998Z</time></trkpt><trkpt lat="40.89814790520972" lon="-5.664353985973008"><ele>827.0</ele><time>2026-04-19T13:01:04.998Z</time></trkpt><trkpt lat="40.89834889722308" lon="-5.6643593261278795"><ele>826.0</ele><time>2026-04-19T13:01:05.998Z</time></trkpt><trkpt lat="40.8985514534741" lon="-5.6643614263422775"><ele>825.0</ele><time>2026-04-19T13:01:06.998Z</time></trkpt><trkpt lat="40.89875603502329" lon="-5.664364431928668"><ele>824.0</ele><time>2026-04-19T13:01:07.998Z</time></trkpt><trkpt lat="40.898961066136906" lon="-5.664368584874409"><ele>824.0</ele><time>2026-04-19T13:01:08.998Z</time></trkpt><trkpt lat="40.89916762442464" lon="-5.664375661895611"><ele>824.0</ele><time>2026-04-19T13:01:09.998Z</time></trkpt><trkpt lat="40.899375142258094" lon="-5.664380754057865"><ele>824.0</ele><time>2026-04-19T13:01:10.998Z</time></trkpt><trkpt lat="40.899581151722934" lon="-5.664386829276839"><ele>824.0</ele><time>2026-04-19T13:01:11.998Z</time></trkpt><trkpt lat="40.89978827129933" lon="-5.664391639193187"><ele>824.0</ele><time>2026-04-19T13:01:12.998Z</time></trkpt><trkpt lat="40.89999319442093" lon="-5.664396339357704"><ele>824.0</ele><time>2026-04-19T13:01:13.998Z</time></trkpt><trkpt lat="40.90019643361326" lon="-5.664405322714665"><ele>824.0</ele><time>2026-04-19T13:01:14.998Z</time></trkpt><trkpt lat="40.90040030116037" lon="-5.664408683915551"><ele>824.0</ele><time>2026-04-19T13:01:15.998Z</time></trkpt><trkpt lat="40.90060189869844" lon="-5.664414320466706"><ele>824.0</ele><time>2026-04-19T13:01:16.998Z</time></trkpt><trkpt lat="40.90080368339779" lon="-5.664417650074137"><ele>823.3333333333334</ele><time>2026-04-19T13:01:17.998Z</time></trkpt><trkpt lat="40.90100666397992" lon="-5.664419536561005"><ele>822.6666666666667</ele><time>2026-04-19T13:01:18.998Z</time></trkpt><trkpt lat="40.90121085982932" lon="-5.664420027549207"><ele>822.0</ele><time>2026-04-19T13:01:19.998Z</time></trkpt><trkpt lat="40.90140811851883" lon="-5.664420480497166"><ele>822.0</ele><time>2026-04-19T13:01:20.998Z</time></trkpt><trkpt lat="40.90161202764341" lon="-5.664418922084513"><ele>822.0</ele><time>2026-04-19T13:01:21.998Z</time></trkpt><trkpt lat="40.901811472551586" lon="-5.664419336624326"><ele>822.0</ele><time>2026-04-19T13:01:22.998Z</time></trkpt><trkpt lat="40.90201331570056" lon="-5.66442210377742"><ele>821.6666666666667</ele><time>2026-04-19T13:01:23.998Z</time></trkpt><trkpt lat="40.90221382287906" lon="-5.664424800608397"><ele>821.3333333333334</ele><time>2026-04-19T13:01:24.998Z</time></trkpt><trkpt lat="40.90241744915031" lon="-5.664429803165395"><ele>821.0</ele><time>2026-04-19T13:01:26Z</time></trkpt><trkpt lat="40.902620140172466" lon="-5.664437003018363"><ele>820.6666666666667</ele><time>2026-04-19T13:01:27Z</time></trkpt><trkpt lat="40.90282443196758" lon="-5.664442643790471"><ele>820.3333333333333</ele><time>2026-04-19T13:01:28Z</time></trkpt><trkpt lat="40.90302660493307" lon="-5.664447523503101"><ele>820.0</ele><time>2026-04-19T13:01:29Z</time></trkpt><trkpt lat="40.9032275288894" lon="-5.664449689587703"><ele>820.6666666666666</ele><time>2026-04-19T13:01:30Z</time></trkpt><trkpt lat="40.90343044499416" lon="-5.664454296552865"><ele>821.3333333333333</ele><time>2026-04-19T13:01:31Z</time></trkpt><trkpt lat="40.90363536716168" lon="-5.664460087017389"><ele>822.0</ele><time>2026-04-19T13:01:32Z</time></trkpt><trkpt lat="40.903838487008265" lon="-5.664462638444249"><ele>822.0</ele><time>2026-04-19T13:01:33Z</time></trkpt><trkpt lat="40.904047208784476" lon="-5.664464017073976"><ele>822.0</ele><time>2026-04-19T13:01:34Z</time></trkpt><trkpt lat="40.90425298354174" lon="-5.664467048352367"><ele>822.0</ele><time>2026-04-19T13:01:35Z</time></trkpt><trkpt lat="40.90445836135124" lon="-5.664469666712229"><ele>822.0</ele><time>2026-04-19T13:01:36Z</time></trkpt><trkpt lat="40.90465301683506" lon="-5.664474307958985"><ele>822.0</ele><time>2026-04-19T13:01:37Z</time></trkpt><trkpt lat="40.9048584823018" lon="-5.664480568041224"><ele>822.0</ele><time>2026-04-19T13:01:38Z</time></trkpt><trkpt lat="40.905065296814406" lon="-5.664483922036306"><ele>821.6666666666667</ele><time>2026-04-19T13:01:39Z</time></trkpt><trkpt lat="40.90526589877387" lon="-5.664493366695138"><ele>821.3333333333334</ele><time>2026-04-19T13:01:40Z</time></trkpt><trkpt lat="40.90547474073175" lon="-5.6644939709241555"><ele>821.0</ele><time>2026-04-19T13:01:41Z</time></trkpt><trkpt lat="40.90567991099627" lon="-5.664495604521497"><ele>821.0</ele><time>2026-04-19T13:01:42Z</time></trkpt><trkpt lat="40.90588850087658" lon="-5.664502119438833"><ele>821.0</ele><time>2026-04-19T13:01:43Z</time></trkpt><trkpt lat="40.90609703870028" lon="-5.664504761393919"><ele>821.0</ele><time>2026-04-19T13:01:44Z</time></trkpt><trkpt lat="40.90630384090496" lon="-5.664507038955036"><ele>821.0</ele><time>2026-04-19T13:01:45Z</time></trkpt><trkpt lat="40.90651115324841" lon="-5.66450741440914"><ele>821.0</ele><time>2026-04-19T13:01:46Z</time></trkpt><trkpt lat="40.90671638342388" lon="-5.664509377053877"><ele>821.0</ele><time>2026-04-19T13:01:47Z</time></trkpt><trkpt lat="40.90692334314218" lon="-5.664513839820506"><ele>822.0</ele><time>2026-04-19T13:01:48Z</time></trkpt><trkpt lat="40.907126030557386" lon="-5.664514029046605"><ele>823.0</ele><time>2026-04-19T13:01:49Z</time></trkpt><trkpt lat="40.90732880599399" lon="-5.664518407223913"><ele>824.0</ele><time>2026-04-19T13:01:50Z</time></trkpt><trkpt lat="40.9075315399288" lon="-5.664523155215328"><ele>824.0</ele><time>2026-04-19T13:01:51Z</time></trkpt><trkpt lat="40.90773230007228" lon="-5.664524314082696"><ele>824.0</ele><time>2026-04-19T13:01:52Z</time></trkpt><trkpt lat="40.90793421263964" lon="-5.66452673434391"><ele>824.0</ele><time>2026-04-19T13:01:53Z</time></trkpt><trkpt lat="40.908135590228504" lon="-5.664525591121306"><ele>824.0</ele><time>2026-04-19T13:01:54Z</time></trkpt><trkpt lat="40.908333715867876" lon="-5.664530173297113"><ele>824.0</ele><time>2026-04-19T13:01:55Z</time></trkpt><trkpt lat="40.9085317200163" lon="-5.664535759837336"><ele>824.0</ele><time>2026-04-19T13:01:56Z</time></trkpt><trkpt lat="40.908729031111264" lon="-5.664540434851134"><ele>824.6666666666667</ele><time>2026-04-19T13:01:57Z</time></trkpt><trkpt lat="40.90892425430723" lon="-5.6645447610640485"><ele>825.3333333333333</ele><time>2026-04-19T13:01:58Z</time></trkpt><trkpt lat="40.909117449608196" lon="-5.664547726443744"><ele>826.0</ele><time>2026-04-19T13:01:59Z</time></trkpt><trkpt lat="40.90930814744428" lon="-5.66455073320201"><ele>827.0</ele><time>2026-04-19T13:02:00Z</time></trkpt><trkpt lat="40.90949755924356" lon="-5.6645541453751065"><ele>828.0</ele><time>2026-04-19T13:02:01Z</time></trkpt><trkpt lat="40.90968778908304" lon="-5.664557646337804"><ele>829.0</ele><time>2026-04-19T13:02:02Z</time></trkpt><trkpt lat="40.90987339520352" lon="-5.66456183339608"><ele>829.0</ele><time>2026-04-19T13:02:02.999Z</time></trkpt><trkpt lat="40.910059305761614" lon="-5.664567568667792"><ele>829.0</ele><time>2026-04-19T13:02:03.999Z</time></trkpt><trkpt lat="40.91024491318538" lon="-5.664569034511965"><ele>829.0</ele><time>2026-04-19T13:02:04.999Z</time></trkpt><trkpt lat="40.91042904667835" lon="-5.664569262391776"><ele>830.0</ele><time>2026-04-19T13:02:05.999Z</time></trkpt><trkpt lat="40.9106181635683" lon="-5.664570123981567"><ele>831.0</ele><time>2026-04-19T13:02:06.999Z</time></trkpt><trkpt lat="40.910804739923634" lon="-5.664573823864785"><ele>832.0</ele><time>2026-04-19T13:02:07.999Z</time></trkpt><trkpt lat="40.91098968256806" lon="-5.664578788730632"><ele>832.0</ele><time>2026-04-19T13:02:08.999Z</time></trkpt><trkpt lat="40.91117656632257" lon="-5.664584122804938"><ele>832.0</ele><time>2026-04-19T13:02:09.999Z</time></trkpt><trkpt lat="40.91136543567132" lon="-5.664588531969412"><ele>832.0</ele><time>2026-04-19T13:02:10.999Z</time></trkpt><trkpt lat="40.911558190616894" lon="-5.664594654684009"><ele>830.0</ele><time>2026-04-19T13:02:11.999Z</time></trkpt><trkpt lat="40.91175220627211" lon="-5.664595301834956"><ele>828.0</ele><time>2026-04-19T13:02:12.999Z</time></trkpt><trkpt lat="40.91194606786768" lon="-5.664596183403166"><ele>826.0</ele><time>2026-04-19T13:02:13.999Z</time></trkpt><trkpt lat="40.91213906334405" lon="-5.664603774245326"><ele>826.0</ele><time>2026-04-19T13:02:14.999Z</time></trkpt><trkpt lat="40.912332168856004" lon="-5.664611760015186"><ele>826.0</ele><time>2026-04-19T13:02:15.999Z</time></trkpt><trkpt lat="40.91252037355091" lon="-5.66461799268628"><ele>826.0</ele><time>2026-04-19T13:02:16.999Z</time></trkpt><trkpt lat="40.912711545612346" lon="-5.664628477830107"><ele>824.3333333333333</ele><time>2026-04-19T13:02:17.999Z</time></trkpt><trkpt lat="40.912900365432" lon="-5.6646445572366915"><ele>822.6666666666667</ele><time>2026-04-19T13:02:18.999Z</time></trkpt><trkpt lat="40.91308911330128" lon="-5.66466322747167"><ele>821.0</ele><time>2026-04-19T13:02:19.999Z</time></trkpt><trkpt lat="40.913268932195834" lon="-5.664686848199323"><ele>819.6666666666667</ele><time>2026-04-19T13:02:20.999Z</time></trkpt><trkpt lat="40.913446838698945" lon="-5.664723171596433"><ele>818.3333333333333</ele><time>2026-04-19T13:02:21.999Z</time></trkpt><trkpt lat="40.91362106874448" lon="-5.664764482579651"><ele>817.0</ele><time>2026-04-19T13:02:22.999Z</time></trkpt><trkpt lat="40.91379193145267" lon="-5.664806608196448"><ele>817.0</ele><time>2026-04-19T13:02:23.999Z</time></trkpt><trkpt lat="40.913960726954514" lon="-5.664848329570296"><ele>817.0</ele><time>2026-04-19T13:02:24.999Z</time></trkpt><trkpt lat="40.91412593329059" lon="-5.664890605343668"><ele>817.0</ele><time>2026-04-19T13:02:25.999Z</time></trkpt><trkpt lat="40.9142842848668" lon="-5.664937494925496"><ele>817.0</ele><time>2026-04-19T13:02:26.999Z</time></trkpt><trkpt lat="40.91444282637885" lon="-5.664984013986005"><ele>817.0</ele><time>2026-04-19T13:02:27.999Z</time></trkpt><trkpt lat="40.914591937335445" lon="-5.665023438453175"><ele>817.0</ele><time>2026-04-19T13:02:28.999Z</time></trkpt><trkpt lat="40.91474017291637" lon="-5.665062721727567"><ele>817.0</ele><time>2026-04-19T13:02:29.999Z</time></trkpt><trkpt lat="40.914885744386254" lon="-5.665096985046116"><ele>817.0</ele><time>2026-04-19T13:02:30.999Z</time></trkpt><trkpt lat="40.91501890462431" lon="-5.665133921888358"><ele>817.0</ele><time>2026-04-19T13:02:31.999Z</time></trkpt><trkpt lat="40.91514826045572" lon="-5.665170500941989"><ele>817.0</ele><time>2026-04-19T13:02:32.999Z</time></trkpt><trkpt lat="40.91527555331857" lon="-5.665205218701216"><ele>816.0</ele><time>2026-04-19T13:02:33.999Z</time></trkpt><trkpt lat="40.91539394190222" lon="-5.66521697304055"><ele>815.0</ele><time>2026-04-19T13:02:34.999Z</time></trkpt><trkpt lat="40.91550954826358" lon="-5.665213347593222"><ele>814.0</ele><time>2026-04-19T13:02:35.999Z</time></trkpt><trkpt lat="40.91562875760007" lon="-5.665206157448176"><ele>813.0</ele><time>2026-04-19T13:02:36.999Z</time></trkpt><trkpt lat="40.91575277478574" lon="-5.665229098933371"><ele>813.25</ele><time>2026-04-19T13:02:37.999Z</time></trkpt><trkpt lat="40.91587048293788" lon="-5.66528660109229"><ele>813.5</ele><time>2026-04-19T13:02:38.999Z</time></trkpt><trkpt lat="40.91599272802774" lon="-5.665365092902703"><ele>813.75</ele><time>2026-04-19T13:02:39.999Z</time></trkpt><trkpt lat="40.916125957354" lon="-5.665427273525876"><ele>814.0</ele><time>2026-04-19T13:02:40.999Z</time></trkpt><trkpt lat="40.91627306514633" lon="-5.665469375681277"><ele>813.0</ele><time>2026-04-19T13:02:41.999Z</time></trkpt><trkpt lat="40.91642941290487" lon="-5.665509284122494"><ele>812.0</ele><time>2026-04-19T13:02:42.999Z</time></trkpt><trkpt lat="40.916591007483866" lon="-5.66555307002124"><ele>811.0</ele><time>2026-04-19T13:02:43.999Z</time></trkpt><trkpt lat="40.91676067550215" lon="-5.665597763926878"><ele>809.3333333333333</ele><time>2026-04-19T13:02:44.999Z</time></trkpt><trkpt lat="40.91693865918483" lon="-5.665645480193578"><ele>807.6666666666667</ele><time>2026-04-19T13:02:45.999Z</time></trkpt><trkpt lat="40.917118819632925" lon="-5.6656946604518215"><ele>806.0</ele><time>2026-04-19T13:02:46.999Z</time></trkpt><trkpt lat="40.91730936430339" lon="-5.665741046531503"><ele>806.0</ele><time>2026-04-19T13:02:47.999Z</time></trkpt><trkpt lat="40.91749959555086" lon="-5.665791554371127"><ele>806.0</ele><time>2026-04-19T13:02:48.999Z</time></trkpt><trkpt lat="40.91769388241639" lon="-5.665843507500074"><ele>806.0</ele><time>2026-04-19T13:02:49.999Z</time></trkpt><trkpt lat="40.91789052261392" lon="-5.665901317531791"><ele>805.3333333333334</ele><time>2026-04-19T13:02:50.999Z</time></trkpt><trkpt lat="40.91809168179578" lon="-5.665972852359541"><ele>804.6666666666667</ele><time>2026-04-19T13:02:51.998Z</time></trkpt><trkpt lat="40.918282718947445" lon="-5.666065147476757"><ele>804.0</ele><time>2026-04-19T13:02:52.998Z</time></trkpt><trkpt lat="40.91846907607022" lon="-5.6661783317368"><ele>804.0</ele><time>2026-04-19T13:02:53.998Z</time></trkpt><trkpt lat="40.91864892953684" lon="-5.666314396317824"><ele>804.0</ele><time>2026-04-19T13:02:54.998Z</time></trkpt><trkpt lat="40.91881088849313" lon="-5.666467926923674"><ele>804.0</ele><time>2026-04-19T13:02:55.998Z</time></trkpt><trkpt lat="40.918959432289846" lon="-5.666638237844619"><ele>804.0</ele><time>2026-04-19T13:02:56.998Z</time></trkpt><trkpt lat="40.91910084233159" lon="-5.666821834723241"><ele>804.0</ele><time>2026-04-19T13:02:57.998Z</time></trkpt><trkpt lat="40.91922706384417" lon="-5.667010031967425"><ele>804.0</ele><time>2026-04-19T13:02:58.998Z</time></trkpt><trkpt lat="40.91933739695815" lon="-5.667203694014716"><ele>804.0</ele><time>2026-04-19T13:02:59.998Z</time></trkpt><trkpt lat="40.919438025671866" lon="-5.667399744997237"><ele>804.0</ele><time>2026-04-19T13:03:00.998Z</time></trkpt><trkpt lat="40.91954086543966" lon="-5.667591473567925"><ele>804.0</ele><time>2026-04-19T13:03:01.998Z</time></trkpt><trkpt lat="40.919647393606816" lon="-5.667780390478445"><ele>804.6666666666667</ele><time>2026-04-19T13:03:02.998Z</time></trkpt><trkpt lat="40.91976013164333" lon="-5.667963611327448"><ele>805.3333333333334</ele><time>2026-04-19T13:03:03.998Z</time></trkpt><trkpt lat="40.91987923338233" lon="-5.668136260220017"><ele>806.0</ele><time>2026-04-19T13:03:04.998Z</time></trkpt><trkpt lat="40.920008998296005" lon="-5.66829530498237"><ele>808.3333333333334</ele><time>2026-04-19T13:03:05.998Z</time></trkpt><trkpt lat="40.92014911468902" lon="-5.668433034664503"><ele>810.6666666666667</ele><time>2026-04-19T13:03:06.998Z</time></trkpt><trkpt lat="40.92029431937399" lon="-5.668558112375508"><ele>813.0</ele><time>2026-04-19T13:03:07.998Z</time></trkpt><trkpt lat="40.920445179868416" lon="-5.668667610325325"><ele>814.6666666666667</ele><time>2026-04-19T13:03:08.998Z</time></trkpt><trkpt lat="40.920605893459765" lon="-5.668762656774206"><ele>816.3333333333334</ele><time>2026-04-19T13:03:09.998Z</time></trkpt><trkpt lat="40.92077229035556" lon="-5.668840497257436"><ele>818.0</ele><time>2026-04-19T13:03:10.998Z</time></trkpt><trkpt lat="40.920949132251124" lon="-5.6689005956108165"><ele>818.6666666666667</ele><time>2026-04-19T13:03:11.998Z</time></trkpt><trkpt lat="40.92112503912745" lon="-5.668943715302887"><ele>819.3333333333333</ele><time>2026-04-19T13:03:12.998Z</time></trkpt><trkpt lat="40.92130004641419" lon="-5.668966744345633"><ele>820.0</ele><time>2026-04-19T13:03:13.998Z</time></trkpt><trkpt lat="40.92147832274765" lon="-5.668971011206514"><ele>820.0</ele><time>2026-04-19T13:03:14.998Z</time></trkpt><trkpt lat="40.92166216410683" lon="-5.668955074413684"><ele>820.0</ele><time>2026-04-19T13:03:15.998Z</time></trkpt><trkpt lat="40.92184138081729" lon="-5.66892437006602"><ele>820.0</ele><time>2026-04-19T13:03:16.998Z</time></trkpt><trkpt lat="40.9220192336859" lon="-5.668872407900799"><ele>818.3333333333333</ele><time>2026-04-19T13:03:17.998Z</time></trkpt><trkpt lat="40.92219456209474" lon="-5.6687987347747075"><ele>816.6666666666667</ele><time>2026-04-19T13:03:18.998Z</time></trkpt><trkpt lat="40.9223700821381" lon="-5.668720555434745"><ele>815.0</ele><time>2026-04-19T13:03:19.998Z</time></trkpt><trkpt lat="40.92254575895409" lon="-5.668640316789359"><ele>814.6666666666667</ele><time>2026-04-19T13:03:20.998Z</time></trkpt><trkpt lat="40.92272301733507" lon="-5.668557001107259"><ele>814.3333333333333</ele><time>2026-04-19T13:03:21.998Z</time></trkpt><trkpt lat="40.92290168086586" lon="-5.668473785342724"><ele>814.0</ele><time>2026-04-19T13:03:22.998Z</time></trkpt><trkpt lat="40.9230842694546" lon="-5.668396219588171"><ele>814.0</ele><time>2026-04-19T13:03:23.998Z</time></trkpt><trkpt lat="40.92327169625719" lon="-5.668330768985156"><ele>814.0</ele><time>2026-04-19T13:03:24.998Z</time></trkpt><trkpt lat="40.92345915698509" lon="-5.668281546081353"><ele>814.0</ele><time>2026-04-19T13:03:25.998Z</time></trkpt><trkpt lat="40.92363614746427" lon="-5.668253880971246"><ele>814.0</ele><time>2026-04-19T13:03:26.998Z</time></trkpt><trkpt lat="40.92383829526541" lon="-5.668213125002008"><ele>814.0</ele><time>2026-04-19T13:03:27.998Z</time></trkpt><trkpt lat="40.92404879070769" lon="-5.668184427530054"><ele>814.0</ele><time>2026-04-19T13:03:28.998Z</time></trkpt><trkpt lat="40.924252138555644" lon="-5.668169438667202"><ele>814.0</ele><time>2026-04-19T13:03:29.998Z</time></trkpt><trkpt lat="40.924452692395846" lon="-5.668171321888617"><ele>814.0</ele><time>2026-04-19T13:03:30.998Z</time></trkpt><trkpt lat="40.924665077695934" lon="-5.668180211516056"><ele>814.0</ele><time>2026-04-19T13:03:32Z</time></trkpt><trkpt lat="40.924876054605406" lon="-5.668196469320751"><ele>813.6666666666666</ele><time>2026-04-19T13:03:33Z</time></trkpt><trkpt lat="40.92508492705713" lon="-5.668219259783244"><ele>813.3333333333333</ele><time>2026-04-19T13:03:34Z</time></trkpt><trkpt lat="40.92529008536048" lon="-5.668244758263941"><ele>813.0</ele><time>2026-04-19T13:03:35Z</time></trkpt><trkpt lat="40.925489464086574" lon="-5.668266726076874"><ele>813.0</ele><time>2026-04-19T13:03:36Z</time></trkpt><trkpt lat="40.92568470551356" lon="-5.6682895084081855"><ele>813.0</ele><time>2026-04-19T13:03:37Z</time></trkpt><trkpt lat="40.9258817136451" lon="-5.66831098773222"><ele>813.0</ele><time>2026-04-19T13:03:38Z</time></trkpt><trkpt lat="40.926075312293825" lon="-5.668335968027153"><ele>813.3333333333333</ele><time>2026-04-19T13:03:39Z</time></trkpt><trkpt lat="40.92626585882361" lon="-5.668359228565599"><ele>813.6666666666666</ele><time>2026-04-19T13:03:40Z</time></trkpt><trkpt lat="40.92645319997646" lon="-5.66838486448392"><ele>814.0</ele><time>2026-04-19T13:03:41Z</time></trkpt><trkpt lat="40.92664309297801" lon="-5.668409327688094"><ele>815.0</ele><time>2026-04-19T13:03:42Z</time></trkpt><trkpt lat="40.926833818500015" lon="-5.66843033781783"><ele>816.0</ele><time>2026-04-19T13:03:43Z</time></trkpt><trkpt lat="40.92702498718705" lon="-5.66845335932298"><ele>817.0</ele><time>2026-04-19T13:03:44Z</time></trkpt><trkpt lat="40.9272144680627" lon="-5.668477492970986"><ele>817.0</ele><time>2026-04-19T13:03:45Z</time></trkpt><trkpt lat="40.92740114983714" lon="-5.668503970247672"><ele>817.0</ele><time>2026-04-19T13:03:46Z</time></trkpt><trkpt lat="40.92758524048314" lon="-5.6685259034722835"><ele>817.0</ele><time>2026-04-19T13:03:47Z</time></trkpt><trkpt lat="40.92777585694241" lon="-5.668549555617471"><ele>818.0</ele><time>2026-04-19T13:03:48Z</time></trkpt><trkpt lat="40.92796108055739" lon="-5.668566297065091"><ele>819.0</ele><time>2026-04-19T13:03:49Z</time></trkpt><trkpt lat="40.92815898356614" lon="-5.668576809500936"><ele>820.0</ele><time>2026-04-19T13:03:50Z</time></trkpt><trkpt lat="40.92834543858386" lon="-5.668598423302122"><ele>821.3333333333333</ele><time>2026-04-19T13:03:51Z</time></trkpt><trkpt lat="40.92852540439811" lon="-5.668619950782745"><ele>822.6666666666667</ele><time>2026-04-19T13:03:52Z</time></trkpt><trkpt lat="40.92869907447811" lon="-5.668646616529186"><ele>824.0</ele><time>2026-04-19T13:03:53Z</time></trkpt><trkpt lat="40.92888532772277" lon="-5.668672872142063"><ele>824.0</ele><time>2026-04-19T13:03:54Z</time></trkpt><trkpt lat="40.92906744550985" lon="-5.668699170305915"><ele>824.0</ele><time>2026-04-19T13:03:55Z</time></trkpt><trkpt lat="40.92924667339189" lon="-5.66872448360993"><ele>824.0</ele><time>2026-04-19T13:03:56Z</time></trkpt><trkpt lat="40.92943169966091" lon="-5.668748055807981"><ele>823.3333333333334</ele><time>2026-04-19T13:03:57Z</time></trkpt><trkpt lat="40.92962260169483" lon="-5.668767026378908"><ele>822.6666666666667</ele><time>2026-04-19T13:03:58Z</time></trkpt><trkpt lat="40.92981008461433" lon="-5.66879156435817"><ele>822.0</ele><time>2026-04-19T13:03:59Z</time></trkpt><trkpt lat="40.92999803011174" lon="-5.668816627880429"><ele>822.3333333333333</ele><time>2026-04-19T13:04:00Z</time></trkpt><trkpt lat="40.93018629970154" lon="-5.668845254015945"><ele>822.6666666666666</ele><time>2026-04-19T13:04:01Z</time></trkpt><trkpt lat="40.93037062595048" lon="-5.668873790256248"><ele>823.0</ele><time>2026-04-19T13:04:02Z</time></trkpt><trkpt lat="40.93055663012009" lon="-5.668892312713653"><ele>823.0</ele><time>2026-04-19T13:04:03Z</time></trkpt><trkpt lat="40.93074389198804" lon="-5.66891843251997"><ele>823.0</ele><time>2026-04-19T13:04:04Z</time></trkpt><trkpt lat="40.93093459250207" lon="-5.668929371090303"><ele>823.0</ele><time>2026-04-19T13:04:05Z</time></trkpt><trkpt lat="40.93112620328274" lon="-5.6689363300216895"><ele>823.6666666666666</ele><time>2026-04-19T13:04:06Z</time></trkpt><trkpt lat="40.93131667080889" lon="-5.668937769597149"><ele>824.3333333333333</ele><time>2026-04-19T13:04:07Z</time></trkpt><trkpt lat="40.93151075873876" lon="-5.66893155741473"><ele>825.0</ele><time>2026-04-19T13:04:08Z</time></trkpt><trkpt lat="40.93171117921514" lon="-5.66893277859977"><ele>826.0</ele><time>2026-04-19T13:04:09Z</time></trkpt><trkpt lat="40.931918797166176" lon="-5.668935090144759"><ele>827.0</ele><time>2026-04-19T13:04:09.999Z</time></trkpt><trkpt lat="40.93211674593607" lon="-5.668924041121393"><ele>828.0</ele><time>2026-04-19T13:04:10.999Z</time></trkpt><trkpt lat="40.93231691636124" lon="-5.6689126498936835"><ele>828.0</ele><time>2026-04-19T13:04:11.999Z</time></trkpt><trkpt lat="40.93251341397692" lon="-5.6688956176083"><ele>828.0</ele><time>2026-04-19T13:04:12.999Z</time></trkpt><trkpt lat="40.93271672403035" lon="-5.668854055956197"><ele>828.0</ele><time>2026-04-19T13:04:13.999Z</time></trkpt><trkpt lat="40.93292486797523" lon="-5.668792180072963"><ele>828.3333333333333</ele><time>2026-04-19T13:04:14.999Z</time></trkpt><trkpt lat="40.93314007123601" lon="-5.668720150136237"><ele>828.6666666666666</ele><time>2026-04-19T13:04:15.999Z</time></trkpt><trkpt lat="40.93334536123028" lon="-5.668660241503703"><ele>829.0</ele><time>2026-04-19T13:04:16.999Z</time></trkpt><trkpt lat="40.933539409174195" lon="-5.66858235100018"><ele>828.0</ele><time>2026-04-19T13:04:17.999Z</time></trkpt><trkpt lat="40.93371911719041" lon="-5.668498757209881"><ele>827.0</ele><time>2026-04-19T13:04:18.999Z</time></trkpt><trkpt lat="40.93387353416343" lon="-5.668417901921299"><ele>826.0</ele><time>2026-04-19T13:04:19.999Z</time></trkpt><trkpt lat="40.9340522863592" lon="-5.6683530464901475"><ele>824.6666666666666</ele><time>2026-04-19T13:04:20.999Z</time></trkpt><trkpt lat="40.93422697701491" lon="-5.668288634119833"><ele>823.3333333333333</ele><time>2026-04-19T13:04:21.999Z</time></trkpt><trkpt lat="40.93440640690863" lon="-5.668216571930732"><ele>822.0</ele><time>2026-04-19T13:04:22.999Z</time></trkpt><trkpt lat="40.93458829065846" lon="-5.668163896212799"><ele>822.0</ele><time>2026-04-19T13:04:23.999Z</time></trkpt><trkpt lat="40.934768766219065" lon="-5.668112207238838"><ele>822.0</ele><time>2026-04-19T13:04:24.999Z</time></trkpt><trkpt lat="40.93494033524648" lon="-5.668066351865837"><ele>822.0</ele><time>2026-04-19T13:04:25.999Z</time></trkpt><trkpt lat="40.93510535319903" lon="-5.668033192465248"><ele>821.6666666666667</ele><time>2026-04-19T13:04:26.999Z</time></trkpt><trkpt lat="40.93527699200517" lon="-5.668010023324119"><ele>821.3333333333334</ele><time>2026-04-19T13:04:27.999Z</time></trkpt><trkpt lat="40.93543602128505" lon="-5.667994435970608"><ele>821.0</ele><time>2026-04-19T13:04:28.999Z</time></trkpt><trkpt lat="40.93559544704621" lon="-5.667979639670103"><ele>821.0</ele><time>2026-04-19T13:04:29.999Z</time></trkpt><trkpt lat="40.93575060244049" lon="-5.667977520587164"><ele>821.0</ele><time>2026-04-19T13:04:30.999Z</time></trkpt><trkpt lat="40.935877556212965" lon="-5.667977420862178"><ele>821.0</ele><time>2026-04-19T13:04:31.999Z</time></trkpt><trkpt lat="40.93602205820586" lon="-5.667989327774231"><ele>821.0</ele><time>2026-04-19T13:04:32.999Z</time></trkpt><trkpt lat="40.936163598950785" lon="-5.668009370242633"><ele>820.75</ele><time>2026-04-19T13:04:33.999Z</time></trkpt><trkpt lat="40.93631051673896" lon="-5.667925750488284"><ele>820.5</ele><time>2026-04-19T13:04:34.999Z</time></trkpt><trkpt lat="40.93642868451512" lon="-5.667859400539319"><ele>820.25</ele><time>2026-04-19T13:04:35.999Z</time></trkpt><trkpt lat="40.936536999399344" lon="-5.667774602183843"><ele>820.0</ele><time>2026-04-19T13:04:36.999Z</time></trkpt><trkpt lat="40.93663345747221" lon="-5.667674594579186"><ele>820.5</ele><time>2026-04-19T13:04:37.999Z</time></trkpt><trkpt lat="40.9367536075332" lon="-5.667656227254823"><ele>821.0</ele><time>2026-04-19T13:04:38.999Z</time></trkpt><trkpt lat="40.93678897626962" lon="-5.667444514071813"><ele>821.5</ele><time>2026-04-19T13:04:39.999Z</time></trkpt><trkpt lat="40.93683910154208" lon="-5.667319932860748"><ele>822.0</ele><time>2026-04-19T13:04:40.999Z</time></trkpt><trkpt lat="40.93685951994538" lon="-5.667172249220818"><ele>822.0</ele><time>2026-04-19T13:04:41.999Z</time></trkpt><trkpt lat="40.936870681548676" lon="-5.667058847954271"><ele>822.0</ele><time>2026-04-19T13:04:42.999Z</time></trkpt><trkpt lat="40.93688099193635" lon="-5.666961408840295"><ele>822.0</ele><time>2026-04-19T13:04:43.999Z</time></trkpt><trkpt lat="40.936875245964195" lon="-5.666821707829156"><ele>822.0</ele><time>2026-04-19T13:04:45.999Z</time></trkpt><trkpt lat="40.93686138070077" lon="-5.6667097711081995"><ele>822.0</ele><time>2026-04-19T13:04:47.999Z</time></trkpt><trkpt lat="40.93686802830356" lon="-5.666620120456808"><ele>822.0</ele><time>2026-04-19T13:04:49.999Z</time></trkpt><trkpt lat="40.93693631504566" lon="-5.666566091048719"><ele>822.0</ele><time>2026-04-19T13:04:51.999Z</time></trkpt><trkpt lat="40.93702197051088" lon="-5.666616535493828"><ele>822.0</ele><time>2026-04-19T13:04:53.999Z</time></trkpt><trkpt lat="40.93707393536389" lon="-5.66667060253989"><ele>822.0</ele><time>2026-04-19T13:04:54.999Z</time></trkpt><trkpt lat="40.93715050408333" lon="-5.666717212483507"><ele>822.0</ele><time>2026-04-19T13:04:55.999Z</time></trkpt><trkpt lat="40.937252637414645" lon="-5.666737082694793"><ele>822.0</ele><time>2026-04-19T13:04:56.999Z</time></trkpt><trkpt lat="40.93736840735951" lon="-5.666738840321429"><ele>822.0</ele><time>2026-04-19T13:04:57.998Z</time></trkpt><trkpt lat="40.937477559495576" lon="-5.666740774973363"><ele>822.0</ele><time>2026-04-19T13:04:58.998Z</time></trkpt><trkpt lat="40.93760534276301" lon="-5.666765729692629"><ele>822.0</ele><time>2026-04-19T13:04:59.998Z</time></trkpt><trkpt lat="40.93774615984355" lon="-5.666785626563023"><ele>822.0</ele><time>2026-04-19T13:05:00.998Z</time></trkpt><trkpt lat="40.93788505831213" lon="-5.666802048597206"><ele>821.25</ele><time>2026-04-19T13:05:01.998Z</time></trkpt><trkpt lat="40.938014276254044" lon="-5.666825054628994"><ele>820.5</ele><time>2026-04-19T13:05:02.998Z</time></trkpt><trkpt lat="40.938138888656525" lon="-5.666844764674418"><ele>819.75</ele><time>2026-04-19T13:05:03.998Z</time></trkpt><trkpt lat="40.938253316415825" lon="-5.666863987909716"><ele>819.0</ele><time>2026-04-19T13:05:04.998Z</time></trkpt><trkpt lat="40.9383568010328" lon="-5.666878653314453"><ele>818.4000000000001</ele><time>2026-04-19T13:05:05.998Z</time></trkpt><trkpt lat="40.93844593250962" lon="-5.666889219691604"><ele>817.8</ele><time>2026-04-19T13:05:06.998Z</time></trkpt><trkpt lat="40.93852376548886" lon="-5.666878249912146"><ele>817.2</ele><time>2026-04-19T13:05:07.998Z</time></trkpt><trkpt lat="40.938594137642525" lon="-5.666828030930897"><ele>816.5999999999999</ele><time>2026-04-19T13:05:08.998Z</time></trkpt><trkpt lat="40.93865678717246" lon="-5.666628549366168"><ele>816.0</ele><time>2026-04-19T13:05:10.998Z</time></trkpt><trkpt lat="40.938660179215816" lon="-5.666497736937855"><ele>816.0</ele><time>2026-04-19T13:05:11.998Z</time></trkpt><trkpt lat="40.93866637561422" lon="-5.666352515258512"><ele>816.0</ele><time>2026-04-19T13:05:12.998Z</time></trkpt><trkpt lat="40.938686657754516" lon="-5.666194086670203"><ele>816.0</ele><time>2026-04-19T13:05:13.998Z</time></trkpt><trkpt lat="40.938701105243794" lon="-5.666018098319281"><ele>816.0</ele><time>2026-04-19T13:05:14.998Z</time></trkpt><trkpt lat="40.93871232099601" lon="-5.66583613478604"><ele>816.0</ele><time>2026-04-19T13:05:15.998Z</time></trkpt><trkpt lat="40.93873451970747" lon="-5.665642000681889"><ele>816.0</ele><time>2026-04-19T13:05:16.998Z</time></trkpt><trkpt lat="40.93874935199375" lon="-5.665434367821111"><ele>816.0</ele><time>2026-04-19T13:05:17.998Z</time></trkpt><trkpt lat="40.93876791117529" lon="-5.665223143208429"><ele>815.6666666666667</ele><time>2026-04-19T13:05:18.998Z</time></trkpt><trkpt lat="40.93878944359386" lon="-5.665012588306349"><ele>815.3333333333334</ele><time>2026-04-19T13:05:19.998Z</time></trkpt><trkpt lat="40.938813796658785" lon="-5.664797215572458"><ele>815.0</ele><time>2026-04-19T13:05:20.998Z</time></trkpt><trkpt lat="40.93883646141199" lon="-5.664578027929815"><ele>815.0</ele><time>2026-04-19T13:05:21.998Z</time></trkpt><trkpt lat="40.93886812524437" lon="-5.664352083783505"><ele>815.0</ele><time>2026-04-19T13:05:22.998Z</time></trkpt><trkpt lat="40.93888982631777" lon="-5.664117435076937"><ele>815.0</ele><time>2026-04-19T13:05:23.998Z</time></trkpt><trkpt lat="40.938909417374944" lon="-5.663871570384258"><ele>815.3333333333334</ele><time>2026-04-19T13:05:24.998Z</time></trkpt><trkpt lat="40.938925824799995" lon="-5.66361274484654"><ele>815.6666666666667</ele><time>2026-04-19T13:05:25.998Z</time></trkpt><trkpt lat="40.93894973892581" lon="-5.6633698101994705"><ele>816.0</ele><time>2026-04-19T13:05:26.998Z</time></trkpt><trkpt lat="40.938976849632354" lon="-5.663127274452774"><ele>816.0</ele><time>2026-04-19T13:05:27.998Z</time></trkpt><trkpt lat="40.939003993957094" lon="-5.662894781011018"><ele>816.0</ele><time>2026-04-19T13:05:28.998Z</time></trkpt><trkpt lat="40.93902740997059" lon="-5.662668750647607"><ele>816.0</ele><time>2026-04-19T13:05:29.998Z</time></trkpt><trkpt lat="40.93904958228012" lon="-5.6624397259346155"><ele>816.0</ele><time>2026-04-19T13:05:30.998Z</time></trkpt><trkpt lat="40.93906866577438" lon="-5.662211945594311"><ele>816.0</ele><time>2026-04-19T13:05:31.998Z</time></trkpt><trkpt lat="40.939089131028865" lon="-5.661985536028624"><ele>816.0</ele><time>2026-04-19T13:05:32.998Z</time></trkpt><trkpt lat="40.93911018944818" lon="-5.661761581677801"><ele>816.0</ele><time>2026-04-19T13:05:33.998Z</time></trkpt><trkpt lat="40.93913041779286" lon="-5.66153361112261"><ele>816.0</ele><time>2026-04-19T13:05:34.998Z</time></trkpt><trkpt lat="40.93914678724272" lon="-5.66129691602669"><ele>816.0</ele><time>2026-04-19T13:05:35.998Z</time></trkpt><trkpt lat="40.93916027141636" lon="-5.661056317952278"><ele>816.0</ele><time>2026-04-19T13:05:36.998Z</time></trkpt><trkpt lat="40.93918004166803" lon="-5.660806804308001"><ele>816.0</ele><time>2026-04-19T13:05:38Z</time></trkpt><trkpt lat="40.93919694249759" lon="-5.660566942567128"><ele>816.0</ele><time>2026-04-19T13:05:39Z</time></trkpt><trkpt lat="40.93922993644598" lon="-5.660346960117229"><ele>814.3333333333333</ele><time>2026-04-19T13:05:40Z</time></trkpt><trkpt lat="40.93925052746974" lon="-5.6601299714364695"><ele>812.6666666666666</ele><time>2026-04-19T13:05:41Z</time></trkpt><trkpt lat="40.939272687265664" lon="-5.659925742226541"><ele>811.0</ele><time>2026-04-19T13:05:42Z</time></trkpt><trkpt lat="40.939293781367155" lon="-5.659721656330786"><ele>811.0</ele><time>2026-04-19T13:05:43Z</time></trkpt><trkpt lat="40.93931807194843" lon="-5.659526148629708"><ele>811.0</ele><time>2026-04-19T13:05:44Z</time></trkpt><trkpt lat="40.93934389448791" lon="-5.659341062869834"><ele>811.0</ele><time>2026-04-19T13:05:45Z</time></trkpt><trkpt lat="40.9393627920533" lon="-5.659151761906897"><ele>811.0</ele><time>2026-04-19T13:05:46Z</time></trkpt><trkpt lat="40.93936669115379" lon="-5.65896630699085"><ele>810.75</ele><time>2026-04-19T13:05:47Z</time></trkpt><trkpt lat="40.939376632420746" lon="-5.658792127073634"><ele>810.5</ele><time>2026-04-19T13:05:48Z</time></trkpt><trkpt lat="40.93938906370075" lon="-5.658620741400102"><ele>810.25</ele><time>2026-04-19T13:05:49Z</time></trkpt><trkpt lat="40.939406023319314" lon="-5.658461739068888"><ele>810.0</ele><time>2026-04-19T13:05:50Z</time></trkpt><trkpt lat="40.939406412616634" lon="-5.658329454162632"><ele>810.0</ele><time>2026-04-19T13:05:51Z</time></trkpt><trkpt lat="40.93942190790199" lon="-5.65820806843273"><ele>810.0</ele><time>2026-04-19T13:05:52Z</time></trkpt><trkpt lat="40.939432523049064" lon="-5.658094319339415"><ele>810.0</ele><time>2026-04-19T13:05:53Z</time></trkpt><trkpt lat="40.939444431619265" lon="-5.65796951838605"><ele>810.0</ele><time>2026-04-19T13:05:54Z</time></trkpt><trkpt lat="40.93945712610989" lon="-5.657833466466676"><ele>810.0</ele><time>2026-04-19T13:05:55Z</time></trkpt><trkpt lat="40.939478419538524" lon="-5.657674855049946"><ele>809.0</ele><time>2026-04-19T13:05:56Z</time></trkpt><trkpt lat="40.93950674612434" lon="-5.657505168975893"><ele>808.0</ele><time>2026-04-19T13:05:57Z</time></trkpt><trkpt lat="40.93952534598106" lon="-5.657325743582083"><ele>807.0</ele><time>2026-04-19T13:05:58Z</time></trkpt><trkpt lat="40.939534219309145" lon="-5.657144080360799"><ele>806.0</ele><time>2026-04-19T13:05:59Z</time></trkpt><trkpt lat="40.93954948723213" lon="-5.656999298882016"><ele>806.1999999999999</ele><time>2026-04-19T13:06:00Z</time></trkpt><trkpt lat="40.93956420044986" lon="-5.656848898021667"><ele>806.4</ele><time>2026-04-19T13:06:01Z</time></trkpt><trkpt lat="40.93958482174118" lon="-5.65670552943378"><ele>806.6</ele><time>2026-04-19T13:06:02Z</time></trkpt><trkpt lat="40.93960305639921" lon="-5.656563302348592"><ele>806.8</ele><time>2026-04-19T13:06:03Z</time></trkpt><trkpt lat="40.93961463850627" lon="-5.656434193691416"><ele>807.0</ele><time>2026-04-19T13:06:04Z</time></trkpt><trkpt lat="40.93962523264901" lon="-5.6563018441828055"><ele>807.0</ele><time>2026-04-19T13:06:05Z</time></trkpt><trkpt lat="40.9396253636631" lon="-5.6561632633235845"><ele>807.0</ele><time>2026-04-19T13:06:06Z</time></trkpt><trkpt lat="40.93963942968884" lon="-5.656008188229089"><ele>807.0</ele><time>2026-04-19T13:06:07Z</time></trkpt><trkpt lat="40.9396658701191" lon="-5.655902935410021"><ele>807.0</ele><time>2026-04-19T13:06:08Z</time></trkpt><trkpt lat="40.93967226246661" lon="-5.655752042802008"><ele>807.0</ele><time>2026-04-19T13:06:09Z</time></trkpt><trkpt lat="40.9396858641432" lon="-5.655612399237673"><ele>806.6</ele><time>2026-04-19T13:06:10Z</time></trkpt><trkpt lat="40.939704493096336" lon="-5.6554901908852075"><ele>806.2</ele><time>2026-04-19T13:06:11Z</time></trkpt><trkpt lat="40.93971208539636" lon="-5.65536119351796"><ele>805.8</ele><time>2026-04-19T13:06:12Z</time></trkpt><trkpt lat="40.939717226166316" lon="-5.655218903626324"><ele>805.4</ele><time>2026-04-19T13:06:13Z</time></trkpt><trkpt lat="40.939730130883135" lon="-5.655131120171402"><ele>805.0</ele><time>2026-04-19T13:06:13.999Z</time></trkpt><trkpt lat="40.939712886375816" lon="-5.6550224219256275"><ele>804.6</ele><time>2026-04-19T13:06:15.999Z</time></trkpt><trkpt lat="40.93969150963214" lon="-5.654922960835028"><ele>804.2</ele><time>2026-04-19T13:06:16.999Z</time></trkpt><trkpt lat="40.939604283888784" lon="-5.654857599835241"><ele>803.8</ele><time>2026-04-19T13:06:17.999Z</time></trkpt><trkpt lat="40.93953612123984" lon="-5.654771771515461"><ele>803.4</ele><time>2026-04-19T13:06:18.999Z</time></trkpt><trkpt lat="40.93945776714175" lon="-5.654690910617503"><ele>803.0</ele><time>2026-04-19T13:06:19.999Z</time></trkpt><trkpt lat="40.93939231701358" lon="-5.654616565692246"><ele>803.0</ele><time>2026-04-19T13:06:20.999Z</time></trkpt><trkpt lat="40.93932629572409" lon="-5.654533114100441"><ele>803.0</ele><time>2026-04-19T13:06:21.999Z</time></trkpt><trkpt lat="40.939252334847986" lon="-5.654448617593504"><ele>803.0</ele><time>2026-04-19T13:06:22.999Z</time></trkpt><trkpt lat="40.93917938942293" lon="-5.654357146730782"><ele>803.0</ele><time>2026-04-19T13:06:23.999Z</time></trkpt><trkpt lat="40.93910456823184" lon="-5.654283722255746"><ele>803.0</ele><time>2026-04-19T13:06:24.999Z</time></trkpt><trkpt lat="40.93902198976847" lon="-5.654226357189134"><ele>802.2</ele><time>2026-04-19T13:06:25.999Z</time></trkpt><trkpt lat="40.93893090860087" lon="-5.654195759391164"><ele>801.4</ele><time>2026-04-19T13:06:26.999Z</time></trkpt><trkpt lat="40.93884895782438" lon="-5.6541661041261895"><ele>800.6</ele><time>2026-04-19T13:06:27.999Z</time></trkpt><trkpt lat="40.938773968827036" lon="-5.654084730843653"><ele>799.8000000000001</ele><time>2026-04-19T13:06:28.999Z</time></trkpt><trkpt lat="40.938730443000296" lon="-5.653974641714834"><ele>799.0</ele><time>2026-04-19T13:06:29.999Z</time></trkpt><trkpt lat="40.938702385856836" lon="-5.653840465735985"><ele>799.0</ele><time>2026-04-19T13:06:30.999Z</time></trkpt><trkpt lat="40.93864774861925" lon="-5.653710127472055"><ele>799.0</ele><time>2026-04-19T13:06:31.999Z</time></trkpt><trkpt lat="40.93856172045924" lon="-5.653582754778206"><ele>799.0</ele><time>2026-04-19T13:06:32.999Z</time></trkpt><trkpt lat="40.93846120099249" lon="-5.65346534979992"><ele>799.0</ele><time>2026-04-19T13:06:33.999Z</time></trkpt><trkpt lat="40.93834691544877" lon="-5.653340236131004"><ele>798.0</ele><time>2026-04-19T13:06:34.999Z</time></trkpt><trkpt lat="40.93823402020938" lon="-5.653208587995962"><ele>797.0</ele><time>2026-04-19T13:06:35.999Z</time></trkpt><trkpt lat="40.9381229764293" lon="-5.653081670039539"><ele>796.0</ele><time>2026-04-19T13:06:36.999Z</time></trkpt><trkpt lat="40.938018687842295" lon="-5.65295850737925"><ele>795.0</ele><time>2026-04-19T13:06:37.999Z</time></trkpt><trkpt lat="40.93790830778794" lon="-5.652809036587199"><ele>794.75</ele><time>2026-04-19T13:06:38.999Z</time></trkpt><trkpt lat="40.93779449044301" lon="-5.652700752181304"><ele>794.5</ele><time>2026-04-19T13:06:39.999Z</time></trkpt><trkpt lat="40.93770139340931" lon="-5.652590717491877"><ele>794.25</ele><time>2026-04-19T13:06:40.999Z</time></trkpt><trkpt lat="40.9376364353389" lon="-5.652490790620305"><ele>794.0</ele><time>2026-04-19T13:06:41.999Z</time></trkpt><trkpt lat="40.93754762233295" lon="-5.652398187647413"><ele>794.0</ele><time>2026-04-19T13:06:42.999Z</time></trkpt><trkpt lat="40.93745233899467" lon="-5.6523096981671985"><ele>794.0</ele><time>2026-04-19T13:06:43.999Z</time></trkpt><trkpt lat="40.937356708099706" lon="-5.652229911351614"><ele>794.0</ele><time>2026-04-19T13:06:44.999Z</time></trkpt><trkpt lat="40.937267141262176" lon="-5.652145665922318"><ele>794.0</ele><time>2026-04-19T13:06:45.999Z</time></trkpt><trkpt lat="40.93716833166551" lon="-5.652057109983506"><ele>794.0</ele><time>2026-04-19T13:06:46.999Z</time></trkpt><trkpt lat="40.93706501650579" lon="-5.6519922941780765"><ele>794.0</ele><time>2026-04-19T13:06:47.999Z</time></trkpt><trkpt lat="40.93695160903983" lon="-5.651949301092264"><ele>794.0</ele><time>2026-04-19T13:06:48.999Z</time></trkpt><trkpt lat="40.93684627650467" lon="-5.651927797915726"><ele>794.0</ele><time>2026-04-19T13:06:49.999Z</time></trkpt><trkpt lat="40.936736445065286" lon="-5.651914057548854"><ele>794.0</ele><time>2026-04-19T13:06:50.999Z</time></trkpt><trkpt lat="40.936628628470615" lon="-5.651921395200329"><ele>792.8000000000001</ele><time>2026-04-19T13:06:51.999Z</time></trkpt><trkpt lat="40.936526171743864" lon="-5.651923666387994"><ele>791.6</ele><time>2026-04-19T13:06:52.999Z</time></trkpt><trkpt lat="40.936417294908516" lon="-5.6519044266263085"><ele>790.4</ele><time>2026-04-19T13:06:53.999Z</time></trkpt><trkpt lat="40.93632083355917" lon="-5.651911993680877"><ele>789.2</ele><time>2026-04-19T13:06:54.999Z</time></trkpt><trkpt lat="40.93622625823084" lon="-5.651918764673019"><ele>788.0</ele><time>2026-04-19T13:06:55.999Z</time></trkpt><trkpt lat="40.93613653353704" lon="-5.651937947018162"><ele>788.4</ele><time>2026-04-19T13:06:56.999Z</time></trkpt><trkpt lat="40.936060318464605" lon="-5.651986395923334"><ele>788.8</ele><time>2026-04-19T13:06:57.999Z</time></trkpt><trkpt lat="40.93598969527617" lon="-5.652032798851281"><ele>789.2</ele><time>2026-04-19T13:06:58.999Z</time></trkpt><trkpt lat="40.935918081429584" lon="-5.652044149014115"><ele>789.6</ele><time>2026-04-19T13:06:59.999Z</time></trkpt><trkpt lat="40.93580592126206" lon="-5.651982458542043"><ele>790.0</ele><time>2026-04-19T13:07:01.999Z</time></trkpt><trkpt lat="40.935799282245746" lon="-5.651777838211077"><ele>790.0</ele><time>2026-04-19T13:07:03.998Z</time></trkpt><trkpt lat="40.935835795711704" lon="-5.651675777864034"><ele>790.0</ele><time>2026-04-19T13:07:04.998Z</time></trkpt><trkpt lat="40.93588088056201" lon="-5.651562612735944"><ele>790.0</ele><time>2026-04-19T13:07:05.998Z</time></trkpt><trkpt lat="40.93590639416327" lon="-5.651445002007766"><ele>790.0</ele><time>2026-04-19T13:07:06.998Z</time></trkpt><trkpt lat="40.935914111748474" lon="-5.651293609391983"><ele>790.0</ele><time>2026-04-19T13:07:07.998Z</time></trkpt><trkpt lat="40.93590607192324" lon="-5.6511340542577395"><ele>789.3333333333333</ele><time>2026-04-19T13:07:08.998Z</time></trkpt><trkpt lat="40.93591513513885" lon="-5.650992918200126"><ele>788.6666666666666</ele><time>2026-04-19T13:07:09.998Z</time></trkpt><trkpt lat="40.935904722726576" lon="-5.650860693915318"><ele>788.0</ele><time>2026-04-19T13:07:10.998Z</time></trkpt><trkpt lat="40.935909000699574" lon="-5.650746522373618"><ele>787.3333333333333</ele><time>2026-04-19T13:07:11.998Z</time></trkpt><trkpt lat="40.935911358971566" lon="-5.650645665229766"><ele>786.6666666666666</ele><time>2026-04-19T13:07:12.998Z</time></trkpt><trkpt lat="40.9359252716621" lon="-5.650558531773548"><ele>786.0</ele><time>2026-04-19T13:07:13.998Z</time></trkpt><trkpt lat="40.93592267124157" lon="-5.650472276899486"><ele>786.0</ele><time>2026-04-19T13:07:14.998Z</time></trkpt><trkpt lat="40.93591861092938" lon="-5.65037593502615"><ele>786.0</ele><time>2026-04-19T13:07:15.998Z</time></trkpt><trkpt lat="40.93591635113171" lon="-5.650278400968935"><ele>786.0</ele><time>2026-04-19T13:07:16.998Z</time></trkpt><trkpt lat="40.93591522329596" lon="-5.650183095705991"><ele>786.0</ele><time>2026-04-19T13:07:17.998Z</time></trkpt><trkpt lat="40.93590480299599" lon="-5.650072929506607"><ele>786.0</ele><time>2026-04-19T13:07:18.998Z</time></trkpt><trkpt lat="40.93593255631321" lon="-5.649971685890952"><ele>786.0</ele><time>2026-04-19T13:07:19.998Z</time></trkpt><trkpt lat="40.93594302340885" lon="-5.649850054675184"><ele>786.1428571428572</ele><time>2026-04-19T13:07:20.998Z</time></trkpt><trkpt lat="40.93594311635762" lon="-5.649741290013792"><ele>786.2857142857143</ele><time>2026-04-19T13:07:21.998Z</time></trkpt><trkpt lat="40.935954150719944" lon="-5.649643454269828"><ele>786.4285714285714</ele><time>2026-04-19T13:07:22.998Z</time></trkpt><trkpt lat="40.93594086913127" lon="-5.649559855626784"><ele>786.5714285714287</ele><time>2026-04-19T13:07:23.998Z</time></trkpt><trkpt lat="40.93595929038959" lon="-5.649461696727882"><ele>786.7142857142857</ele><time>2026-04-19T13:07:24.998Z</time></trkpt><trkpt lat="40.93596220046095" lon="-5.6493587860676175"><ele>786.8571428571429</ele><time>2026-04-19T13:07:25.998Z</time></trkpt><trkpt lat="40.935964837260734" lon="-5.6492655392147055"><ele>787.0</ele><time>2026-04-19T13:07:26.998Z</time></trkpt><trkpt lat="40.935956560837695" lon="-5.64911113146062"><ele>787.9999999999999</ele><time>2026-04-19T13:07:28.998Z</time></trkpt><trkpt lat="40.935955168469796" lon="-5.648948182396705"><ele>789.0</ele><time>2026-04-19T13:07:30.998Z</time></trkpt><trkpt lat="40.93597558408655" lon="-5.6488412666853565"><ele>790.0</ele><time>2026-04-19T13:07:31.998Z</time></trkpt><trkpt lat="40.93595773211292" lon="-5.648733627521511"><ele>791.0</ele><time>2026-04-19T13:07:32.998Z</time></trkpt><trkpt lat="40.93595480622622" lon="-5.64862953874528"><ele>791.9999999999999</ele><time>2026-04-19T13:07:33.998Z</time></trkpt><trkpt lat="40.93596527624875" lon="-5.648545483624244"><ele>793.0</ele><time>2026-04-19T13:07:34.998Z</time></trkpt><trkpt lat="40.9359564069859" lon="-5.648455266401893"><ele>793.9999999999999</ele><time>2026-04-19T13:07:35.998Z</time></trkpt><trkpt lat="40.93597911074953" lon="-5.648373601168118"><ele>795.0</ele><time>2026-04-19T13:07:36.998Z</time></trkpt><trkpt lat="40.935906809551476" lon="-5.64831128074588"><ele>796.0</ele><time>2026-04-19T13:07:37.998Z</time></trkpt><trkpt lat="40.935860933021765" lon="-5.64822249009164"><ele>797.0</ele><time>2026-04-19T13:07:38.998Z</time></trkpt><trkpt lat="40.93586243270249" lon="-5.648120456044997"><ele>797.9999999999999</ele><time>2026-04-19T13:07:39.998Z</time></trkpt><trkpt lat="40.9358507851166" lon="-5.648034808311137"><ele>799.0</ele><time>2026-04-19T13:07:40.998Z</time></trkpt><trkpt lat="40.93574868410311" lon="-5.647992920895325"><ele>799.1666666666666</ele><time>2026-04-19T13:07:41.998Z</time></trkpt><trkpt lat="40.93568483730961" lon="-5.647934012007783"><ele>799.3333333333333</ele><time>2026-04-19T13:07:42.998Z</time></trkpt><trkpt lat="40.93560684578527" lon="-5.6478498217590465"><ele>799.5</ele><time>2026-04-19T13:07:45Z</time></trkpt><trkpt lat="40.93551978080762" lon="-5.647769665600996"><ele>799.6666666666667</ele><time>2026-04-19T13:07:47Z</time></trkpt><trkpt lat="40.93544447657162" lon="-5.647707252164379"><ele>799.8333333333334</ele><time>2026-04-19T13:07:49Z</time></trkpt><trkpt lat="40.93537800814789" lon="-5.647663811635747"><ele>800.0</ele><time>2026-04-19T13:07:52Z</time></trkpt><trkpt lat="40.93532724005461" lon="-5.647599817429988"><ele>800.3333333333334</ele><time>2026-04-19T13:08:12Z</time></trkpt><trkpt lat="40.93527565405659" lon="-5.6475190042340735"><ele>800.6666666666667</ele><time>2026-04-19T13:08:14Z</time></trkpt><trkpt lat="40.93521132994262" lon="-5.647430180439087"><ele>801.0</ele><time>2026-04-19T13:08:16Z</time></trkpt><trkpt lat="40.93511098067575" lon="-5.647438608078921"><ele>801.3333333333333</ele><time>2026-04-19T13:08:19Z</time></trkpt><trkpt lat="40.93506405407969" lon="-5.64749758806785"><ele>801.6666666666666</ele><time>2026-04-19T13:08:21Z</time></trkpt><trkpt lat="40.93502149120836" lon="-5.647572690382026"><ele>802.0</ele><time>2026-04-19T13:08:23Z</time></trkpt><trkpt lat="40.9349795392383" lon="-5.647656708782262"><ele>804.0</ele><time>2026-04-19T13:08:24.999Z</time></trkpt><trkpt lat="40.934941819339905" lon="-5.647740000848001"><ele>804.0</ele><time>2026-04-19T13:08:26.999Z</time></trkpt><trkpt lat="40.93486325887677" lon="-5.647836349229328"><ele>802.0</ele><time>2026-04-19T13:08:28.999Z</time></trkpt><trkpt lat="40.934950032708755" lon="-5.647792393113567"><ele>804.0</ele><time>2026-04-19T13:09:25.998Z</time></trkpt></trkseg></trk></gpx>